<?xml version="1.0" encoding="UTF-8" standalone="no" ?>
<gpx xmlns="http://www.topografix.com/GPX/1/1" xmlns:xsi="http://www.w3.org/2001/XMLSchema-instance" xsi:schemaLocation="http://www.topografix.com/GPX/1/1 http://www.topografix.com/GPX/1/1/gpx.xsd" version="1.1" creator="VisuGPX - https://www.visugpx.com">
  <metadata>
    <name>Vélo bleu - Circuit 19</name>
    <desc><![CDATA[Petit patrimoine sur ce circuit :
- Lavoirs de Riaucourt, Treix, Bourdons-sur-Rognon, Chantraines, Briaucourt.
- Chapelle de Mechineix à Riaucourt, Chapelle Saint-Sulpice à Morteau.
- Châteaux d'Ecot-la-Combe, de >Morteau et de Briaucourt.]]></desc>
  </metadata>
  <wpt lat="48.17394" lon="5.15482">
    <ele>251.3</ele>
    <name><![CDATA[Point de parcou]]></name>
    <type><![CDATA[GENERIC]]></type>
  </wpt>
  <trk>
    <name><![CDATA[CONDES 1 Morteau Ecot Septfon]]></name>
    <trkseg>
      <trkpt lat="48.17787" lon="5.15017">
        <ele>246.27</ele>
        <time>2024-12-23T21:14:53.000Z</time>
      </trkpt>
      <trkpt lat="48.17764" lon="5.1502">
        <ele>246.63</ele>
        <time>2024-12-23T21:14:53.004Z</time>
      </trkpt>
      <trkpt lat="48.17741" lon="5.15023">
        <ele>247.08</ele>
        <time>2024-12-23T21:14:53.011Z</time>
      </trkpt>
      <trkpt lat="48.17722" lon="5.15029">
        <ele>247.51</ele>
        <time>2024-12-23T21:14:53.022Z</time>
      </trkpt>
      <trkpt lat="48.17702" lon="5.15036">
        <ele>247.91</ele>
        <time>2024-12-23T21:14:53.036Z</time>
      </trkpt>
      <trkpt lat="48.17683" lon="5.15058">
        <ele>248.38</ele>
        <time>2024-12-23T21:14:53.054Z</time>
      </trkpt>
      <trkpt lat="48.17664" lon="5.15081">
        <ele>248.55</ele>
        <time>2024-12-23T21:14:53.076Z</time>
      </trkpt>
      <trkpt lat="48.17647" lon="5.15091">
        <ele>248.63</ele>
        <time>2024-12-23T21:14:53.101Z</time>
      </trkpt>
      <trkpt lat="48.1764" lon="5.15096">
        <ele>248.7</ele>
        <time>2024-12-23T21:14:53.127Z</time>
      </trkpt>
      <trkpt lat="48.17634" lon="5.15091">
        <ele>248.7</ele>
        <time>2024-12-23T21:14:53.154Z</time>
      </trkpt>
      <trkpt lat="48.17631" lon="5.15087">
        <ele>248.64</ele>
        <time>2024-12-23T21:14:53.181Z</time>
      </trkpt>
      <trkpt lat="48.17626" lon="5.15059">
        <ele>248.5</ele>
        <time>2024-12-23T21:14:53.212Z</time>
      </trkpt>
      <trkpt lat="48.17621" lon="5.15031">
        <ele>248.34</ele>
        <time>2024-12-23T21:14:53.246Z</time>
      </trkpt>
      <trkpt lat="48.17614" lon="5.15025">
        <ele>248.19</ele>
        <time>2024-12-23T21:14:53.281Z</time>
      </trkpt>
      <trkpt lat="48.17599" lon="5.15027">
        <ele>248.03</ele>
        <time>2024-12-23T21:14:53.318Z</time>
      </trkpt>
      <trkpt lat="48.17583" lon="5.15042">
        <ele>247.87</ele>
        <time>2024-12-23T21:14:53.358Z</time>
      </trkpt>
      <trkpt lat="48.17567" lon="5.15057">
        <ele>247.72</ele>
        <time>2024-12-23T21:14:53.401Z</time>
      </trkpt>
      <trkpt lat="48.17554" lon="5.15066">
        <ele>247.53</ele>
        <time>2024-12-23T21:14:53.447Z</time>
      </trkpt>
      <trkpt lat="48.17526" lon="5.15081">
        <ele>247.19</ele>
        <time>2024-12-23T21:14:53.497Z</time>
      </trkpt>
      <trkpt lat="48.17503" lon="5.15111">
        <ele>246.95</ele>
        <time>2024-12-23T21:14:53.552Z</time>
      </trkpt>
      <trkpt lat="48.17479" lon="5.15142">
        <ele>246.64</ele>
        <time>2024-12-23T21:14:53.612Z</time>
      </trkpt>
      <trkpt lat="48.17456" lon="5.15173">
        <ele>246.51</ele>
        <time>2024-12-23T21:14:53.677Z</time>
      </trkpt>
      <trkpt lat="48.17445" lon="5.15199">
        <ele>246.49</ele>
        <time>2024-12-23T21:14:53.746Z</time>
      </trkpt>
      <trkpt lat="48.17434" lon="5.15235">
        <ele>246.49</ele>
        <time>2024-12-23T21:14:53.819Z</time>
      </trkpt>
      <trkpt lat="48.17429" lon="5.15259">
        <ele>246.87</ele>
        <time>2024-12-23T21:14:53.895Z</time>
      </trkpt>
      <trkpt lat="48.17423" lon="5.15282">
        <ele>247.22</ele>
        <time>2024-12-23T21:14:53.973Z</time>
      </trkpt>
      <trkpt lat="48.17423" lon="5.1531">
        <ele>247.62</ele>
        <time>2024-12-23T21:14:54.054Z</time>
      </trkpt>
      <trkpt lat="48.17416" lon="5.15317">
        <ele>247.88</ele>
        <time>2024-12-23T21:14:54.137Z</time>
      </trkpt>
      <trkpt lat="48.17416" lon="5.15317">
        <ele>248.17</ele>
        <time>2024-12-23T21:14:54.220Z</time>
      </trkpt>
      <trkpt lat="48.17416" lon="5.15317">
        <ele>248.44</ele>
        <time>2024-12-23T21:14:54.303Z</time>
      </trkpt>
      <trkpt lat="48.17416" lon="5.15317">
        <ele>248.7</ele>
        <time>2024-12-23T21:14:54.386Z</time>
      </trkpt>
      <trkpt lat="48.17423" lon="5.1531">
        <ele>249</ele>
        <time>2024-12-23T21:14:54.470Z</time>
      </trkpt>
      <trkpt lat="48.17431" lon="5.15346">
        <ele>249.43</ele>
        <time>2024-12-23T21:14:54.558Z</time>
      </trkpt>
      <trkpt lat="48.17438" lon="5.15381">
        <ele>249.82</ele>
        <time>2024-12-23T21:14:54.650Z</time>
      </trkpt>
      <trkpt lat="48.17438" lon="5.15409">
        <ele>250.11</ele>
        <time>2024-12-23T21:14:54.745Z</time>
      </trkpt>
      <trkpt lat="48.17421" lon="5.15415">
        <ele>250.33</ele>
        <time>2024-12-23T21:14:54.843Z</time>
      </trkpt>
      <trkpt lat="48.17406" lon="5.15398">
        <ele>250.47</ele>
        <time>2024-12-23T21:14:54.944Z</time>
      </trkpt>
      <trkpt lat="48.17383" lon="5.15403">
        <ele>250.66</ele>
        <time>2024-12-23T21:14:55.049Z</time>
      </trkpt>
      <trkpt lat="48.17365" lon="5.15428">
        <ele>250.93</ele>
        <time>2024-12-23T21:14:55.157Z</time>
      </trkpt>
      <trkpt lat="48.17361" lon="5.15444">
        <ele>251.2</ele>
        <time>2024-12-23T21:14:55.267Z</time>
      </trkpt>
      <trkpt lat="48.17361" lon="5.15444">
        <ele>251.46</ele>
        <time>2024-12-23T21:14:55.377Z</time>
      </trkpt>
      <trkpt lat="48.17361" lon="5.15444">
        <ele>251.74</ele>
        <time>2024-12-23T21:14:55.487Z</time>
      </trkpt>
      <trkpt lat="48.17361" lon="5.15444">
        <ele>252.06</ele>
        <time>2024-12-23T21:14:55.597Z</time>
      </trkpt>
      <trkpt lat="48.17365" lon="5.15428">
        <ele>250.93</ele>
        <time>2024-12-23T21:14:55.709Z</time>
      </trkpt>
      <trkpt lat="48.17383" lon="5.15403">
        <ele>250.66</ele>
        <time>2024-12-23T21:14:55.825Z</time>
      </trkpt>
      <trkpt lat="48.17406" lon="5.15398">
        <ele>250.47</ele>
        <time>2024-12-23T21:14:55.945Z</time>
      </trkpt>
      <trkpt lat="48.17421" lon="5.15415">
        <ele>250.33</ele>
        <time>2024-12-23T21:14:56.068Z</time>
      </trkpt>
      <trkpt lat="48.17438" lon="5.15409">
        <ele>254.41</ele>
        <time>2024-12-23T21:14:56.194Z</time>
      </trkpt>
      <trkpt lat="48.17434" lon="5.15435">
        <ele>255.15</ele>
        <time>2024-12-23T21:14:56.322Z</time>
      </trkpt>
      <trkpt lat="48.17425" lon="5.15452">
        <ele>256.03</ele>
        <time>2024-12-23T21:14:56.453Z</time>
      </trkpt>
      <trkpt lat="48.17404" lon="5.15472">
        <ele>256.93</ele>
        <time>2024-12-23T21:14:56.588Z</time>
      </trkpt>
      <trkpt lat="48.17383" lon="5.15493">
        <ele>257.99</ele>
        <time>2024-12-23T21:14:56.727Z</time>
      </trkpt>
      <trkpt lat="48.17359" lon="5.1551">
        <ele>259.05</ele>
        <time>2024-12-23T21:14:56.870Z</time>
      </trkpt>
      <trkpt lat="48.17342" lon="5.15521">
        <ele>260.15</ele>
        <time>2024-12-23T21:14:57.016Z</time>
      </trkpt>
      <trkpt lat="48.1732" lon="5.15544">
        <ele>261.42</ele>
        <time>2024-12-23T21:14:57.166Z</time>
      </trkpt>
      <trkpt lat="48.17303" lon="5.1557">
        <ele>262.79</ele>
        <time>2024-12-23T21:14:57.320Z</time>
      </trkpt>
      <trkpt lat="48.17286" lon="5.15596">
        <ele>264.35</ele>
        <time>2024-12-23T21:14:57.478Z</time>
      </trkpt>
      <trkpt lat="48.17275" lon="5.15632">
        <ele>266.25</ele>
        <time>2024-12-23T21:14:57.640Z</time>
      </trkpt>
      <trkpt lat="48.17265" lon="5.15669">
        <ele>268.32</ele>
        <time>2024-12-23T21:14:57.807Z</time>
      </trkpt>
      <trkpt lat="48.17265" lon="5.15703">
        <ele>270.36</ele>
        <time>2024-12-23T21:14:57.977Z</time>
      </trkpt>
      <trkpt lat="48.17276" lon="5.15738">
        <ele>272.08</ele>
        <time>2024-12-23T21:14:58.152Z</time>
      </trkpt>
      <trkpt lat="48.17288" lon="5.15774">
        <ele>273.77</ele>
        <time>2024-12-23T21:14:58.331Z</time>
      </trkpt>
      <trkpt lat="48.17288" lon="5.15797">
        <ele>275.59</ele>
        <time>2024-12-23T21:14:58.512Z</time>
      </trkpt>
      <trkpt lat="48.17275" lon="5.15821">
        <ele>277.47</ele>
        <time>2024-12-23T21:14:58.697Z</time>
      </trkpt>
      <trkpt lat="48.17253" lon="5.15835">
        <ele>279.52</ele>
        <time>2024-12-23T21:14:58.886Z</time>
      </trkpt>
      <trkpt lat="48.1723" lon="5.15849">
        <ele>281.5</ele>
        <time>2024-12-23T21:14:59.078Z</time>
      </trkpt>
      <trkpt lat="48.17208" lon="5.15863">
        <ele>283.48</ele>
        <time>2024-12-23T21:14:59.274Z</time>
      </trkpt>
      <trkpt lat="48.17185" lon="5.15877">
        <ele>285.42</ele>
        <time>2024-12-23T21:14:59.474Z</time>
      </trkpt>
      <trkpt lat="48.17169" lon="5.1591">
        <ele>287.25</ele>
        <time>2024-12-23T21:14:59.679Z</time>
      </trkpt>
      <trkpt lat="48.17154" lon="5.15943">
        <ele>289.05</ele>
        <time>2024-12-23T21:14:59.888Z</time>
      </trkpt>
      <trkpt lat="48.17138" lon="5.15977">
        <ele>290.88</ele>
        <time>2024-12-23T21:15:00.101Z</time>
      </trkpt>
      <trkpt lat="48.17122" lon="5.1601">
        <ele>292.79</ele>
        <time>2024-12-23T21:15:00.319Z</time>
      </trkpt>
      <trkpt lat="48.17106" lon="5.16043">
        <ele>294.54</ele>
        <time>2024-12-23T21:15:00.541Z</time>
      </trkpt>
      <trkpt lat="48.17091" lon="5.16076">
        <ele>296.19</ele>
        <time>2024-12-23T21:15:00.767Z</time>
      </trkpt>
      <trkpt lat="48.17069" lon="5.16098">
        <ele>297.74</ele>
        <time>2024-12-23T21:15:00.998Z</time>
      </trkpt>
      <trkpt lat="48.17048" lon="5.161">
        <ele>299.21</ele>
        <time>2024-12-23T21:15:01.232Z</time>
      </trkpt>
      <trkpt lat="48.17035" lon="5.16086">
        <ele>300.57</ele>
        <time>2024-12-23T21:15:01.469Z</time>
      </trkpt>
      <trkpt lat="48.17022" lon="5.16072">
        <ele>301.84</ele>
        <time>2024-12-23T21:15:01.708Z</time>
      </trkpt>
      <trkpt lat="48.16996" lon="5.16047">
        <ele>303.06</ele>
        <time>2024-12-23T21:15:01.952Z</time>
      </trkpt>
      <trkpt lat="48.16969" lon="5.16021">
        <ele>304.18</ele>
        <time>2024-12-23T21:15:02.201Z</time>
      </trkpt>
      <trkpt lat="48.16943" lon="5.15996">
        <ele>305.18</ele>
        <time>2024-12-23T21:15:02.455Z</time>
      </trkpt>
      <trkpt lat="48.16917" lon="5.1597">
        <ele>306.07</ele>
        <time>2024-12-23T21:15:02.714Z</time>
      </trkpt>
      <trkpt lat="48.16891" lon="5.15945">
        <ele>306.8</ele>
        <time>2024-12-23T21:15:02.978Z</time>
      </trkpt>
      <trkpt lat="48.16864" lon="5.15919">
        <ele>307.43</ele>
        <time>2024-12-23T21:15:03.247Z</time>
      </trkpt>
      <trkpt lat="48.16838" lon="5.15894">
        <ele>307.98</ele>
        <time>2024-12-23T21:15:03.521Z</time>
      </trkpt>
      <trkpt lat="48.16812" lon="5.15868">
        <ele>308.48</ele>
        <time>2024-12-23T21:15:03.800Z</time>
      </trkpt>
      <trkpt lat="48.1679" lon="5.15855">
        <ele>308.92</ele>
        <time>2024-12-23T21:15:04.083Z</time>
      </trkpt>
      <trkpt lat="48.1676" lon="5.15855">
        <ele>309.31</ele>
        <time>2024-12-23T21:15:04.371Z</time>
      </trkpt>
      <trkpt lat="48.16743" lon="5.15862">
        <ele>309.59</ele>
        <time>2024-12-23T21:15:04.662Z</time>
      </trkpt>
      <trkpt lat="48.16726" lon="5.15868">
        <ele>309.79</ele>
        <time>2024-12-23T21:15:04.955Z</time>
      </trkpt>
      <trkpt lat="48.16698" lon="5.15875">
        <ele>309.93</ele>
        <time>2024-12-23T21:15:05.253Z</time>
      </trkpt>
      <trkpt lat="48.16671" lon="5.15881">
        <ele>310.01</ele>
        <time>2024-12-23T21:15:05.555Z</time>
      </trkpt>
      <trkpt lat="48.16643" lon="5.15887">
        <ele>310.08</ele>
        <time>2024-12-23T21:15:05.862Z</time>
      </trkpt>
      <trkpt lat="48.16616" lon="5.15894">
        <ele>310.17</ele>
        <time>2024-12-23T21:15:06.173Z</time>
      </trkpt>
      <trkpt lat="48.16588" lon="5.159">
        <ele>310.24</ele>
        <time>2024-12-23T21:15:06.489Z</time>
      </trkpt>
      <trkpt lat="48.16561" lon="5.15907">
        <ele>310.33</ele>
        <time>2024-12-23T21:15:06.809Z</time>
      </trkpt>
      <trkpt lat="48.1653" lon="5.15912">
        <ele>310.44</ele>
        <time>2024-12-23T21:15:07.134Z</time>
      </trkpt>
      <trkpt lat="48.16499" lon="5.15918">
        <ele>310.54</ele>
        <time>2024-12-23T21:15:07.464Z</time>
      </trkpt>
      <trkpt lat="48.16468" lon="5.15915">
        <ele>310.58</ele>
        <time>2024-12-23T21:15:07.799Z</time>
      </trkpt>
      <trkpt lat="48.16437" lon="5.15918">
        <ele>310.65</ele>
        <time>2024-12-23T21:15:08.139Z</time>
      </trkpt>
      <trkpt lat="48.16406" lon="5.1592">
        <ele>310.72</ele>
        <time>2024-12-23T21:15:08.484Z</time>
      </trkpt>
      <trkpt lat="48.16387" lon="5.15933">
        <ele>310.83</ele>
        <time>2024-12-23T21:15:08.832Z</time>
      </trkpt>
      <trkpt lat="48.16368" lon="5.15945">
        <ele>310.93</ele>
        <time>2024-12-23T21:15:09.184Z</time>
      </trkpt>
      <trkpt lat="48.16352" lon="5.15963">
        <ele>311.06</ele>
        <time>2024-12-23T21:15:09.539Z</time>
      </trkpt>
      <trkpt lat="48.16335" lon="5.1598">
        <ele>311.21</ele>
        <time>2024-12-23T21:15:09.897Z</time>
      </trkpt>
      <trkpt lat="48.1632" lon="5.1601">
        <ele>311.41</ele>
        <time>2024-12-23T21:15:10.259Z</time>
      </trkpt>
      <trkpt lat="48.16305" lon="5.1604">
        <ele>311.54</ele>
        <time>2024-12-23T21:15:10.625Z</time>
      </trkpt>
      <trkpt lat="48.1629" lon="5.1607">
        <ele>311.66</ele>
        <time>2024-12-23T21:15:10.995Z</time>
      </trkpt>
      <trkpt lat="48.16275" lon="5.161">
        <ele>311.79</ele>
        <time>2024-12-23T21:15:11.369Z</time>
      </trkpt>
      <trkpt lat="48.16261" lon="5.16139">
        <ele>311.9</ele>
        <time>2024-12-23T21:15:11.748Z</time>
      </trkpt>
      <trkpt lat="48.16247" lon="5.16177">
        <ele>312.1</ele>
        <time>2024-12-23T21:15:12.132Z</time>
      </trkpt>
      <trkpt lat="48.16235" lon="5.16216">
        <ele>312.39</ele>
        <time>2024-12-23T21:15:12.520Z</time>
      </trkpt>
      <trkpt lat="48.16222" lon="5.16255">
        <ele>312.65</ele>
        <time>2024-12-23T21:15:12.913Z</time>
      </trkpt>
      <trkpt lat="48.16209" lon="5.16293">
        <ele>312.85</ele>
        <time>2024-12-23T21:15:13.310Z</time>
      </trkpt>
      <trkpt lat="48.16197" lon="5.16332">
        <ele>313.1</ele>
        <time>2024-12-23T21:15:13.712Z</time>
      </trkpt>
      <trkpt lat="48.16184" lon="5.16371">
        <ele>313.42</ele>
        <time>2024-12-23T21:15:14.119Z</time>
      </trkpt>
      <trkpt lat="48.16171" lon="5.16409">
        <ele>313.76</ele>
        <time>2024-12-23T21:15:14.530Z</time>
      </trkpt>
      <trkpt lat="48.16159" lon="5.16448">
        <ele>314.15</ele>
        <time>2024-12-23T21:15:14.946Z</time>
      </trkpt>
      <trkpt lat="48.16146" lon="5.16487">
        <ele>314.55</ele>
        <time>2024-12-23T21:15:15.366Z</time>
      </trkpt>
      <trkpt lat="48.16134" lon="5.16525">
        <ele>314.98</ele>
        <time>2024-12-23T21:15:15.791Z</time>
      </trkpt>
      <trkpt lat="48.16116" lon="5.16557">
        <ele>315.32</ele>
        <time>2024-12-23T21:15:16.220Z</time>
      </trkpt>
      <trkpt lat="48.16098" lon="5.16588">
        <ele>315.66</ele>
        <time>2024-12-23T21:15:16.654Z</time>
      </trkpt>
      <trkpt lat="48.16081" lon="5.1662">
        <ele>316.03</ele>
        <time>2024-12-23T21:15:17.092Z</time>
      </trkpt>
      <trkpt lat="48.16063" lon="5.16652">
        <ele>316.42</ele>
        <time>2024-12-23T21:15:17.535Z</time>
      </trkpt>
      <trkpt lat="48.16046" lon="5.16684">
        <ele>316.8</ele>
        <time>2024-12-23T21:15:17.982Z</time>
      </trkpt>
      <trkpt lat="48.16029" lon="5.16709">
        <ele>317.15</ele>
        <time>2024-12-23T21:15:18.433Z</time>
      </trkpt>
      <trkpt lat="48.16013" lon="5.16735">
        <ele>317.47</ele>
        <time>2024-12-23T21:15:18.888Z</time>
      </trkpt>
      <trkpt lat="48.15996" lon="5.16761">
        <ele>317.74</ele>
        <time>2024-12-23T21:15:19.347Z</time>
      </trkpt>
      <trkpt lat="48.15979" lon="5.16778">
        <ele>318.01</ele>
        <time>2024-12-23T21:15:19.809Z</time>
      </trkpt>
      <trkpt lat="48.15961" lon="5.16795">
        <ele>318.27</ele>
        <time>2024-12-23T21:15:20.274Z</time>
      </trkpt>
      <trkpt lat="48.15943" lon="5.16812">
        <ele>318.53</ele>
        <time>2024-12-23T21:15:20.743Z</time>
      </trkpt>
      <trkpt lat="48.15926" lon="5.16846">
        <ele>318.78</ele>
        <time>2024-12-23T21:15:21.216Z</time>
      </trkpt>
      <trkpt lat="48.15909" lon="5.16879">
        <ele>318.88</ele>
        <time>2024-12-23T21:15:21.694Z</time>
      </trkpt>
      <trkpt lat="48.15892" lon="5.16913">
        <ele>318.9</ele>
        <time>2024-12-23T21:15:22.176Z</time>
      </trkpt>
      <trkpt lat="48.15876" lon="5.16946">
        <ele>318.87</ele>
        <time>2024-12-23T21:15:22.663Z</time>
      </trkpt>
      <trkpt lat="48.15859" lon="5.1698">
        <ele>318.92</ele>
        <time>2024-12-23T21:15:23.154Z</time>
      </trkpt>
      <trkpt lat="48.1584" lon="5.1701">
        <ele>318.99</ele>
        <time>2024-12-23T21:15:23.650Z</time>
      </trkpt>
      <trkpt lat="48.1582" lon="5.1704">
        <ele>319.04</ele>
        <time>2024-12-23T21:15:24.150Z</time>
      </trkpt>
      <trkpt lat="48.1582" lon="5.1704">
        <ele>319.08</ele>
        <time>2024-12-23T21:15:24.650Z</time>
      </trkpt>
      <trkpt lat="48.1582" lon="5.1704">
        <ele>319.11</ele>
        <time>2024-12-23T21:15:25.150Z</time>
      </trkpt>
      <trkpt lat="48.1582" lon="5.1704">
        <ele>319.13</ele>
        <time>2024-12-23T21:15:25.650Z</time>
      </trkpt>
      <trkpt lat="48.15802" lon="5.17068">
        <ele>319.18</ele>
        <time>2024-12-23T21:15:26.154Z</time>
      </trkpt>
      <trkpt lat="48.15783" lon="5.17097">
        <ele>319.22</ele>
        <time>2024-12-23T21:15:26.663Z</time>
      </trkpt>
      <trkpt lat="48.15765" lon="5.17126">
        <ele>319.27</ele>
        <time>2024-12-23T21:15:27.176Z</time>
      </trkpt>
      <trkpt lat="48.15751" lon="5.17161">
        <ele>319.28</ele>
        <time>2024-12-23T21:15:27.693Z</time>
      </trkpt>
      <trkpt lat="48.15738" lon="5.17195">
        <ele>319.26</ele>
        <time>2024-12-23T21:15:28.215Z</time>
      </trkpt>
      <trkpt lat="48.15724" lon="5.1723">
        <ele>319.16</ele>
        <time>2024-12-23T21:15:28.741Z</time>
      </trkpt>
      <trkpt lat="48.15711" lon="5.17265">
        <ele>319.1</ele>
        <time>2024-12-23T21:15:29.271Z</time>
      </trkpt>
      <trkpt lat="48.15698" lon="5.17302">
        <ele>319.02</ele>
        <time>2024-12-23T21:15:29.806Z</time>
      </trkpt>
      <trkpt lat="48.15686" lon="5.17338">
        <ele>318.98</ele>
        <time>2024-12-23T21:15:30.345Z</time>
      </trkpt>
      <trkpt lat="48.15673" lon="5.17375">
        <ele>318.94</ele>
        <time>2024-12-23T21:15:30.888Z</time>
      </trkpt>
      <trkpt lat="48.15661" lon="5.17411">
        <ele>318.82</ele>
        <time>2024-12-23T21:15:31.436Z</time>
      </trkpt>
      <trkpt lat="48.15648" lon="5.17448">
        <ele>318.71</ele>
        <time>2024-12-23T21:15:31.988Z</time>
      </trkpt>
      <trkpt lat="48.15636" lon="5.17484">
        <ele>318.56</ele>
        <time>2024-12-23T21:15:32.544Z</time>
      </trkpt>
      <trkpt lat="48.15625" lon="5.1752">
        <ele>318.36</ele>
        <time>2024-12-23T21:15:33.105Z</time>
      </trkpt>
      <trkpt lat="48.15614" lon="5.17556">
        <ele>318.14</ele>
        <time>2024-12-23T21:15:33.670Z</time>
      </trkpt>
      <trkpt lat="48.15604" lon="5.17591">
        <ele>317.92</ele>
        <time>2024-12-23T21:15:34.239Z</time>
      </trkpt>
      <trkpt lat="48.1559" lon="5.1762">
        <ele>317.71</ele>
        <time>2024-12-23T21:15:34.812Z</time>
      </trkpt>
      <trkpt lat="48.15577" lon="5.17649">
        <ele>317.51</ele>
        <time>2024-12-23T21:15:35.389Z</time>
      </trkpt>
      <trkpt lat="48.15563" lon="5.17677">
        <ele>317.37</ele>
        <time>2024-12-23T21:15:35.969Z</time>
      </trkpt>
      <trkpt lat="48.15545" lon="5.17713">
        <ele>317.32</ele>
        <time>2024-12-23T21:15:36.554Z</time>
      </trkpt>
      <trkpt lat="48.15526" lon="5.17749">
        <ele>317.24</ele>
        <time>2024-12-23T21:15:37.144Z</time>
      </trkpt>
      <trkpt lat="48.15508" lon="5.17785">
        <ele>317.08</ele>
        <time>2024-12-23T21:15:37.739Z</time>
      </trkpt>
      <trkpt lat="48.1549" lon="5.17821">
        <ele>317</ele>
        <time>2024-12-23T21:15:38.339Z</time>
      </trkpt>
      <trkpt lat="48.15469" lon="5.17851">
        <ele>316.99</ele>
        <time>2024-12-23T21:15:38.943Z</time>
      </trkpt>
      <trkpt lat="48.15448" lon="5.17881">
        <ele>316.99</ele>
        <time>2024-12-23T21:15:39.552Z</time>
      </trkpt>
      <trkpt lat="48.15428" lon="5.17911">
        <ele>316.97</ele>
        <time>2024-12-23T21:15:40.166Z</time>
      </trkpt>
      <trkpt lat="48.15405" lon="5.17942">
        <ele>316.93</ele>
        <time>2024-12-23T21:15:40.785Z</time>
      </trkpt>
      <trkpt lat="48.15381" lon="5.17974">
        <ele>316.83</ele>
        <time>2024-12-23T21:15:41.409Z</time>
      </trkpt>
      <trkpt lat="48.15358" lon="5.18005">
        <ele>316.8</ele>
        <time>2024-12-23T21:15:42.038Z</time>
      </trkpt>
      <trkpt lat="48.15335" lon="5.18036">
        <ele>316.86</ele>
        <time>2024-12-23T21:15:42.672Z</time>
      </trkpt>
      <trkpt lat="48.15312" lon="5.18068">
        <ele>316.97</ele>
        <time>2024-12-23T21:15:43.311Z</time>
      </trkpt>
      <trkpt lat="48.15299" lon="5.18082">
        <ele>317.08</ele>
        <time>2024-12-23T21:15:43.952Z</time>
      </trkpt>
      <trkpt lat="48.15286" lon="5.18095">
        <ele>317.19</ele>
        <time>2024-12-23T21:15:44.596Z</time>
      </trkpt>
      <trkpt lat="48.1526" lon="5.18115">
        <ele>317.38</ele>
        <time>2024-12-23T21:15:45.244Z</time>
      </trkpt>
      <trkpt lat="48.15235" lon="5.18134">
        <ele>317.57</ele>
        <time>2024-12-23T21:15:45.897Z</time>
      </trkpt>
      <trkpt lat="48.15221" lon="5.1815">
        <ele>317.78</ele>
        <time>2024-12-23T21:15:46.553Z</time>
      </trkpt>
      <trkpt lat="48.15207" lon="5.18166">
        <ele>318</ele>
        <time>2024-12-23T21:15:47.212Z</time>
      </trkpt>
      <trkpt lat="48.15193" lon="5.18197">
        <ele>318.2</ele>
        <time>2024-12-23T21:15:47.874Z</time>
      </trkpt>
      <trkpt lat="48.1518" lon="5.18228">
        <ele>318.47</ele>
        <time>2024-12-23T21:15:48.540Z</time>
      </trkpt>
      <trkpt lat="48.15166" lon="5.18259">
        <ele>318.73</ele>
        <time>2024-12-23T21:15:49.210Z</time>
      </trkpt>
      <trkpt lat="48.15145" lon="5.18293">
        <ele>319.01</ele>
        <time>2024-12-23T21:15:49.885Z</time>
      </trkpt>
      <trkpt lat="48.15121" lon="5.18317">
        <ele>319.34</ele>
        <time>2024-12-23T21:15:50.565Z</time>
      </trkpt>
      <trkpt lat="48.15097" lon="5.1834">
        <ele>319.7</ele>
        <time>2024-12-23T21:15:51.250Z</time>
      </trkpt>
      <trkpt lat="48.15074" lon="5.18364">
        <ele>320.11</ele>
        <time>2024-12-23T21:15:51.939Z</time>
      </trkpt>
      <trkpt lat="48.15062" lon="5.18392">
        <ele>320.55</ele>
        <time>2024-12-23T21:15:52.632Z</time>
      </trkpt>
      <trkpt lat="48.1505" lon="5.1842">
        <ele>321.05</ele>
        <time>2024-12-23T21:15:53.328Z</time>
      </trkpt>
      <trkpt lat="48.15039" lon="5.18449">
        <ele>321.51</ele>
        <time>2024-12-23T21:15:54.028Z</time>
      </trkpt>
      <trkpt lat="48.15029" lon="5.18477">
        <ele>322.01</ele>
        <time>2024-12-23T21:15:54.731Z</time>
      </trkpt>
      <trkpt lat="48.15019" lon="5.18518">
        <ele>322.54</ele>
        <time>2024-12-23T21:15:55.439Z</time>
      </trkpt>
      <trkpt lat="48.15009" lon="5.18558">
        <ele>323.01</ele>
        <time>2024-12-23T21:15:56.151Z</time>
      </trkpt>
      <trkpt lat="48.15009" lon="5.18558">
        <ele>323.49</ele>
        <time>2024-12-23T21:15:56.863Z</time>
      </trkpt>
      <trkpt lat="48.15009" lon="5.18558">
        <ele>323.97</ele>
        <time>2024-12-23T21:15:57.575Z</time>
      </trkpt>
      <trkpt lat="48.15009" lon="5.18558">
        <ele>324.46</ele>
        <time>2024-12-23T21:15:58.287Z</time>
      </trkpt>
      <trkpt lat="48.15001" lon="5.18594">
        <ele>324.88</ele>
        <time>2024-12-23T21:15:59.004Z</time>
      </trkpt>
      <trkpt lat="48.14992" lon="5.1863">
        <ele>325.45</ele>
        <time>2024-12-23T21:15:59.725Z</time>
      </trkpt>
      <trkpt lat="48.1498" lon="5.18653">
        <ele>326.07</ele>
        <time>2024-12-23T21:16:00.449Z</time>
      </trkpt>
      <trkpt lat="48.14969" lon="5.18677">
        <ele>326.67</ele>
        <time>2024-12-23T21:16:01.176Z</time>
      </trkpt>
      <trkpt lat="48.14955" lon="5.1871">
        <ele>327.19</ele>
        <time>2024-12-23T21:16:01.907Z</time>
      </trkpt>
      <trkpt lat="48.14941" lon="5.18744">
        <ele>327.71</ele>
        <time>2024-12-23T21:16:02.642Z</time>
      </trkpt>
      <trkpt lat="48.14929" lon="5.18763">
        <ele>328.2</ele>
        <time>2024-12-23T21:16:03.380Z</time>
      </trkpt>
      <trkpt lat="48.14917" lon="5.18782">
        <ele>328.65</ele>
        <time>2024-12-23T21:16:04.121Z</time>
      </trkpt>
      <trkpt lat="48.14906" lon="5.18795">
        <ele>329.1</ele>
        <time>2024-12-23T21:16:04.864Z</time>
      </trkpt>
      <trkpt lat="48.1488" lon="5.18785">
        <ele>329.44</ele>
        <time>2024-12-23T21:16:05.612Z</time>
      </trkpt>
      <trkpt lat="48.14853" lon="5.18776">
        <ele>329.91</ele>
        <time>2024-12-23T21:16:06.364Z</time>
      </trkpt>
      <trkpt lat="48.14842" lon="5.18771">
        <ele>330.42</ele>
        <time>2024-12-23T21:16:07.118Z</time>
      </trkpt>
      <trkpt lat="48.14814" lon="5.18764">
        <ele>330.94</ele>
        <time>2024-12-23T21:16:07.876Z</time>
      </trkpt>
      <trkpt lat="48.14786" lon="5.18756">
        <ele>331.43</ele>
        <time>2024-12-23T21:16:08.639Z</time>
      </trkpt>
      <trkpt lat="48.14758" lon="5.18748">
        <ele>331.93</ele>
        <time>2024-12-23T21:16:09.406Z</time>
      </trkpt>
      <trkpt lat="48.1474" lon="5.18736">
        <ele>332.45</ele>
        <time>2024-12-23T21:16:10.177Z</time>
      </trkpt>
      <trkpt lat="48.14722" lon="5.18724">
        <ele>333.02</ele>
        <time>2024-12-23T21:16:10.951Z</time>
      </trkpt>
      <trkpt lat="48.14705" lon="5.18718">
        <ele>333.57</ele>
        <time>2024-12-23T21:16:11.728Z</time>
      </trkpt>
      <trkpt lat="48.14703" lon="5.18718">
        <ele>334.03</ele>
        <time>2024-12-23T21:16:12.505Z</time>
      </trkpt>
      <trkpt lat="48.14675" lon="5.18709">
        <ele>334.57</ele>
        <time>2024-12-23T21:16:13.286Z</time>
      </trkpt>
      <trkpt lat="48.14648" lon="5.187">
        <ele>335</ele>
        <time>2024-12-23T21:16:14.072Z</time>
      </trkpt>
      <trkpt lat="48.1462" lon="5.18691">
        <ele>335.38</ele>
        <time>2024-12-23T21:16:14.862Z</time>
      </trkpt>
      <trkpt lat="48.14593" lon="5.18682">
        <ele>335.75</ele>
        <time>2024-12-23T21:16:15.657Z</time>
      </trkpt>
      <trkpt lat="48.14565" lon="5.18673">
        <ele>336.08</ele>
        <time>2024-12-23T21:16:16.456Z</time>
      </trkpt>
      <trkpt lat="48.14543" lon="5.18669">
        <ele>336.42</ele>
        <time>2024-12-23T21:16:17.259Z</time>
      </trkpt>
      <trkpt lat="48.1452" lon="5.18666">
        <ele>336.67</ele>
        <time>2024-12-23T21:16:18.066Z</time>
      </trkpt>
      <trkpt lat="48.14512" lon="5.18662">
        <ele>336.84</ele>
        <time>2024-12-23T21:16:18.874Z</time>
      </trkpt>
      <trkpt lat="48.14516" lon="5.18631">
        <ele>336.97</ele>
        <time>2024-12-23T21:16:19.686Z</time>
      </trkpt>
      <trkpt lat="48.1452" lon="5.186">
        <ele>336.95</ele>
        <time>2024-12-23T21:16:20.501Z</time>
      </trkpt>
      <trkpt lat="48.14535" lon="5.18569">
        <ele>336.89</ele>
        <time>2024-12-23T21:16:21.320Z</time>
      </trkpt>
      <trkpt lat="48.1455" lon="5.18538">
        <ele>336.83</ele>
        <time>2024-12-23T21:16:22.143Z</time>
      </trkpt>
      <trkpt lat="48.14564" lon="5.18508">
        <ele>336.73</ele>
        <time>2024-12-23T21:16:22.970Z</time>
      </trkpt>
      <trkpt lat="48.14564" lon="5.18508">
        <ele>336.65</ele>
        <time>2024-12-23T21:16:23.797Z</time>
      </trkpt>
      <trkpt lat="48.14564" lon="5.18508">
        <ele>336.54</ele>
        <time>2024-12-23T21:16:24.624Z</time>
      </trkpt>
      <trkpt lat="48.14564" lon="5.18508">
        <ele>336.38</ele>
        <time>2024-12-23T21:16:25.451Z</time>
      </trkpt>
      <trkpt lat="48.14549" lon="5.18538">
        <ele>336.25</ele>
        <time>2024-12-23T21:16:26.282Z</time>
      </trkpt>
      <trkpt lat="48.14535" lon="5.18569">
        <ele>336.08</ele>
        <time>2024-12-23T21:16:27.117Z</time>
      </trkpt>
      <trkpt lat="48.1452" lon="5.186">
        <ele>336.95</ele>
        <time>2024-12-23T21:16:27.956Z</time>
      </trkpt>
      <trkpt lat="48.14516" lon="5.18631">
        <ele>335.74</ele>
        <time>2024-12-23T21:16:28.799Z</time>
      </trkpt>
      <trkpt lat="48.14512" lon="5.18662">
        <ele>336.84</ele>
        <time>2024-12-23T21:16:29.645Z</time>
      </trkpt>
      <trkpt lat="48.1452" lon="5.18666">
        <ele>336.67</ele>
        <time>2024-12-23T21:16:30.492Z</time>
      </trkpt>
      <trkpt lat="48.14543" lon="5.18669">
        <ele>334.64</ele>
        <time>2024-12-23T21:16:31.343Z</time>
      </trkpt>
      <trkpt lat="48.14565" lon="5.18673">
        <ele>336.08</ele>
        <time>2024-12-23T21:16:32.198Z</time>
      </trkpt>
      <trkpt lat="48.14593" lon="5.18682">
        <ele>333.7</ele>
        <time>2024-12-23T21:16:33.057Z</time>
      </trkpt>
      <trkpt lat="48.1462" lon="5.18691">
        <ele>333.22</ele>
        <time>2024-12-23T21:16:33.921Z</time>
      </trkpt>
      <trkpt lat="48.14648" lon="5.187">
        <ele>332.76</ele>
        <time>2024-12-23T21:16:34.789Z</time>
      </trkpt>
      <trkpt lat="48.14675" lon="5.18709">
        <ele>332.27</ele>
        <time>2024-12-23T21:16:35.662Z</time>
      </trkpt>
      <trkpt lat="48.14703" lon="5.18718">
        <ele>334.03</ele>
        <time>2024-12-23T21:16:36.539Z</time>
      </trkpt>
      <trkpt lat="48.14705" lon="5.18718">
        <ele>333.57</ele>
        <time>2024-12-23T21:16:37.417Z</time>
      </trkpt>
      <trkpt lat="48.14722" lon="5.18724">
        <ele>333.02</ele>
        <time>2024-12-23T21:16:38.297Z</time>
      </trkpt>
      <trkpt lat="48.1474" lon="5.18736">
        <ele>330.27</ele>
        <time>2024-12-23T21:16:39.181Z</time>
      </trkpt>
      <trkpt lat="48.14758" lon="5.18748">
        <ele>331.93</ele>
        <time>2024-12-23T21:16:40.068Z</time>
      </trkpt>
      <trkpt lat="48.14786" lon="5.18756">
        <ele>329.53</ele>
        <time>2024-12-23T21:16:40.959Z</time>
      </trkpt>
      <trkpt lat="48.14814" lon="5.18764">
        <ele>329.26</ele>
        <time>2024-12-23T21:16:41.855Z</time>
      </trkpt>
      <trkpt lat="48.14842" lon="5.18771">
        <ele>330.42</ele>
        <time>2024-12-23T21:16:42.755Z</time>
      </trkpt>
      <trkpt lat="48.14853" lon="5.18776">
        <ele>329.91</ele>
        <time>2024-12-23T21:16:43.657Z</time>
      </trkpt>
      <trkpt lat="48.1488" lon="5.18785">
        <ele>328.69</ele>
        <time>2024-12-23T21:16:44.564Z</time>
      </trkpt>
      <trkpt lat="48.14906" lon="5.18795">
        <ele>329.1</ele>
        <time>2024-12-23T21:16:45.475Z</time>
      </trkpt>
      <trkpt lat="48.14913" lon="5.18801">
        <ele>328.78</ele>
        <time>2024-12-23T21:16:46.387Z</time>
      </trkpt>
      <trkpt lat="48.14919" lon="5.18812">
        <ele>328.83</ele>
        <time>2024-12-23T21:16:47.301Z</time>
      </trkpt>
      <trkpt lat="48.14925" lon="5.18842">
        <ele>328.91</ele>
        <time>2024-12-23T21:16:48.218Z</time>
      </trkpt>
      <trkpt lat="48.1493" lon="5.18872">
        <ele>329.02</ele>
        <time>2024-12-23T21:16:49.138Z</time>
      </trkpt>
      <trkpt lat="48.14935" lon="5.18902">
        <ele>329.2</ele>
        <time>2024-12-23T21:16:50.062Z</time>
      </trkpt>
      <trkpt lat="48.14941" lon="5.18932">
        <ele>329.45</ele>
        <time>2024-12-23T21:16:50.989Z</time>
      </trkpt>
      <trkpt lat="48.14945" lon="5.18971">
        <ele>329.82</ele>
        <time>2024-12-23T21:16:51.920Z</time>
      </trkpt>
      <trkpt lat="48.14945" lon="5.19006">
        <ele>330.2</ele>
        <time>2024-12-23T21:16:52.855Z</time>
      </trkpt>
      <trkpt lat="48.14945" lon="5.19041">
        <ele>330.57</ele>
        <time>2024-12-23T21:16:53.794Z</time>
      </trkpt>
      <trkpt lat="48.14945" lon="5.19076">
        <ele>330.97</ele>
        <time>2024-12-23T21:16:54.737Z</time>
      </trkpt>
      <trkpt lat="48.14942" lon="5.19119">
        <ele>331.44</ele>
        <time>2024-12-23T21:16:55.684Z</time>
      </trkpt>
      <trkpt lat="48.14939" lon="5.19162">
        <ele>331.88</ele>
        <time>2024-12-23T21:16:56.636Z</time>
      </trkpt>
      <trkpt lat="48.14932" lon="5.19201">
        <ele>332.37</ele>
        <time>2024-12-23T21:16:57.592Z</time>
      </trkpt>
      <trkpt lat="48.14921" lon="5.19239">
        <ele>332.83</ele>
        <time>2024-12-23T21:16:58.553Z</time>
      </trkpt>
      <trkpt lat="48.1491" lon="5.19278">
        <ele>333.32</ele>
        <time>2024-12-23T21:16:59.518Z</time>
      </trkpt>
      <trkpt lat="48.14898" lon="5.19317">
        <ele>333.85</ele>
        <time>2024-12-23T21:17:00.488Z</time>
      </trkpt>
      <trkpt lat="48.14887" lon="5.19355">
        <ele>334.43</ele>
        <time>2024-12-23T21:17:01.462Z</time>
      </trkpt>
      <trkpt lat="48.14878" lon="5.19379">
        <ele>335.01</ele>
        <time>2024-12-23T21:17:02.439Z</time>
      </trkpt>
      <trkpt lat="48.1487" lon="5.19402">
        <ele>335.55</ele>
        <time>2024-12-23T21:17:03.419Z</time>
      </trkpt>
      <trkpt lat="48.14858" lon="5.19427">
        <ele>336.12</ele>
        <time>2024-12-23T21:17:04.402Z</time>
      </trkpt>
      <trkpt lat="48.14846" lon="5.19452">
        <ele>336.65</ele>
        <time>2024-12-23T21:17:05.388Z</time>
      </trkpt>
      <trkpt lat="48.14828" lon="5.1949">
        <ele>337.22</ele>
        <time>2024-12-23T21:17:06.379Z</time>
      </trkpt>
      <trkpt lat="48.1481" lon="5.19529">
        <ele>337.8</ele>
        <time>2024-12-23T21:17:07.376Z</time>
      </trkpt>
      <trkpt lat="48.14793" lon="5.19567">
        <ele>338.32</ele>
        <time>2024-12-23T21:17:08.378Z</time>
      </trkpt>
      <trkpt lat="48.14778" lon="5.19598">
        <ele>338.88</ele>
        <time>2024-12-23T21:17:09.384Z</time>
      </trkpt>
      <trkpt lat="48.14763" lon="5.19629">
        <ele>339.43</ele>
        <time>2024-12-23T21:17:10.394Z</time>
      </trkpt>
      <trkpt lat="48.14749" lon="5.1966">
        <ele>339.93</ele>
        <time>2024-12-23T21:17:11.408Z</time>
      </trkpt>
      <trkpt lat="48.14734" lon="5.19691">
        <ele>340.4</ele>
        <time>2024-12-23T21:17:12.426Z</time>
      </trkpt>
      <trkpt lat="48.1472" lon="5.19722">
        <ele>340.88</ele>
        <time>2024-12-23T21:17:13.448Z</time>
      </trkpt>
      <trkpt lat="48.14704" lon="5.19756">
        <ele>341.34</ele>
        <time>2024-12-23T21:17:14.474Z</time>
      </trkpt>
      <trkpt lat="48.14689" lon="5.19791">
        <ele>341.8</ele>
        <time>2024-12-23T21:17:15.505Z</time>
      </trkpt>
      <trkpt lat="48.14673" lon="5.19825">
        <ele>342.25</ele>
        <time>2024-12-23T21:17:16.540Z</time>
      </trkpt>
      <trkpt lat="48.14658" lon="5.1986">
        <ele>342.75</ele>
        <time>2024-12-23T21:17:17.580Z</time>
      </trkpt>
      <trkpt lat="48.14643" lon="5.19894">
        <ele>343.19</ele>
        <time>2024-12-23T21:17:18.624Z</time>
      </trkpt>
      <trkpt lat="48.14627" lon="5.19928">
        <ele>343.63</ele>
        <time>2024-12-23T21:17:19.672Z</time>
      </trkpt>
      <trkpt lat="48.14612" lon="5.19963">
        <ele>344.08</ele>
        <time>2024-12-23T21:17:20.725Z</time>
      </trkpt>
      <trkpt lat="48.14597" lon="5.19999">
        <ele>344.58</ele>
        <time>2024-12-23T21:17:21.782Z</time>
      </trkpt>
      <trkpt lat="48.14589" lon="5.20036">
        <ele>345.01</ele>
        <time>2024-12-23T21:17:22.844Z</time>
      </trkpt>
      <trkpt lat="48.14582" lon="5.20073">
        <ele>345.45</ele>
        <time>2024-12-23T21:17:23.910Z</time>
      </trkpt>
      <trkpt lat="48.14574" lon="5.2011">
        <ele>345.91</ele>
        <time>2024-12-23T21:17:24.980Z</time>
      </trkpt>
      <trkpt lat="48.14563" lon="5.20152">
        <ele>346.38</ele>
        <time>2024-12-23T21:17:26.055Z</time>
      </trkpt>
      <trkpt lat="48.14553" lon="5.20194">
        <ele>346.86</ele>
        <time>2024-12-23T21:17:27.134Z</time>
      </trkpt>
      <trkpt lat="48.14543" lon="5.20236">
        <ele>347.3</ele>
        <time>2024-12-23T21:17:28.218Z</time>
      </trkpt>
      <trkpt lat="48.14532" lon="5.20277">
        <ele>347.76</ele>
        <time>2024-12-23T21:17:29.307Z</time>
      </trkpt>
      <trkpt lat="48.14522" lon="5.20319">
        <ele>348.31</ele>
        <time>2024-12-23T21:17:30.401Z</time>
      </trkpt>
      <trkpt lat="48.14512" lon="5.20346">
        <ele>348.81</ele>
        <time>2024-12-23T21:17:31.498Z</time>
      </trkpt>
      <trkpt lat="48.14501" lon="5.20374">
        <ele>349.35</ele>
        <time>2024-12-23T21:17:32.599Z</time>
      </trkpt>
      <trkpt lat="48.14485" lon="5.20412">
        <ele>349.86</ele>
        <time>2024-12-23T21:17:33.704Z</time>
      </trkpt>
      <trkpt lat="48.14469" lon="5.2045">
        <ele>350.35</ele>
        <time>2024-12-23T21:17:34.814Z</time>
      </trkpt>
      <trkpt lat="48.14454" lon="5.20488">
        <ele>350.75</ele>
        <time>2024-12-23T21:17:35.929Z</time>
      </trkpt>
      <trkpt lat="48.14443" lon="5.20514">
        <ele>351.23</ele>
        <time>2024-12-23T21:17:37.047Z</time>
      </trkpt>
      <trkpt lat="48.14422" lon="5.20545">
        <ele>351.77</ele>
        <time>2024-12-23T21:17:38.170Z</time>
      </trkpt>
      <trkpt lat="48.14402" lon="5.20576">
        <ele>352.32</ele>
        <time>2024-12-23T21:17:39.297Z</time>
      </trkpt>
      <trkpt lat="48.1438" lon="5.20601">
        <ele>352.7</ele>
        <time>2024-12-23T21:17:40.429Z</time>
      </trkpt>
      <trkpt lat="48.14358" lon="5.20626">
        <ele>353.08</ele>
        <time>2024-12-23T21:17:41.565Z</time>
      </trkpt>
      <trkpt lat="48.14336" lon="5.20651">
        <ele>353.44</ele>
        <time>2024-12-23T21:17:42.706Z</time>
      </trkpt>
      <trkpt lat="48.14323" lon="5.20685">
        <ele>353.76</ele>
        <time>2024-12-23T21:17:43.851Z</time>
      </trkpt>
      <trkpt lat="48.14321" lon="5.2071">
        <ele>354.11</ele>
        <time>2024-12-23T21:17:44.999Z</time>
      </trkpt>
      <trkpt lat="48.14318" lon="5.20735">
        <ele>354.34</ele>
        <time>2024-12-23T21:17:46.149Z</time>
      </trkpt>
      <trkpt lat="48.14316" lon="5.20774">
        <ele>354.52</ele>
        <time>2024-12-23T21:17:47.304Z</time>
      </trkpt>
      <trkpt lat="48.14314" lon="5.20814">
        <ele>354.65</ele>
        <time>2024-12-23T21:17:48.463Z</time>
      </trkpt>
      <trkpt lat="48.14312" lon="5.20853">
        <ele>354.76</ele>
        <time>2024-12-23T21:17:49.626Z</time>
      </trkpt>
      <trkpt lat="48.14308" lon="5.20893">
        <ele>354.76</ele>
        <time>2024-12-23T21:17:50.793Z</time>
      </trkpt>
      <trkpt lat="48.14303" lon="5.20933">
        <ele>354.76</ele>
        <time>2024-12-23T21:17:51.965Z</time>
      </trkpt>
      <trkpt lat="48.14299" lon="5.20974">
        <ele>354.77</ele>
        <time>2024-12-23T21:17:53.141Z</time>
      </trkpt>
      <trkpt lat="48.14295" lon="5.21014">
        <ele>354.78</ele>
        <time>2024-12-23T21:17:54.322Z</time>
      </trkpt>
      <trkpt lat="48.14283" lon="5.21055">
        <ele>354.77</ele>
        <time>2024-12-23T21:17:55.507Z</time>
      </trkpt>
      <trkpt lat="48.1427" lon="5.21095">
        <ele>354.79</ele>
        <time>2024-12-23T21:17:56.697Z</time>
      </trkpt>
      <trkpt lat="48.14258" lon="5.21136">
        <ele>354.8</ele>
        <time>2024-12-23T21:17:57.892Z</time>
      </trkpt>
      <trkpt lat="48.14253" lon="5.21177">
        <ele>354.87</ele>
        <time>2024-12-23T21:17:59.091Z</time>
      </trkpt>
      <trkpt lat="48.14247" lon="5.21218">
        <ele>354.97</ele>
        <time>2024-12-23T21:18:00.295Z</time>
      </trkpt>
      <trkpt lat="48.14242" lon="5.21259">
        <ele>355.07</ele>
        <time>2024-12-23T21:18:01.503Z</time>
      </trkpt>
      <trkpt lat="48.14236" lon="5.213">
        <ele>355.17</ele>
        <time>2024-12-23T21:18:02.716Z</time>
      </trkpt>
      <trkpt lat="48.14231" lon="5.2134">
        <ele>355.23</ele>
        <time>2024-12-23T21:18:03.933Z</time>
      </trkpt>
      <trkpt lat="48.14225" lon="5.21381">
        <ele>355.29</ele>
        <time>2024-12-23T21:18:05.155Z</time>
      </trkpt>
      <trkpt lat="48.1422" lon="5.21421">
        <ele>355.35</ele>
        <time>2024-12-23T21:18:06.381Z</time>
      </trkpt>
      <trkpt lat="48.14211" lon="5.21461">
        <ele>355.37</ele>
        <time>2024-12-23T21:18:07.612Z</time>
      </trkpt>
      <trkpt lat="48.14203" lon="5.215">
        <ele>355.38</ele>
        <time>2024-12-23T21:18:08.847Z</time>
      </trkpt>
      <trkpt lat="48.14194" lon="5.21539">
        <ele>355.36</ele>
        <time>2024-12-23T21:18:10.086Z</time>
      </trkpt>
      <trkpt lat="48.14184" lon="5.21574">
        <ele>355.36</ele>
        <time>2024-12-23T21:18:11.329Z</time>
      </trkpt>
      <trkpt lat="48.14174" lon="5.21608">
        <ele>355.29</ele>
        <time>2024-12-23T21:18:12.576Z</time>
      </trkpt>
      <trkpt lat="48.14164" lon="5.21642">
        <ele>355.25</ele>
        <time>2024-12-23T21:18:13.827Z</time>
      </trkpt>
      <trkpt lat="48.14152" lon="5.21676">
        <ele>355.2</ele>
        <time>2024-12-23T21:18:15.083Z</time>
      </trkpt>
      <trkpt lat="48.1414" lon="5.2171">
        <ele>355.13</ele>
        <time>2024-12-23T21:18:16.343Z</time>
      </trkpt>
      <trkpt lat="48.14127" lon="5.21743">
        <ele>355.02</ele>
        <time>2024-12-23T21:18:17.607Z</time>
      </trkpt>
      <trkpt lat="48.14111" lon="5.2178">
        <ele>354.96</ele>
        <time>2024-12-23T21:18:18.876Z</time>
      </trkpt>
      <trkpt lat="48.14094" lon="5.21818">
        <ele>354.99</ele>
        <time>2024-12-23T21:18:20.149Z</time>
      </trkpt>
      <trkpt lat="48.14078" lon="5.21855">
        <ele>355.06</ele>
        <time>2024-12-23T21:18:21.427Z</time>
      </trkpt>
      <trkpt lat="48.14061" lon="5.21892">
        <ele>355.2</ele>
        <time>2024-12-23T21:18:22.710Z</time>
      </trkpt>
      <trkpt lat="48.14045" lon="5.21929">
        <ele>355.37</ele>
        <time>2024-12-23T21:18:23.998Z</time>
      </trkpt>
      <trkpt lat="48.14028" lon="5.21966">
        <ele>355.6</ele>
        <time>2024-12-23T21:18:25.290Z</time>
      </trkpt>
      <trkpt lat="48.14012" lon="5.22003">
        <ele>355.82</ele>
        <time>2024-12-23T21:18:26.587Z</time>
      </trkpt>
      <trkpt lat="48.13999" lon="5.22037">
        <ele>356.11</ele>
        <time>2024-12-23T21:18:27.888Z</time>
      </trkpt>
      <trkpt lat="48.13986" lon="5.22072">
        <ele>356.47</ele>
        <time>2024-12-23T21:18:29.194Z</time>
      </trkpt>
      <trkpt lat="48.13982" lon="5.22078">
        <ele>356.82</ele>
        <time>2024-12-23T21:18:30.501Z</time>
      </trkpt>
      <trkpt lat="48.13982" lon="5.22078">
        <ele>357.19</ele>
        <time>2024-12-23T21:18:31.808Z</time>
      </trkpt>
      <trkpt lat="48.13982" lon="5.22078">
        <ele>357.6</ele>
        <time>2024-12-23T21:18:33.115Z</time>
      </trkpt>
      <trkpt lat="48.13982" lon="5.22078">
        <ele>358.05</ele>
        <time>2024-12-23T21:18:34.422Z</time>
      </trkpt>
      <trkpt lat="48.13982" lon="5.22078">
        <ele>358.53</ele>
        <time>2024-12-23T21:18:35.729Z</time>
      </trkpt>
      <trkpt lat="48.13965" lon="5.22112">
        <ele>359.05</ele>
        <time>2024-12-23T21:18:37.040Z</time>
      </trkpt>
      <trkpt lat="48.13947" lon="5.22145">
        <ele>359.66</ele>
        <time>2024-12-23T21:18:38.356Z</time>
      </trkpt>
      <trkpt lat="48.13931" lon="5.22183">
        <ele>360.36</ele>
        <time>2024-12-23T21:18:39.676Z</time>
      </trkpt>
      <trkpt lat="48.13916" lon="5.22221">
        <ele>361.04</ele>
        <time>2024-12-23T21:18:41.001Z</time>
      </trkpt>
      <trkpt lat="48.139" lon="5.22258">
        <ele>361.68</ele>
        <time>2024-12-23T21:18:42.331Z</time>
      </trkpt>
      <trkpt lat="48.13887" lon="5.22298">
        <ele>362.33</ele>
        <time>2024-12-23T21:18:43.666Z</time>
      </trkpt>
      <trkpt lat="48.13874" lon="5.22338">
        <ele>362.97</ele>
        <time>2024-12-23T21:18:45.005Z</time>
      </trkpt>
      <trkpt lat="48.13861" lon="5.22378">
        <ele>363.67</ele>
        <time>2024-12-23T21:18:46.349Z</time>
      </trkpt>
      <trkpt lat="48.13847" lon="5.22418">
        <ele>364.42</ele>
        <time>2024-12-23T21:18:47.698Z</time>
      </trkpt>
      <trkpt lat="48.13834" lon="5.22458">
        <ele>365.13</ele>
        <time>2024-12-23T21:18:49.052Z</time>
      </trkpt>
      <trkpt lat="48.13821" lon="5.22498">
        <ele>365.8</ele>
        <time>2024-12-23T21:18:50.411Z</time>
      </trkpt>
      <trkpt lat="48.13808" lon="5.22538">
        <ele>366.41</ele>
        <time>2024-12-23T21:18:51.774Z</time>
      </trkpt>
      <trkpt lat="48.13795" lon="5.22577">
        <ele>366.94</ele>
        <time>2024-12-23T21:18:53.142Z</time>
      </trkpt>
      <trkpt lat="48.13782" lon="5.22617">
        <ele>367.54</ele>
        <time>2024-12-23T21:18:54.515Z</time>
      </trkpt>
      <trkpt lat="48.13772" lon="5.22654">
        <ele>368.13</ele>
        <time>2024-12-23T21:18:55.892Z</time>
      </trkpt>
      <trkpt lat="48.13763" lon="5.22692">
        <ele>368.77</ele>
        <time>2024-12-23T21:18:57.273Z</time>
      </trkpt>
      <trkpt lat="48.13757" lon="5.22735">
        <ele>369.43</ele>
        <time>2024-12-23T21:18:58.659Z</time>
      </trkpt>
      <trkpt lat="48.13751" lon="5.22778">
        <ele>370.1</ele>
        <time>2024-12-23T21:19:00.050Z</time>
      </trkpt>
      <trkpt lat="48.13745" lon="5.22822">
        <ele>370.69</ele>
        <time>2024-12-23T21:19:01.446Z</time>
      </trkpt>
      <trkpt lat="48.13739" lon="5.22865">
        <ele>371.24</ele>
        <time>2024-12-23T21:19:02.846Z</time>
      </trkpt>
      <trkpt lat="48.13733" lon="5.22908">
        <ele>371.71</ele>
        <time>2024-12-23T21:19:04.251Z</time>
      </trkpt>
      <trkpt lat="48.13728" lon="5.22952">
        <ele>372.31</ele>
        <time>2024-12-23T21:19:05.661Z</time>
      </trkpt>
      <trkpt lat="48.13722" lon="5.22994">
        <ele>372.95</ele>
        <time>2024-12-23T21:19:07.075Z</time>
      </trkpt>
      <trkpt lat="48.13714" lon="5.23027">
        <ele>373.58</ele>
        <time>2024-12-23T21:19:08.493Z</time>
      </trkpt>
      <trkpt lat="48.13707" lon="5.23059">
        <ele>374.22</ele>
        <time>2024-12-23T21:19:09.915Z</time>
      </trkpt>
      <trkpt lat="48.13698" lon="5.23098">
        <ele>374.83</ele>
        <time>2024-12-23T21:19:11.341Z</time>
      </trkpt>
      <trkpt lat="48.1369" lon="5.23138">
        <ele>375.29</ele>
        <time>2024-12-23T21:19:12.772Z</time>
      </trkpt>
      <trkpt lat="48.13677" lon="5.23178">
        <ele>375.71</ele>
        <time>2024-12-23T21:19:14.207Z</time>
      </trkpt>
      <trkpt lat="48.13664" lon="5.23219">
        <ele>376.11</ele>
        <time>2024-12-23T21:19:15.647Z</time>
      </trkpt>
      <trkpt lat="48.13652" lon="5.23259">
        <ele>376.56</ele>
        <time>2024-12-23T21:19:17.092Z</time>
      </trkpt>
      <trkpt lat="48.13639" lon="5.23299">
        <ele>377.1</ele>
        <time>2024-12-23T21:19:18.542Z</time>
      </trkpt>
      <trkpt lat="48.13626" lon="5.2334">
        <ele>377.69</ele>
        <time>2024-12-23T21:19:19.997Z</time>
      </trkpt>
      <trkpt lat="48.13613" lon="5.2338">
        <ele>378.27</ele>
        <time>2024-12-23T21:19:21.456Z</time>
      </trkpt>
      <trkpt lat="48.13601" lon="5.2342">
        <ele>378.85</ele>
        <time>2024-12-23T21:19:22.920Z</time>
      </trkpt>
      <trkpt lat="48.13588" lon="5.23461">
        <ele>379.61</ele>
        <time>2024-12-23T21:19:24.389Z</time>
      </trkpt>
      <trkpt lat="48.13575" lon="5.23501">
        <ele>380.32</ele>
        <time>2024-12-23T21:19:25.863Z</time>
      </trkpt>
      <trkpt lat="48.13562" lon="5.23541">
        <ele>381.06</ele>
        <time>2024-12-23T21:19:27.341Z</time>
      </trkpt>
      <trkpt lat="48.1355" lon="5.23582">
        <ele>381.88</ele>
        <time>2024-12-23T21:19:28.824Z</time>
      </trkpt>
      <trkpt lat="48.13537" lon="5.23621">
        <ele>382.71</ele>
        <time>2024-12-23T21:19:30.312Z</time>
      </trkpt>
      <trkpt lat="48.13535" lon="5.2365">
        <ele>383.57</ele>
        <time>2024-12-23T21:19:31.803Z</time>
      </trkpt>
      <trkpt lat="48.13533" lon="5.23679">
        <ele>384.37</ele>
        <time>2024-12-23T21:19:33.297Z</time>
      </trkpt>
      <trkpt lat="48.13528" lon="5.23725">
        <ele>385.2</ele>
        <time>2024-12-23T21:19:34.796Z</time>
      </trkpt>
      <trkpt lat="48.13524" lon="5.23771">
        <ele>385.93</ele>
        <time>2024-12-23T21:19:36.300Z</time>
      </trkpt>
      <trkpt lat="48.13519" lon="5.23816">
        <ele>386.75</ele>
        <time>2024-12-23T21:19:37.809Z</time>
      </trkpt>
      <trkpt lat="48.13514" lon="5.23862">
        <ele>387.48</ele>
        <time>2024-12-23T21:19:39.323Z</time>
      </trkpt>
      <trkpt lat="48.13509" lon="5.23908">
        <ele>388.14</ele>
        <time>2024-12-23T21:19:40.842Z</time>
      </trkpt>
      <trkpt lat="48.13504" lon="5.23954">
        <ele>388.73</ele>
        <time>2024-12-23T21:19:42.366Z</time>
      </trkpt>
      <trkpt lat="48.135" lon="5.24">
        <ele>389.28</ele>
        <time>2024-12-23T21:19:43.895Z</time>
      </trkpt>
      <trkpt lat="48.13495" lon="5.24046">
        <ele>389.85</ele>
        <time>2024-12-23T21:19:45.429Z</time>
      </trkpt>
      <trkpt lat="48.1349" lon="5.24092">
        <ele>390.38</ele>
        <time>2024-12-23T21:19:46.968Z</time>
      </trkpt>
      <trkpt lat="48.13485" lon="5.24138">
        <ele>390.85</ele>
        <time>2024-12-23T21:19:48.512Z</time>
      </trkpt>
      <trkpt lat="48.13481" lon="5.24183">
        <ele>391.17</ele>
        <time>2024-12-23T21:19:50.061Z</time>
      </trkpt>
      <trkpt lat="48.13476" lon="5.24229">
        <ele>391.34</ele>
        <time>2024-12-23T21:19:51.615Z</time>
      </trkpt>
      <trkpt lat="48.13471" lon="5.24275">
        <ele>391.45</ele>
        <time>2024-12-23T21:19:53.174Z</time>
      </trkpt>
      <trkpt lat="48.13466" lon="5.24321">
        <ele>391.53</ele>
        <time>2024-12-23T21:19:54.738Z</time>
      </trkpt>
      <trkpt lat="48.13462" lon="5.24367">
        <ele>391.54</ele>
        <time>2024-12-23T21:19:56.307Z</time>
      </trkpt>
      <trkpt lat="48.13457" lon="5.24413">
        <ele>391.34</ele>
        <time>2024-12-23T21:19:57.881Z</time>
      </trkpt>
      <trkpt lat="48.13452" lon="5.24459">
        <ele>390.97</ele>
        <time>2024-12-23T21:19:59.460Z</time>
      </trkpt>
      <trkpt lat="48.13447" lon="5.24505">
        <ele>390.64</ele>
        <time>2024-12-23T21:20:01.044Z</time>
      </trkpt>
      <trkpt lat="48.13443" lon="5.24551">
        <ele>390.2</ele>
        <time>2024-12-23T21:20:02.633Z</time>
      </trkpt>
      <trkpt lat="48.13438" lon="5.24596">
        <ele>389.61</ele>
        <time>2024-12-23T21:20:04.227Z</time>
      </trkpt>
      <trkpt lat="48.13433" lon="5.24642">
        <ele>388.94</ele>
        <time>2024-12-23T21:20:05.826Z</time>
      </trkpt>
      <trkpt lat="48.13428" lon="5.24688">
        <ele>388.27</ele>
        <time>2024-12-23T21:20:07.430Z</time>
      </trkpt>
      <trkpt lat="48.13423" lon="5.24734">
        <ele>387.62</ele>
        <time>2024-12-23T21:20:09.039Z</time>
      </trkpt>
      <trkpt lat="48.13419" lon="5.2478">
        <ele>386.92</ele>
        <time>2024-12-23T21:20:10.653Z</time>
      </trkpt>
      <trkpt lat="48.13414" lon="5.24826">
        <ele>386.14</ele>
        <time>2024-12-23T21:20:12.272Z</time>
      </trkpt>
      <trkpt lat="48.13409" lon="5.24872">
        <ele>385.34</ele>
        <time>2024-12-23T21:20:13.896Z</time>
      </trkpt>
      <trkpt lat="48.13404" lon="5.24918">
        <ele>384.54</ele>
        <time>2024-12-23T21:20:15.524Z</time>
      </trkpt>
      <trkpt lat="48.134" lon="5.24964">
        <ele>383.75</ele>
        <time>2024-12-23T21:20:17.157Z</time>
      </trkpt>
      <trkpt lat="48.13395" lon="5.25009">
        <ele>382.98</ele>
        <time>2024-12-23T21:20:18.795Z</time>
      </trkpt>
      <trkpt lat="48.1339" lon="5.25055">
        <ele>382.2</ele>
        <time>2024-12-23T21:20:20.438Z</time>
      </trkpt>
      <trkpt lat="48.13385" lon="5.25101">
        <ele>381.35</ele>
        <time>2024-12-23T21:20:22.086Z</time>
      </trkpt>
      <trkpt lat="48.13381" lon="5.25147">
        <ele>380.65</ele>
        <time>2024-12-23T21:20:23.739Z</time>
      </trkpt>
      <trkpt lat="48.13376" lon="5.25193">
        <ele>379.99</ele>
        <time>2024-12-23T21:20:25.397Z</time>
      </trkpt>
      <trkpt lat="48.13371" lon="5.25239">
        <ele>379.32</ele>
        <time>2024-12-23T21:20:27.060Z</time>
      </trkpt>
      <trkpt lat="48.13366" lon="5.25285">
        <ele>378.69</ele>
        <time>2024-12-23T21:20:28.728Z</time>
      </trkpt>
      <trkpt lat="48.13361" lon="5.25331">
        <ele>378.12</ele>
        <time>2024-12-23T21:20:30.401Z</time>
      </trkpt>
      <trkpt lat="48.13357" lon="5.25376">
        <ele>377.65</ele>
        <time>2024-12-23T21:20:32.079Z</time>
      </trkpt>
      <trkpt lat="48.13352" lon="5.25422">
        <ele>377.3</ele>
        <time>2024-12-23T21:20:33.762Z</time>
      </trkpt>
      <trkpt lat="48.13347" lon="5.25468">
        <ele>377</ele>
        <time>2024-12-23T21:20:35.450Z</time>
      </trkpt>
      <trkpt lat="48.13342" lon="5.25514">
        <ele>376.74</ele>
        <time>2024-12-23T21:20:37.143Z</time>
      </trkpt>
      <trkpt lat="48.13338" lon="5.2556">
        <ele>376.49</ele>
        <time>2024-12-23T21:20:38.841Z</time>
      </trkpt>
      <trkpt lat="48.13333" lon="5.25606">
        <ele>376.32</ele>
        <time>2024-12-23T21:20:40.544Z</time>
      </trkpt>
      <trkpt lat="48.13328" lon="5.25652">
        <ele>376.21</ele>
        <time>2024-12-23T21:20:42.252Z</time>
      </trkpt>
      <trkpt lat="48.13323" lon="5.25698">
        <ele>376.17</ele>
        <time>2024-12-23T21:20:43.965Z</time>
      </trkpt>
      <trkpt lat="48.13319" lon="5.25744">
        <ele>376.05</ele>
        <time>2024-12-23T21:20:45.683Z</time>
      </trkpt>
      <trkpt lat="48.13314" lon="5.25784">
        <ele>375.88</ele>
        <time>2024-12-23T21:20:47.405Z</time>
      </trkpt>
      <trkpt lat="48.1331" lon="5.2583">
        <ele>375.72</ele>
        <time>2024-12-23T21:20:49.132Z</time>
      </trkpt>
      <trkpt lat="48.13305" lon="5.25876">
        <ele>375.62</ele>
        <time>2024-12-23T21:20:50.864Z</time>
      </trkpt>
      <trkpt lat="48.133" lon="5.25922">
        <ele>375.62</ele>
        <time>2024-12-23T21:20:52.601Z</time>
      </trkpt>
      <trkpt lat="48.13296" lon="5.25968">
        <ele>375.61</ele>
        <time>2024-12-23T21:20:54.343Z</time>
      </trkpt>
      <trkpt lat="48.13291" lon="5.26014">
        <ele>375.66</ele>
        <time>2024-12-23T21:20:56.090Z</time>
      </trkpt>
      <trkpt lat="48.13286" lon="5.2606">
        <ele>375.73</ele>
        <time>2024-12-23T21:20:57.842Z</time>
      </trkpt>
      <trkpt lat="48.13282" lon="5.26106">
        <ele>375.79</ele>
        <time>2024-12-23T21:20:59.599Z</time>
      </trkpt>
      <trkpt lat="48.13277" lon="5.26152">
        <ele>375.73</ele>
        <time>2024-12-23T21:21:01.361Z</time>
      </trkpt>
      <trkpt lat="48.13273" lon="5.26198">
        <ele>375.62</ele>
        <time>2024-12-23T21:21:03.128Z</time>
      </trkpt>
      <trkpt lat="48.13268" lon="5.26244">
        <ele>375.58</ele>
        <time>2024-12-23T21:21:04.900Z</time>
      </trkpt>
      <trkpt lat="48.13263" lon="5.2629">
        <ele>375.53</ele>
        <time>2024-12-23T21:21:06.677Z</time>
      </trkpt>
      <trkpt lat="48.13259" lon="5.26336">
        <ele>375.42</ele>
        <time>2024-12-23T21:21:08.459Z</time>
      </trkpt>
      <trkpt lat="48.13254" lon="5.2638">
        <ele>375.13</ele>
        <time>2024-12-23T21:21:10.246Z</time>
      </trkpt>
      <trkpt lat="48.1325" lon="5.26418">
        <ele>374.77</ele>
        <time>2024-12-23T21:21:12.037Z</time>
      </trkpt>
      <trkpt lat="48.13247" lon="5.26457">
        <ele>374.44</ele>
        <time>2024-12-23T21:21:13.832Z</time>
      </trkpt>
      <trkpt lat="48.13243" lon="5.26495">
        <ele>374.06</ele>
        <time>2024-12-23T21:21:15.632Z</time>
      </trkpt>
      <trkpt lat="48.13239" lon="5.26533">
        <ele>373.57</ele>
        <time>2024-12-23T21:21:17.436Z</time>
      </trkpt>
      <trkpt lat="48.13237" lon="5.26569">
        <ele>372.95</ele>
        <time>2024-12-23T21:21:19.244Z</time>
      </trkpt>
      <trkpt lat="48.13237" lon="5.26593">
        <ele>372.34</ele>
        <time>2024-12-23T21:21:21.054Z</time>
      </trkpt>
      <trkpt lat="48.13251" lon="5.26632">
        <ele>371.67</ele>
        <time>2024-12-23T21:21:22.869Z</time>
      </trkpt>
      <trkpt lat="48.13264" lon="5.26671">
        <ele>371</ele>
        <time>2024-12-23T21:21:24.689Z</time>
      </trkpt>
      <trkpt lat="48.13278" lon="5.2671">
        <ele>370.38</ele>
        <time>2024-12-23T21:21:26.513Z</time>
      </trkpt>
      <trkpt lat="48.13292" lon="5.26749">
        <ele>369.87</ele>
        <time>2024-12-23T21:21:28.342Z</time>
      </trkpt>
      <trkpt lat="48.13306" lon="5.26788">
        <ele>369.37</ele>
        <time>2024-12-23T21:21:30.176Z</time>
      </trkpt>
      <trkpt lat="48.13316" lon="5.26829">
        <ele>368.89</ele>
        <time>2024-12-23T21:21:32.014Z</time>
      </trkpt>
      <trkpt lat="48.13321" lon="5.26865">
        <ele>368.31</ele>
        <time>2024-12-23T21:21:33.856Z</time>
      </trkpt>
      <trkpt lat="48.13323" lon="5.26903">
        <ele>367.68</ele>
        <time>2024-12-23T21:21:35.702Z</time>
      </trkpt>
      <trkpt lat="48.13325" lon="5.26941">
        <ele>367.14</ele>
        <time>2024-12-23T21:21:37.553Z</time>
      </trkpt>
      <trkpt lat="48.13327" lon="5.26979">
        <ele>366.85</ele>
        <time>2024-12-23T21:21:39.408Z</time>
      </trkpt>
      <trkpt lat="48.1333" lon="5.27006">
        <ele>366.59</ele>
        <time>2024-12-23T21:21:41.266Z</time>
      </trkpt>
      <trkpt lat="48.13334" lon="5.27033">
        <ele>366.41</ele>
        <time>2024-12-23T21:21:43.126Z</time>
      </trkpt>
      <trkpt lat="48.13342" lon="5.27056">
        <ele>366.24</ele>
        <time>2024-12-23T21:21:44.989Z</time>
      </trkpt>
      <trkpt lat="48.13359" lon="5.2708">
        <ele>366.18</ele>
        <time>2024-12-23T21:21:46.856Z</time>
      </trkpt>
      <trkpt lat="48.13376" lon="5.27103">
        <ele>366.21</ele>
        <time>2024-12-23T21:21:48.727Z</time>
      </trkpt>
      <trkpt lat="48.13385" lon="5.27139">
        <ele>366.33</ele>
        <time>2024-12-23T21:21:50.602Z</time>
      </trkpt>
      <trkpt lat="48.13394" lon="5.27174">
        <ele>366.53</ele>
        <time>2024-12-23T21:21:52.481Z</time>
      </trkpt>
      <trkpt lat="48.13402" lon="5.27209">
        <ele>366.79</ele>
        <time>2024-12-23T21:21:54.364Z</time>
      </trkpt>
      <trkpt lat="48.13421" lon="5.27241">
        <ele>367.09</ele>
        <time>2024-12-23T21:21:56.251Z</time>
      </trkpt>
      <trkpt lat="48.13424" lon="5.27254">
        <ele>367.42</ele>
        <time>2024-12-23T21:21:58.140Z</time>
      </trkpt>
      <trkpt lat="48.13424" lon="5.27286">
        <ele>367.83</ele>
        <time>2024-12-23T21:22:00.032Z</time>
      </trkpt>
      <trkpt lat="48.13424" lon="5.27318">
        <ele>368.35</ele>
        <time>2024-12-23T21:22:01.928Z</time>
      </trkpt>
      <trkpt lat="48.13419" lon="5.27359">
        <ele>368.96</ele>
        <time>2024-12-23T21:22:03.828Z</time>
      </trkpt>
      <trkpt lat="48.13415" lon="5.274">
        <ele>369.62</ele>
        <time>2024-12-23T21:22:05.733Z</time>
      </trkpt>
      <trkpt lat="48.13415" lon="5.27429">
        <ele>370.36</ele>
        <time>2024-12-23T21:22:07.641Z</time>
      </trkpt>
      <trkpt lat="48.13415" lon="5.27457">
        <ele>371.18</ele>
        <time>2024-12-23T21:22:09.552Z</time>
      </trkpt>
      <trkpt lat="48.13425" lon="5.27497">
        <ele>372.06</ele>
        <time>2024-12-23T21:22:11.467Z</time>
      </trkpt>
      <trkpt lat="48.13434" lon="5.27537">
        <ele>372.94</ele>
        <time>2024-12-23T21:22:13.387Z</time>
      </trkpt>
      <trkpt lat="48.13443" lon="5.27576">
        <ele>373.89</ele>
        <time>2024-12-23T21:22:15.311Z</time>
      </trkpt>
      <trkpt lat="48.13453" lon="5.27616">
        <ele>374.95</ele>
        <time>2024-12-23T21:22:17.240Z</time>
      </trkpt>
      <trkpt lat="48.13462" lon="5.27655">
        <ele>376.03</ele>
        <time>2024-12-23T21:22:19.173Z</time>
      </trkpt>
      <trkpt lat="48.13464" lon="5.27696">
        <ele>377.14</ele>
        <time>2024-12-23T21:22:21.111Z</time>
      </trkpt>
      <trkpt lat="48.13464" lon="5.27734">
        <ele>378.32</ele>
        <time>2024-12-23T21:22:23.053Z</time>
      </trkpt>
      <trkpt lat="48.13464" lon="5.27773">
        <ele>379.57</ele>
        <time>2024-12-23T21:22:24.999Z</time>
      </trkpt>
      <trkpt lat="48.13464" lon="5.27812">
        <ele>380.88</ele>
        <time>2024-12-23T21:22:26.949Z</time>
      </trkpt>
      <trkpt lat="48.13469" lon="5.27836">
        <ele>382.23</ele>
        <time>2024-12-23T21:22:28.902Z</time>
      </trkpt>
      <trkpt lat="48.13473" lon="5.27861">
        <ele>383.57</ele>
        <time>2024-12-23T21:22:30.858Z</time>
      </trkpt>
      <trkpt lat="48.13487" lon="5.27889">
        <ele>384.93</ele>
        <time>2024-12-23T21:22:32.817Z</time>
      </trkpt>
      <trkpt lat="48.13501" lon="5.27917">
        <ele>386.26</ele>
        <time>2024-12-23T21:22:34.780Z</time>
      </trkpt>
      <trkpt lat="48.13521" lon="5.27942">
        <ele>387.55</ele>
        <time>2024-12-23T21:22:36.747Z</time>
      </trkpt>
      <trkpt lat="48.13541" lon="5.27967">
        <ele>388.83</ele>
        <time>2024-12-23T21:22:38.718Z</time>
      </trkpt>
      <trkpt lat="48.13561" lon="5.27992">
        <ele>390.11</ele>
        <time>2024-12-23T21:22:40.694Z</time>
      </trkpt>
      <trkpt lat="48.13584" lon="5.28016">
        <ele>391.36</ele>
        <time>2024-12-23T21:22:42.674Z</time>
      </trkpt>
      <trkpt lat="48.13606" lon="5.2804">
        <ele>392.56</ele>
        <time>2024-12-23T21:22:44.658Z</time>
      </trkpt>
      <trkpt lat="48.13629" lon="5.28064">
        <ele>393.66</ele>
        <time>2024-12-23T21:22:46.647Z</time>
      </trkpt>
      <trkpt lat="48.13651" lon="5.28088">
        <ele>394.74</ele>
        <time>2024-12-23T21:22:48.640Z</time>
      </trkpt>
      <trkpt lat="48.13667" lon="5.28108">
        <ele>395.78</ele>
        <time>2024-12-23T21:22:50.637Z</time>
      </trkpt>
      <trkpt lat="48.13683" lon="5.28127">
        <ele>396.77</ele>
        <time>2024-12-23T21:22:52.637Z</time>
      </trkpt>
      <trkpt lat="48.13698" lon="5.28152">
        <ele>397.75</ele>
        <time>2024-12-23T21:22:54.640Z</time>
      </trkpt>
      <trkpt lat="48.13713" lon="5.28176">
        <ele>398.67</ele>
        <time>2024-12-23T21:22:56.647Z</time>
      </trkpt>
      <trkpt lat="48.13724" lon="5.28209">
        <ele>399.56</ele>
        <time>2024-12-23T21:22:58.658Z</time>
      </trkpt>
      <trkpt lat="48.13735" lon="5.28241">
        <ele>400.44</ele>
        <time>2024-12-23T21:23:00.673Z</time>
      </trkpt>
      <trkpt lat="48.13741" lon="5.28272">
        <ele>401.26</ele>
        <time>2024-12-23T21:23:02.691Z</time>
      </trkpt>
      <trkpt lat="48.13748" lon="5.28303">
        <ele>401.97</ele>
        <time>2024-12-23T21:23:04.713Z</time>
      </trkpt>
      <trkpt lat="48.1375" lon="5.28345">
        <ele>402.58</ele>
        <time>2024-12-23T21:23:06.739Z</time>
      </trkpt>
      <trkpt lat="48.13753" lon="5.28387">
        <ele>403.09</ele>
        <time>2024-12-23T21:23:08.770Z</time>
      </trkpt>
      <trkpt lat="48.13753" lon="5.28387">
        <ele>403.53</ele>
        <time>2024-12-23T21:23:10.801Z</time>
      </trkpt>
      <trkpt lat="48.13753" lon="5.28387">
        <ele>403.9</ele>
        <time>2024-12-23T21:23:12.832Z</time>
      </trkpt>
      <trkpt lat="48.13753" lon="5.28387">
        <ele>404.21</ele>
        <time>2024-12-23T21:23:14.863Z</time>
      </trkpt>
      <trkpt lat="48.13753" lon="5.28387">
        <ele>404.45</ele>
        <time>2024-12-23T21:23:16.894Z</time>
      </trkpt>
      <trkpt lat="48.13753" lon="5.28387">
        <ele>404.63</ele>
        <time>2024-12-23T21:23:18.925Z</time>
      </trkpt>
      <trkpt lat="48.13754" lon="5.28404">
        <ele>404.77</ele>
        <time>2024-12-23T21:23:20.958Z</time>
      </trkpt>
      <trkpt lat="48.13759" lon="5.28437">
        <ele>404.84</ele>
        <time>2024-12-23T21:23:22.994Z</time>
      </trkpt>
      <trkpt lat="48.13764" lon="5.28471">
        <ele>404.84</ele>
        <time>2024-12-23T21:23:25.034Z</time>
      </trkpt>
      <trkpt lat="48.13769" lon="5.28505">
        <ele>404.79</ele>
        <time>2024-12-23T21:23:27.078Z</time>
      </trkpt>
      <trkpt lat="48.13777" lon="5.28546">
        <ele>404.76</ele>
        <time>2024-12-23T21:23:29.126Z</time>
      </trkpt>
      <trkpt lat="48.13784" lon="5.28588">
        <ele>404.66</ele>
        <time>2024-12-23T21:23:31.179Z</time>
      </trkpt>
      <trkpt lat="48.13792" lon="5.2863">
        <ele>404.48</ele>
        <time>2024-12-23T21:23:33.237Z</time>
      </trkpt>
      <trkpt lat="48.138" lon="5.28672">
        <ele>404.28</ele>
        <time>2024-12-23T21:23:35.299Z</time>
      </trkpt>
      <trkpt lat="48.13808" lon="5.28714">
        <ele>404.09</ele>
        <time>2024-12-23T21:23:37.366Z</time>
      </trkpt>
      <trkpt lat="48.13815" lon="5.28755">
        <ele>403.78</ele>
        <time>2024-12-23T21:23:39.438Z</time>
      </trkpt>
      <trkpt lat="48.13823" lon="5.28796">
        <ele>403.48</ele>
        <time>2024-12-23T21:23:41.514Z</time>
      </trkpt>
      <trkpt lat="48.13831" lon="5.28834">
        <ele>403.26</ele>
        <time>2024-12-23T21:23:43.594Z</time>
      </trkpt>
      <trkpt lat="48.13839" lon="5.28872">
        <ele>403.07</ele>
        <time>2024-12-23T21:23:45.679Z</time>
      </trkpt>
      <trkpt lat="48.13847" lon="5.28909">
        <ele>402.8</ele>
        <time>2024-12-23T21:23:47.768Z</time>
      </trkpt>
      <trkpt lat="48.13855" lon="5.28947">
        <ele>402.47</ele>
        <time>2024-12-23T21:23:49.861Z</time>
      </trkpt>
      <trkpt lat="48.13861" lon="5.2899">
        <ele>402.23</ele>
        <time>2024-12-23T21:23:51.959Z</time>
      </trkpt>
      <trkpt lat="48.13863" lon="5.29032">
        <ele>402.03</ele>
        <time>2024-12-23T21:23:54.061Z</time>
      </trkpt>
      <trkpt lat="48.13865" lon="5.29075">
        <ele>401.85</ele>
        <time>2024-12-23T21:23:56.168Z</time>
      </trkpt>
      <trkpt lat="48.13866" lon="5.29117">
        <ele>401.73</ele>
        <time>2024-12-23T21:23:58.279Z</time>
      </trkpt>
      <trkpt lat="48.13868" lon="5.29159">
        <ele>401.58</ele>
        <time>2024-12-23T21:24:00.395Z</time>
      </trkpt>
      <trkpt lat="48.13866" lon="5.292">
        <ele>401.41</ele>
        <time>2024-12-23T21:24:02.515Z</time>
      </trkpt>
      <trkpt lat="48.13863" lon="5.29241">
        <ele>401.38</ele>
        <time>2024-12-23T21:24:04.640Z</time>
      </trkpt>
      <trkpt lat="48.13861" lon="5.29281">
        <ele>401.39</ele>
        <time>2024-12-23T21:24:06.769Z</time>
      </trkpt>
      <trkpt lat="48.13864" lon="5.29316">
        <ele>401.38</ele>
        <time>2024-12-23T21:24:08.902Z</time>
      </trkpt>
      <trkpt lat="48.13876" lon="5.29358">
        <ele>401.4</ele>
        <time>2024-12-23T21:24:11.040Z</time>
      </trkpt>
      <trkpt lat="48.13888" lon="5.29401">
        <ele>401.51</ele>
        <time>2024-12-23T21:24:13.183Z</time>
      </trkpt>
      <trkpt lat="48.13901" lon="5.29443">
        <ele>401.64</ele>
        <time>2024-12-23T21:24:15.331Z</time>
      </trkpt>
      <trkpt lat="48.13913" lon="5.29486">
        <ele>401.73</ele>
        <time>2024-12-23T21:24:17.484Z</time>
      </trkpt>
      <trkpt lat="48.13926" lon="5.29528">
        <ele>401.84</ele>
        <time>2024-12-23T21:24:19.642Z</time>
      </trkpt>
      <trkpt lat="48.13938" lon="5.29569">
        <ele>402.05</ele>
        <time>2024-12-23T21:24:21.804Z</time>
      </trkpt>
      <trkpt lat="48.1395" lon="5.2961">
        <ele>402.3</ele>
        <time>2024-12-23T21:24:23.971Z</time>
      </trkpt>
      <trkpt lat="48.13962" lon="5.2965">
        <ele>402.54</ele>
        <time>2024-12-23T21:24:26.143Z</time>
      </trkpt>
      <trkpt lat="48.13975" lon="5.29691">
        <ele>402.85</ele>
        <time>2024-12-23T21:24:28.320Z</time>
      </trkpt>
      <trkpt lat="48.13987" lon="5.29732">
        <ele>403.08</ele>
        <time>2024-12-23T21:24:30.502Z</time>
      </trkpt>
      <trkpt lat="48.13999" lon="5.29772">
        <ele>403.29</ele>
        <time>2024-12-23T21:24:32.688Z</time>
      </trkpt>
      <trkpt lat="48.14011" lon="5.29813">
        <ele>403.53</ele>
        <time>2024-12-23T21:24:34.879Z</time>
      </trkpt>
      <trkpt lat="48.14024" lon="5.29854">
        <ele>403.76</ele>
        <time>2024-12-23T21:24:37.075Z</time>
      </trkpt>
      <trkpt lat="48.14036" lon="5.29894">
        <ele>404.03</ele>
        <time>2024-12-23T21:24:39.276Z</time>
      </trkpt>
      <trkpt lat="48.14048" lon="5.29935">
        <ele>404.3</ele>
        <time>2024-12-23T21:24:41.481Z</time>
      </trkpt>
      <trkpt lat="48.1406" lon="5.29976">
        <ele>404.52</ele>
        <time>2024-12-23T21:24:43.691Z</time>
      </trkpt>
      <trkpt lat="48.14073" lon="5.30016">
        <ele>404.75</ele>
        <time>2024-12-23T21:24:45.906Z</time>
      </trkpt>
      <trkpt lat="48.14085" lon="5.30056">
        <ele>405.03</ele>
        <time>2024-12-23T21:24:48.126Z</time>
      </trkpt>
      <trkpt lat="48.14097" lon="5.30094">
        <ele>405.28</ele>
        <time>2024-12-23T21:24:50.350Z</time>
      </trkpt>
      <trkpt lat="48.14109" lon="5.30132">
        <ele>405.37</ele>
        <time>2024-12-23T21:24:52.579Z</time>
      </trkpt>
      <trkpt lat="48.14121" lon="5.3017">
        <ele>405.47</ele>
        <time>2024-12-23T21:24:54.812Z</time>
      </trkpt>
      <trkpt lat="48.14133" lon="5.30208">
        <ele>405.59</ele>
        <time>2024-12-23T21:24:57.050Z</time>
      </trkpt>
      <trkpt lat="48.14145" lon="5.30246">
        <ele>405.68</ele>
        <time>2024-12-23T21:24:59.292Z</time>
      </trkpt>
      <trkpt lat="48.14157" lon="5.30283">
        <ele>405.81</ele>
        <time>2024-12-23T21:25:01.539Z</time>
      </trkpt>
      <trkpt lat="48.1417" lon="5.30313">
        <ele>405.85</ele>
        <time>2024-12-23T21:25:03.790Z</time>
      </trkpt>
      <trkpt lat="48.1419" lon="5.30335">
        <ele>405.83</ele>
        <time>2024-12-23T21:25:06.044Z</time>
      </trkpt>
      <trkpt lat="48.14209" lon="5.30348">
        <ele>405.75</ele>
        <time>2024-12-23T21:25:08.302Z</time>
      </trkpt>
      <trkpt lat="48.14239" lon="5.30356">
        <ele>405.66</ele>
        <time>2024-12-23T21:25:10.565Z</time>
      </trkpt>
      <trkpt lat="48.14269" lon="5.30365">
        <ele>405.5</ele>
        <time>2024-12-23T21:25:12.833Z</time>
      </trkpt>
      <trkpt lat="48.14293" lon="5.30376">
        <ele>405.43</ele>
        <time>2024-12-23T21:25:15.105Z</time>
      </trkpt>
      <trkpt lat="48.14314" lon="5.30396">
        <ele>405.37</ele>
        <time>2024-12-23T21:25:17.381Z</time>
      </trkpt>
      <trkpt lat="48.14336" lon="5.30417">
        <ele>405.29</ele>
        <time>2024-12-23T21:25:19.661Z</time>
      </trkpt>
      <trkpt lat="48.14357" lon="5.30438">
        <ele>405.22</ele>
        <time>2024-12-23T21:25:21.945Z</time>
      </trkpt>
      <trkpt lat="48.14384" lon="5.30453">
        <ele>405.24</ele>
        <time>2024-12-23T21:25:24.233Z</time>
      </trkpt>
      <trkpt lat="48.14411" lon="5.30468">
        <ele>405.32</ele>
        <time>2024-12-23T21:25:26.526Z</time>
      </trkpt>
      <trkpt lat="48.14439" lon="5.30483">
        <ele>405.53</ele>
        <time>2024-12-23T21:25:28.824Z</time>
      </trkpt>
      <trkpt lat="48.14468" lon="5.30497">
        <ele>405.82</ele>
        <time>2024-12-23T21:25:31.127Z</time>
      </trkpt>
      <trkpt lat="48.14497" lon="5.3051">
        <ele>406.1</ele>
        <time>2024-12-23T21:25:33.434Z</time>
      </trkpt>
      <trkpt lat="48.14525" lon="5.30524">
        <ele>406.38</ele>
        <time>2024-12-23T21:25:35.746Z</time>
      </trkpt>
      <trkpt lat="48.14554" lon="5.30537">
        <ele>406.69</ele>
        <time>2024-12-23T21:25:38.063Z</time>
      </trkpt>
      <trkpt lat="48.14583" lon="5.30551">
        <ele>407.04</ele>
        <time>2024-12-23T21:25:40.385Z</time>
      </trkpt>
      <trkpt lat="48.14612" lon="5.30565">
        <ele>407.52</ele>
        <time>2024-12-23T21:25:42.712Z</time>
      </trkpt>
      <trkpt lat="48.14641" lon="5.30578">
        <ele>408.04</ele>
        <time>2024-12-23T21:25:45.044Z</time>
      </trkpt>
      <trkpt lat="48.1467" lon="5.30592">
        <ele>408.56</ele>
        <time>2024-12-23T21:25:47.381Z</time>
      </trkpt>
      <trkpt lat="48.14699" lon="5.30605">
        <ele>409.05</ele>
        <time>2024-12-23T21:25:49.722Z</time>
      </trkpt>
      <trkpt lat="48.14728" lon="5.30619">
        <ele>409.55</ele>
        <time>2024-12-23T21:25:52.068Z</time>
      </trkpt>
      <trkpt lat="48.14757" lon="5.30632">
        <ele>410.12</ele>
        <time>2024-12-23T21:25:54.419Z</time>
      </trkpt>
      <trkpt lat="48.14786" lon="5.30646">
        <ele>410.65</ele>
        <time>2024-12-23T21:25:56.775Z</time>
      </trkpt>
      <trkpt lat="48.14808" lon="5.3067">
        <ele>411.17</ele>
        <time>2024-12-23T21:25:59.135Z</time>
      </trkpt>
      <trkpt lat="48.14826" lon="5.30697">
        <ele>411.7</ele>
        <time>2024-12-23T21:26:01.499Z</time>
      </trkpt>
      <trkpt lat="48.14844" lon="5.30723">
        <ele>412.18</ele>
        <time>2024-12-23T21:26:03.868Z</time>
      </trkpt>
      <trkpt lat="48.14862" lon="5.3075">
        <ele>412.66</ele>
        <time>2024-12-23T21:26:06.241Z</time>
      </trkpt>
      <trkpt lat="48.14881" lon="5.30777">
        <ele>413.06</ele>
        <time>2024-12-23T21:26:08.618Z</time>
      </trkpt>
      <trkpt lat="48.14907" lon="5.30791">
        <ele>413.38</ele>
        <time>2024-12-23T21:26:10.999Z</time>
      </trkpt>
      <trkpt lat="48.14934" lon="5.30804">
        <ele>413.74</ele>
        <time>2024-12-23T21:26:13.385Z</time>
      </trkpt>
      <trkpt lat="48.1496" lon="5.30818">
        <ele>414.01</ele>
        <time>2024-12-23T21:26:15.775Z</time>
      </trkpt>
      <trkpt lat="48.14987" lon="5.30832">
        <ele>414.24</ele>
        <time>2024-12-23T21:26:18.170Z</time>
      </trkpt>
      <trkpt lat="48.15014" lon="5.30846">
        <ele>414.4</ele>
        <time>2024-12-23T21:26:20.569Z</time>
      </trkpt>
      <trkpt lat="48.15014" lon="5.30846">
        <ele>414.38</ele>
        <time>2024-12-23T21:26:22.968Z</time>
      </trkpt>
      <trkpt lat="48.15027" lon="5.3086">
        <ele>414.29</ele>
        <time>2024-12-23T21:26:25.370Z</time>
      </trkpt>
      <trkpt lat="48.15039" lon="5.30874">
        <ele>414.1</ele>
        <time>2024-12-23T21:26:27.774Z</time>
      </trkpt>
      <trkpt lat="48.15062" lon="5.30901">
        <ele>413.82</ele>
        <time>2024-12-23T21:26:30.183Z</time>
      </trkpt>
      <trkpt lat="48.15085" lon="5.30929">
        <ele>413.44</ele>
        <time>2024-12-23T21:26:32.597Z</time>
      </trkpt>
      <trkpt lat="48.15108" lon="5.30957">
        <ele>412.96</ele>
        <time>2024-12-23T21:26:35.015Z</time>
      </trkpt>
      <trkpt lat="48.1513" lon="5.30985">
        <ele>412.26</ele>
        <time>2024-12-23T21:26:37.438Z</time>
      </trkpt>
      <trkpt lat="48.15153" lon="5.31013">
        <ele>411.38</ele>
        <time>2024-12-23T21:26:39.866Z</time>
      </trkpt>
      <trkpt lat="48.15172" lon="5.31046">
        <ele>410.39</ele>
        <time>2024-12-23T21:26:42.299Z</time>
      </trkpt>
      <trkpt lat="48.1519" lon="5.3108">
        <ele>409.33</ele>
        <time>2024-12-23T21:26:44.736Z</time>
      </trkpt>
      <trkpt lat="48.15208" lon="5.31113">
        <ele>408.26</ele>
        <time>2024-12-23T21:26:47.178Z</time>
      </trkpt>
      <trkpt lat="48.15227" lon="5.31147">
        <ele>407.08</ele>
        <time>2024-12-23T21:26:49.624Z</time>
      </trkpt>
      <trkpt lat="48.15245" lon="5.3118">
        <ele>405.82</ele>
        <time>2024-12-23T21:26:52.075Z</time>
      </trkpt>
      <trkpt lat="48.15264" lon="5.31214">
        <ele>404.44</ele>
        <time>2024-12-23T21:26:54.531Z</time>
      </trkpt>
      <trkpt lat="48.15282" lon="5.31247">
        <ele>403</ele>
        <time>2024-12-23T21:26:56.991Z</time>
      </trkpt>
      <trkpt lat="48.15296" lon="5.31277">
        <ele>401.52</ele>
        <time>2024-12-23T21:26:59.455Z</time>
      </trkpt>
      <trkpt lat="48.15311" lon="5.31307">
        <ele>399.96</ele>
        <time>2024-12-23T21:27:01.923Z</time>
      </trkpt>
      <trkpt lat="48.15325" lon="5.31337">
        <ele>398.35</ele>
        <time>2024-12-23T21:27:04.395Z</time>
      </trkpt>
      <trkpt lat="48.1534" lon="5.31367">
        <ele>396.83</ele>
        <time>2024-12-23T21:27:06.871Z</time>
      </trkpt>
      <trkpt lat="48.15349" lon="5.31393">
        <ele>395.37</ele>
        <time>2024-12-23T21:27:09.350Z</time>
      </trkpt>
      <trkpt lat="48.15359" lon="5.31419">
        <ele>393.92</ele>
        <time>2024-12-23T21:27:11.833Z</time>
      </trkpt>
      <trkpt lat="48.1537" lon="5.31456">
        <ele>392.4</ele>
        <time>2024-12-23T21:27:14.320Z</time>
      </trkpt>
      <trkpt lat="48.15381" lon="5.31494">
        <ele>390.96</ele>
        <time>2024-12-23T21:27:16.811Z</time>
      </trkpt>
      <trkpt lat="48.15387" lon="5.31531">
        <ele>389.63</ele>
        <time>2024-12-23T21:27:19.306Z</time>
      </trkpt>
      <trkpt lat="48.15393" lon="5.31569">
        <ele>388.38</ele>
        <time>2024-12-23T21:27:21.806Z</time>
      </trkpt>
      <trkpt lat="48.15406" lon="5.31605">
        <ele>387.22</ele>
        <time>2024-12-23T21:27:24.310Z</time>
      </trkpt>
      <trkpt lat="48.15422" lon="5.3163">
        <ele>386.12</ele>
        <time>2024-12-23T21:27:26.818Z</time>
      </trkpt>
      <trkpt lat="48.15438" lon="5.31654">
        <ele>385.11</ele>
        <time>2024-12-23T21:27:29.329Z</time>
      </trkpt>
      <trkpt lat="48.15454" lon="5.31678">
        <ele>384.25</ele>
        <time>2024-12-23T21:27:31.844Z</time>
      </trkpt>
      <trkpt lat="48.1547" lon="5.31707">
        <ele>383.49</ele>
        <time>2024-12-23T21:27:34.363Z</time>
      </trkpt>
      <trkpt lat="48.15486" lon="5.31736">
        <ele>382.79</ele>
        <time>2024-12-23T21:27:36.886Z</time>
      </trkpt>
      <trkpt lat="48.15501" lon="5.31766">
        <ele>382.17</ele>
        <time>2024-12-23T21:27:39.413Z</time>
      </trkpt>
      <trkpt lat="48.15516" lon="5.31796">
        <ele>381.65</ele>
        <time>2024-12-23T21:27:41.944Z</time>
      </trkpt>
      <trkpt lat="48.15529" lon="5.31826">
        <ele>381.29</ele>
        <time>2024-12-23T21:27:44.479Z</time>
      </trkpt>
      <trkpt lat="48.15542" lon="5.31856">
        <ele>381.1</ele>
        <time>2024-12-23T21:27:47.018Z</time>
      </trkpt>
      <trkpt lat="48.1555" lon="5.31881">
        <ele>380.93</ele>
        <time>2024-12-23T21:27:49.560Z</time>
      </trkpt>
      <trkpt lat="48.15559" lon="5.31906">
        <ele>380.88</ele>
        <time>2024-12-23T21:27:52.105Z</time>
      </trkpt>
      <trkpt lat="48.15569" lon="5.31946">
        <ele>380.91</ele>
        <time>2024-12-23T21:27:54.654Z</time>
      </trkpt>
      <trkpt lat="48.15575" lon="5.31993">
        <ele>381.05</ele>
        <time>2024-12-23T21:27:57.208Z</time>
      </trkpt>
      <trkpt lat="48.15582" lon="5.32039">
        <ele>381.24</ele>
        <time>2024-12-23T21:27:59.767Z</time>
      </trkpt>
      <trkpt lat="48.15588" lon="5.32085">
        <ele>381.39</ele>
        <time>2024-12-23T21:28:02.331Z</time>
      </trkpt>
      <trkpt lat="48.15594" lon="5.32131">
        <ele>381.62</ele>
        <time>2024-12-23T21:28:04.900Z</time>
      </trkpt>
      <trkpt lat="48.156" lon="5.32178">
        <ele>381.86</ele>
        <time>2024-12-23T21:28:07.475Z</time>
      </trkpt>
      <trkpt lat="48.15606" lon="5.32223">
        <ele>382.18</ele>
        <time>2024-12-23T21:28:10.055Z</time>
      </trkpt>
      <trkpt lat="48.1561" lon="5.32251">
        <ele>382.57</ele>
        <time>2024-12-23T21:28:12.638Z</time>
      </trkpt>
      <trkpt lat="48.15614" lon="5.32279">
        <ele>383</ele>
        <time>2024-12-23T21:28:15.224Z</time>
      </trkpt>
      <trkpt lat="48.15621" lon="5.32312">
        <ele>383.5</ele>
        <time>2024-12-23T21:28:17.813Z</time>
      </trkpt>
      <trkpt lat="48.15627" lon="5.32346">
        <ele>384.04</ele>
        <time>2024-12-23T21:28:20.406Z</time>
      </trkpt>
      <trkpt lat="48.15637" lon="5.32377">
        <ele>384.57</ele>
        <time>2024-12-23T21:28:23.003Z</time>
      </trkpt>
      <trkpt lat="48.15647" lon="5.32408">
        <ele>385.04</ele>
        <time>2024-12-23T21:28:25.603Z</time>
      </trkpt>
      <trkpt lat="48.15659" lon="5.32446">
        <ele>385.55</ele>
        <time>2024-12-23T21:28:28.208Z</time>
      </trkpt>
      <trkpt lat="48.15672" lon="5.32484">
        <ele>386.07</ele>
        <time>2024-12-23T21:28:30.818Z</time>
      </trkpt>
      <trkpt lat="48.15684" lon="5.32523">
        <ele>386.57</ele>
        <time>2024-12-23T21:28:33.432Z</time>
      </trkpt>
      <trkpt lat="48.15697" lon="5.32561">
        <ele>387.04</ele>
        <time>2024-12-23T21:28:36.051Z</time>
      </trkpt>
      <trkpt lat="48.15709" lon="5.32599">
        <ele>387.44</ele>
        <time>2024-12-23T21:28:38.674Z</time>
      </trkpt>
      <trkpt lat="48.15724" lon="5.3264">
        <ele>387.76</ele>
        <time>2024-12-23T21:28:41.302Z</time>
      </trkpt>
      <trkpt lat="48.15736" lon="5.32675">
        <ele>388.05</ele>
        <time>2024-12-23T21:28:43.934Z</time>
      </trkpt>
      <trkpt lat="48.15748" lon="5.3271">
        <ele>388.28</ele>
        <time>2024-12-23T21:28:46.571Z</time>
      </trkpt>
      <trkpt lat="48.1576" lon="5.32746">
        <ele>388.4</ele>
        <time>2024-12-23T21:28:49.212Z</time>
      </trkpt>
      <trkpt lat="48.15773" lon="5.32781">
        <ele>388.48</ele>
        <time>2024-12-23T21:28:51.857Z</time>
      </trkpt>
      <trkpt lat="48.15785" lon="5.32817">
        <ele>388.61</ele>
        <time>2024-12-23T21:28:54.507Z</time>
      </trkpt>
      <trkpt lat="48.15797" lon="5.32852">
        <ele>388.69</ele>
        <time>2024-12-23T21:28:57.161Z</time>
      </trkpt>
      <trkpt lat="48.15805" lon="5.32885">
        <ele>388.62</ele>
        <time>2024-12-23T21:28:59.818Z</time>
      </trkpt>
      <trkpt lat="48.15813" lon="5.32918">
        <ele>388.53</ele>
        <time>2024-12-23T21:29:02.479Z</time>
      </trkpt>
      <trkpt lat="48.1582" lon="5.32951">
        <ele>388.41</ele>
        <time>2024-12-23T21:29:05.144Z</time>
      </trkpt>
      <trkpt lat="48.15828" lon="5.32993">
        <ele>388.26</ele>
        <time>2024-12-23T21:29:07.814Z</time>
      </trkpt>
      <trkpt lat="48.15835" lon="5.33034">
        <ele>388.11</ele>
        <time>2024-12-23T21:29:10.488Z</time>
      </trkpt>
      <trkpt lat="48.1584" lon="5.33074">
        <ele>387.89</ele>
        <time>2024-12-23T21:29:13.167Z</time>
      </trkpt>
      <trkpt lat="48.15844" lon="5.33114">
        <ele>387.71</ele>
        <time>2024-12-23T21:29:15.850Z</time>
      </trkpt>
      <trkpt lat="48.15844" lon="5.33157">
        <ele>387.44</ele>
        <time>2024-12-23T21:29:18.537Z</time>
      </trkpt>
      <trkpt lat="48.15844" lon="5.332">
        <ele>387.22</ele>
        <time>2024-12-23T21:29:21.229Z</time>
      </trkpt>
      <trkpt lat="48.15844" lon="5.33243">
        <ele>387.05</ele>
        <time>2024-12-23T21:29:23.926Z</time>
      </trkpt>
      <trkpt lat="48.15844" lon="5.33285">
        <ele>386.88</ele>
        <time>2024-12-23T21:29:26.627Z</time>
      </trkpt>
      <trkpt lat="48.1585" lon="5.33324">
        <ele>386.71</ele>
        <time>2024-12-23T21:29:29.333Z</time>
      </trkpt>
      <trkpt lat="48.15861" lon="5.33356">
        <ele>386.43</ele>
        <time>2024-12-23T21:29:32.042Z</time>
      </trkpt>
      <trkpt lat="48.15872" lon="5.33387">
        <ele>386.05</ele>
        <time>2024-12-23T21:29:34.755Z</time>
      </trkpt>
      <trkpt lat="48.15883" lon="5.33418">
        <ele>385.59</ele>
        <time>2024-12-23T21:29:37.472Z</time>
      </trkpt>
      <trkpt lat="48.159" lon="5.33448">
        <ele>385.13</ele>
        <time>2024-12-23T21:29:40.193Z</time>
      </trkpt>
      <trkpt lat="48.15921" lon="5.33473">
        <ele>384.67</ele>
        <time>2024-12-23T21:29:42.918Z</time>
      </trkpt>
      <trkpt lat="48.15923" lon="5.33475">
        <ele>384.2</ele>
        <time>2024-12-23T21:29:45.644Z</time>
      </trkpt>
      <trkpt lat="48.15923" lon="5.33475">
        <ele>383.69</ele>
        <time>2024-12-23T21:29:48.370Z</time>
      </trkpt>
      <trkpt lat="48.15923" lon="5.33475">
        <ele>383.15</ele>
        <time>2024-12-23T21:29:51.096Z</time>
      </trkpt>
      <trkpt lat="48.15943" lon="5.33498">
        <ele>382.52</ele>
        <time>2024-12-23T21:29:53.826Z</time>
      </trkpt>
      <trkpt lat="48.15964" lon="5.33532">
        <ele>381.89</ele>
        <time>2024-12-23T21:29:56.561Z</time>
      </trkpt>
      <trkpt lat="48.15986" lon="5.33566">
        <ele>381.18</ele>
        <time>2024-12-23T21:29:59.301Z</time>
      </trkpt>
      <trkpt lat="48.16008" lon="5.33591">
        <ele>380.41</ele>
        <time>2024-12-23T21:30:02.045Z</time>
      </trkpt>
      <trkpt lat="48.1603" lon="5.33616">
        <ele>379.61</ele>
        <time>2024-12-23T21:30:04.794Z</time>
      </trkpt>
      <trkpt lat="48.16053" lon="5.33641">
        <ele>378.75</ele>
        <time>2024-12-23T21:30:07.547Z</time>
      </trkpt>
      <trkpt lat="48.16075" lon="5.33666">
        <ele>377.78</ele>
        <time>2024-12-23T21:30:10.305Z</time>
      </trkpt>
      <trkpt lat="48.16097" lon="5.33691">
        <ele>376.76</ele>
        <time>2024-12-23T21:30:13.067Z</time>
      </trkpt>
      <trkpt lat="48.16119" lon="5.33721">
        <ele>375.71</ele>
        <time>2024-12-23T21:30:15.834Z</time>
      </trkpt>
      <trkpt lat="48.16136" lon="5.33751">
        <ele>374.62</ele>
        <time>2024-12-23T21:30:18.605Z</time>
      </trkpt>
      <trkpt lat="48.16154" lon="5.33782">
        <ele>373.53</ele>
        <time>2024-12-23T21:30:21.380Z</time>
      </trkpt>
      <trkpt lat="48.16172" lon="5.33813">
        <ele>372.44</ele>
        <time>2024-12-23T21:30:24.160Z</time>
      </trkpt>
      <trkpt lat="48.16189" lon="5.33843">
        <ele>371.3</ele>
        <time>2024-12-23T21:30:26.944Z</time>
      </trkpt>
      <trkpt lat="48.16207" lon="5.33873">
        <ele>370.02</ele>
        <time>2024-12-23T21:30:29.732Z</time>
      </trkpt>
      <trkpt lat="48.1622" lon="5.3391">
        <ele>368.59</ele>
        <time>2024-12-23T21:30:32.525Z</time>
      </trkpt>
      <trkpt lat="48.16234" lon="5.33946">
        <ele>367.17</ele>
        <time>2024-12-23T21:30:35.322Z</time>
      </trkpt>
      <trkpt lat="48.16247" lon="5.33983">
        <ele>365.81</ele>
        <time>2024-12-23T21:30:38.124Z</time>
      </trkpt>
      <trkpt lat="48.16267" lon="5.34019">
        <ele>364.38</ele>
        <time>2024-12-23T21:30:40.931Z</time>
      </trkpt>
      <trkpt lat="48.16282" lon="5.34054">
        <ele>362.87</ele>
        <time>2024-12-23T21:30:43.742Z</time>
      </trkpt>
      <trkpt lat="48.16292" lon="5.34097">
        <ele>361.27</ele>
        <time>2024-12-23T21:30:46.558Z</time>
      </trkpt>
      <trkpt lat="48.16302" lon="5.34141">
        <ele>359.59</ele>
        <time>2024-12-23T21:30:49.379Z</time>
      </trkpt>
      <trkpt lat="48.16311" lon="5.34185">
        <ele>357.89</ele>
        <time>2024-12-23T21:30:52.205Z</time>
      </trkpt>
      <trkpt lat="48.16321" lon="5.34229">
        <ele>356.22</ele>
        <time>2024-12-23T21:30:55.036Z</time>
      </trkpt>
      <trkpt lat="48.16331" lon="5.34272">
        <ele>354.6</ele>
        <time>2024-12-23T21:30:57.872Z</time>
      </trkpt>
      <trkpt lat="48.16337" lon="5.34313">
        <ele>353</ele>
        <time>2024-12-23T21:31:00.712Z</time>
      </trkpt>
      <trkpt lat="48.16343" lon="5.34354">
        <ele>351.36</ele>
        <time>2024-12-23T21:31:03.557Z</time>
      </trkpt>
      <trkpt lat="48.16348" lon="5.34395">
        <ele>349.78</ele>
        <time>2024-12-23T21:31:06.406Z</time>
      </trkpt>
      <trkpt lat="48.16355" lon="5.34433">
        <ele>348.3</ele>
        <time>2024-12-23T21:31:09.260Z</time>
      </trkpt>
      <trkpt lat="48.16362" lon="5.3447">
        <ele>346.9</ele>
        <time>2024-12-23T21:31:12.118Z</time>
      </trkpt>
      <trkpt lat="48.16362" lon="5.3447">
        <ele>345.69</ele>
        <time>2024-12-23T21:31:14.976Z</time>
      </trkpt>
      <trkpt lat="48.16362" lon="5.3447">
        <ele>344.56</ele>
        <time>2024-12-23T21:31:17.834Z</time>
      </trkpt>
      <trkpt lat="48.16369" lon="5.34502">
        <ele>343.44</ele>
        <time>2024-12-23T21:31:20.695Z</time>
      </trkpt>
      <trkpt lat="48.16375" lon="5.34535">
        <ele>342.41</ele>
        <time>2024-12-23T21:31:23.560Z</time>
      </trkpt>
      <trkpt lat="48.16381" lon="5.34566">
        <ele>341.46</ele>
        <time>2024-12-23T21:31:26.428Z</time>
      </trkpt>
      <trkpt lat="48.16396" lon="5.34596">
        <ele>340.62</ele>
        <time>2024-12-23T21:31:29.300Z</time>
      </trkpt>
      <trkpt lat="48.16406" lon="5.34607">
        <ele>339.84</ele>
        <time>2024-12-23T21:31:32.175Z</time>
      </trkpt>
      <trkpt lat="48.16424" lon="5.34619">
        <ele>339.13</ele>
        <time>2024-12-23T21:31:35.053Z</time>
      </trkpt>
      <trkpt lat="48.16443" lon="5.34631">
        <ele>338.47</ele>
        <time>2024-12-23T21:31:37.934Z</time>
      </trkpt>
      <trkpt lat="48.16462" lon="5.34648">
        <ele>337.85</ele>
        <time>2024-12-23T21:31:40.818Z</time>
      </trkpt>
      <trkpt lat="48.16483" lon="5.34663">
        <ele>337.28</ele>
        <time>2024-12-23T21:31:43.706Z</time>
      </trkpt>
      <trkpt lat="48.16501" lon="5.3468">
        <ele>336.74</ele>
        <time>2024-12-23T21:31:46.598Z</time>
      </trkpt>
      <trkpt lat="48.16511" lon="5.34697">
        <ele>336.21</ele>
        <time>2024-12-23T21:31:49.492Z</time>
      </trkpt>
      <trkpt lat="48.16528" lon="5.34734">
        <ele>335.72</ele>
        <time>2024-12-23T21:31:52.391Z</time>
      </trkpt>
      <trkpt lat="48.16544" lon="5.3477">
        <ele>335.2</ele>
        <time>2024-12-23T21:31:55.294Z</time>
      </trkpt>
      <trkpt lat="48.16554" lon="5.34804">
        <ele>334.71</ele>
        <time>2024-12-23T21:31:58.201Z</time>
      </trkpt>
      <trkpt lat="48.16565" lon="5.34837">
        <ele>334.19</ele>
        <time>2024-12-23T21:32:01.112Z</time>
      </trkpt>
      <trkpt lat="48.16576" lon="5.3487">
        <ele>333.66</ele>
        <time>2024-12-23T21:32:04.027Z</time>
      </trkpt>
      <trkpt lat="48.16587" lon="5.34903">
        <ele>333.04</ele>
        <time>2024-12-23T21:32:06.946Z</time>
      </trkpt>
      <trkpt lat="48.16586" lon="5.34927">
        <ele>332.4</ele>
        <time>2024-12-23T21:32:09.868Z</time>
      </trkpt>
      <trkpt lat="48.16586" lon="5.3495">
        <ele>331.72</ele>
        <time>2024-12-23T21:32:12.792Z</time>
      </trkpt>
      <trkpt lat="48.1659" lon="5.34977">
        <ele>330.99</ele>
        <time>2024-12-23T21:32:15.719Z</time>
      </trkpt>
      <trkpt lat="48.16593" lon="5.35004">
        <ele>330.19</ele>
        <time>2024-12-23T21:32:18.649Z</time>
      </trkpt>
      <trkpt lat="48.16593" lon="5.3503">
        <ele>329.32</ele>
        <time>2024-12-23T21:32:21.582Z</time>
      </trkpt>
      <trkpt lat="48.16593" lon="5.35056">
        <ele>328.43</ele>
        <time>2024-12-23T21:32:24.518Z</time>
      </trkpt>
      <trkpt lat="48.16598" lon="5.35091">
        <ele>327.46</ele>
        <time>2024-12-23T21:32:27.458Z</time>
      </trkpt>
      <trkpt lat="48.16603" lon="5.35126">
        <ele>326.47</ele>
        <time>2024-12-23T21:32:30.401Z</time>
      </trkpt>
      <trkpt lat="48.16608" lon="5.35161">
        <ele>325.35</ele>
        <time>2024-12-23T21:32:33.348Z</time>
      </trkpt>
      <trkpt lat="48.16584" lon="5.35169">
        <ele>324.37</ele>
        <time>2024-12-23T21:32:36.299Z</time>
      </trkpt>
      <trkpt lat="48.16559" lon="5.35178">
        <ele>323.24</ele>
        <time>2024-12-23T21:32:39.254Z</time>
      </trkpt>
      <trkpt lat="48.16535" lon="5.35187">
        <ele>322.01</ele>
        <time>2024-12-23T21:32:42.213Z</time>
      </trkpt>
      <trkpt lat="48.16531" lon="5.35206">
        <ele>320.83</ele>
        <time>2024-12-23T21:32:45.174Z</time>
      </trkpt>
      <trkpt lat="48.16516" lon="5.35232">
        <ele>319.57</ele>
        <time>2024-12-23T21:32:48.139Z</time>
      </trkpt>
      <trkpt lat="48.16499" lon="5.35206">
        <ele>318.35</ele>
        <time>2024-12-23T21:32:51.108Z</time>
      </trkpt>
      <trkpt lat="48.16481" lon="5.35169">
        <ele>317.04</ele>
        <time>2024-12-23T21:32:54.082Z</time>
      </trkpt>
      <trkpt lat="48.16463" lon="5.35131">
        <ele>315.69</ele>
        <time>2024-12-23T21:32:57.061Z</time>
      </trkpt>
      <trkpt lat="48.16445" lon="5.35094">
        <ele>314.42</ele>
        <time>2024-12-23T21:33:00.045Z</time>
      </trkpt>
      <trkpt lat="48.16428" lon="5.35056">
        <ele>313.25</ele>
        <time>2024-12-23T21:33:03.034Z</time>
      </trkpt>
      <trkpt lat="48.16423" lon="5.35032">
        <ele>312.21</ele>
        <time>2024-12-23T21:33:06.025Z</time>
      </trkpt>
      <trkpt lat="48.16419" lon="5.35008">
        <ele>311.18</ele>
        <time>2024-12-23T21:33:09.019Z</time>
      </trkpt>
      <trkpt lat="48.1641" lon="5.34984">
        <ele>310.15</ele>
        <time>2024-12-23T21:33:12.016Z</time>
      </trkpt>
      <trkpt lat="48.16401" lon="5.3496">
        <ele>309.19</ele>
        <time>2024-12-23T21:33:15.016Z</time>
      </trkpt>
      <trkpt lat="48.16402" lon="5.3496">
        <ele>308.27</ele>
        <time>2024-12-23T21:33:18.016Z</time>
      </trkpt>
      <trkpt lat="48.16402" lon="5.3496">
        <ele>307.41</ele>
        <time>2024-12-23T21:33:21.016Z</time>
      </trkpt>
      <trkpt lat="48.1641" lon="5.34984">
        <ele>306.61</ele>
        <time>2024-12-23T21:33:24.019Z</time>
      </trkpt>
      <trkpt lat="48.16419" lon="5.35008">
        <ele>311.18</ele>
        <time>2024-12-23T21:33:27.025Z</time>
      </trkpt>
      <trkpt lat="48.16423" lon="5.35032">
        <ele>305.2</ele>
        <time>2024-12-23T21:33:30.033Z</time>
      </trkpt>
      <trkpt lat="48.16428" lon="5.35056">
        <ele>313.25</ele>
        <time>2024-12-23T21:33:33.044Z</time>
      </trkpt>
      <trkpt lat="48.16419" lon="5.35101">
        <ele>303.9</ele>
        <time>2024-12-23T21:33:36.060Z</time>
      </trkpt>
      <trkpt lat="48.16396" lon="5.35131">
        <ele>303.4</ele>
        <time>2024-12-23T21:33:39.081Z</time>
      </trkpt>
      <trkpt lat="48.16382" lon="5.35143">
        <ele>303.09</ele>
        <time>2024-12-23T21:33:42.104Z</time>
      </trkpt>
      <trkpt lat="48.16368" lon="5.35154">
        <ele>302.83</ele>
        <time>2024-12-23T21:33:45.130Z</time>
      </trkpt>
      <trkpt lat="48.16355" lon="5.35168">
        <ele>302.71</ele>
        <time>2024-12-23T21:33:48.159Z</time>
      </trkpt>
      <trkpt lat="48.16342" lon="5.35182">
        <ele>302.64</ele>
        <time>2024-12-23T21:33:51.190Z</time>
      </trkpt>
      <trkpt lat="48.16329" lon="5.35206">
        <ele>302.7</ele>
        <time>2024-12-23T21:33:54.224Z</time>
      </trkpt>
      <trkpt lat="48.16316" lon="5.35229">
        <ele>302.92</ele>
        <time>2024-12-23T21:33:57.262Z</time>
      </trkpt>
      <trkpt lat="48.16308" lon="5.35247">
        <ele>303.26</ele>
        <time>2024-12-23T21:34:00.302Z</time>
      </trkpt>
      <trkpt lat="48.16299" lon="5.35264">
        <ele>303.7</ele>
        <time>2024-12-23T21:34:03.344Z</time>
      </trkpt>
      <trkpt lat="48.16295" lon="5.3527">
        <ele>304.26</ele>
        <time>2024-12-23T21:34:06.387Z</time>
      </trkpt>
      <trkpt lat="48.16269" lon="5.35283">
        <ele>305.08</ele>
        <time>2024-12-23T21:34:09.435Z</time>
      </trkpt>
      <trkpt lat="48.16245" lon="5.35285">
        <ele>306</ele>
        <time>2024-12-23T21:34:12.486Z</time>
      </trkpt>
      <trkpt lat="48.16222" lon="5.35287">
        <ele>306.98</ele>
        <time>2024-12-23T21:34:15.541Z</time>
      </trkpt>
      <trkpt lat="48.16198" lon="5.3529">
        <ele>307.95</ele>
        <time>2024-12-23T21:34:18.600Z</time>
      </trkpt>
      <trkpt lat="48.16177" lon="5.35302">
        <ele>309.09</ele>
        <time>2024-12-23T21:34:21.662Z</time>
      </trkpt>
      <trkpt lat="48.16157" lon="5.35314">
        <ele>310.24</ele>
        <time>2024-12-23T21:34:24.728Z</time>
      </trkpt>
      <trkpt lat="48.16136" lon="5.35326">
        <ele>311.43</ele>
        <time>2024-12-23T21:34:27.798Z</time>
      </trkpt>
      <trkpt lat="48.1612" lon="5.35342">
        <ele>312.75</ele>
        <time>2024-12-23T21:34:30.871Z</time>
      </trkpt>
      <trkpt lat="48.16104" lon="5.35358">
        <ele>314.12</ele>
        <time>2024-12-23T21:34:33.947Z</time>
      </trkpt>
      <trkpt lat="48.16084" lon="5.35383">
        <ele>315.48</ele>
        <time>2024-12-23T21:34:37.027Z</time>
      </trkpt>
      <trkpt lat="48.16065" lon="5.35408">
        <ele>316.92</ele>
        <time>2024-12-23T21:34:40.111Z</time>
      </trkpt>
      <trkpt lat="48.16046" lon="5.35432">
        <ele>318.42</ele>
        <time>2024-12-23T21:34:43.199Z</time>
      </trkpt>
      <trkpt lat="48.16026" lon="5.35457">
        <ele>320.04</ele>
        <time>2024-12-23T21:34:46.291Z</time>
      </trkpt>
      <trkpt lat="48.16006" lon="5.35477">
        <ele>321.62</ele>
        <time>2024-12-23T21:34:49.387Z</time>
      </trkpt>
      <trkpt lat="48.15985" lon="5.35498">
        <ele>323.26</ele>
        <time>2024-12-23T21:34:52.487Z</time>
      </trkpt>
      <trkpt lat="48.15964" lon="5.35518">
        <ele>324.96</ele>
        <time>2024-12-23T21:34:55.591Z</time>
      </trkpt>
      <trkpt lat="48.15943" lon="5.35538">
        <ele>326.78</ele>
        <time>2024-12-23T21:34:58.699Z</time>
      </trkpt>
      <trkpt lat="48.1597" lon="5.35545">
        <ele>328.53</ele>
        <time>2024-12-23T21:35:01.811Z</time>
      </trkpt>
      <trkpt lat="48.15996" lon="5.35551">
        <ele>330.36</ele>
        <time>2024-12-23T21:35:04.928Z</time>
      </trkpt>
      <trkpt lat="48.16017" lon="5.35559">
        <ele>332.19</ele>
        <time>2024-12-23T21:35:08.048Z</time>
      </trkpt>
      <trkpt lat="48.16037" lon="5.35566">
        <ele>334.03</ele>
        <time>2024-12-23T21:35:11.171Z</time>
      </trkpt>
      <trkpt lat="48.16066" lon="5.35583">
        <ele>335.94</ele>
        <time>2024-12-23T21:35:14.299Z</time>
      </trkpt>
      <trkpt lat="48.16095" lon="5.35601">
        <ele>337.87</ele>
        <time>2024-12-23T21:35:17.432Z</time>
      </trkpt>
      <trkpt lat="48.16111" lon="5.35615">
        <ele>339.83</ele>
        <time>2024-12-23T21:35:20.568Z</time>
      </trkpt>
      <trkpt lat="48.16127" lon="5.35629">
        <ele>341.84</ele>
        <time>2024-12-23T21:35:23.707Z</time>
      </trkpt>
      <trkpt lat="48.16149" lon="5.35652">
        <ele>343.87</ele>
        <time>2024-12-23T21:35:26.851Z</time>
      </trkpt>
      <trkpt lat="48.1617" lon="5.35676">
        <ele>345.9</ele>
        <time>2024-12-23T21:35:29.999Z</time>
      </trkpt>
      <trkpt lat="48.16182" lon="5.35695">
        <ele>347.93</ele>
        <time>2024-12-23T21:35:33.150Z</time>
      </trkpt>
      <trkpt lat="48.16194" lon="5.35714">
        <ele>349.95</ele>
        <time>2024-12-23T21:35:36.304Z</time>
      </trkpt>
      <trkpt lat="48.16202" lon="5.35737">
        <ele>352.02</ele>
        <time>2024-12-23T21:35:39.460Z</time>
      </trkpt>
      <trkpt lat="48.16211" lon="5.35759">
        <ele>354.14</ele>
        <time>2024-12-23T21:35:42.619Z</time>
      </trkpt>
      <trkpt lat="48.16213" lon="5.35783">
        <ele>356.28</ele>
        <time>2024-12-23T21:35:45.781Z</time>
      </trkpt>
      <trkpt lat="48.16215" lon="5.35807">
        <ele>358.38</ele>
        <time>2024-12-23T21:35:48.945Z</time>
      </trkpt>
      <trkpt lat="48.16214" lon="5.35853">
        <ele>360.51</ele>
        <time>2024-12-23T21:35:52.114Z</time>
      </trkpt>
      <trkpt lat="48.16212" lon="5.35898">
        <ele>362.69</ele>
        <time>2024-12-23T21:35:55.288Z</time>
      </trkpt>
      <trkpt lat="48.16211" lon="5.35944">
        <ele>364.87</ele>
        <time>2024-12-23T21:35:58.467Z</time>
      </trkpt>
      <trkpt lat="48.16211" lon="5.35985">
        <ele>366.93</ele>
        <time>2024-12-23T21:36:01.650Z</time>
      </trkpt>
      <trkpt lat="48.16211" lon="5.36026">
        <ele>369.08</ele>
        <time>2024-12-23T21:36:04.838Z</time>
      </trkpt>
      <trkpt lat="48.16215" lon="5.36069">
        <ele>371.28</ele>
        <time>2024-12-23T21:36:08.030Z</time>
      </trkpt>
      <trkpt lat="48.1622" lon="5.36111">
        <ele>373.36</ele>
        <time>2024-12-23T21:36:11.227Z</time>
      </trkpt>
      <trkpt lat="48.16227" lon="5.36148">
        <ele>375.44</ele>
        <time>2024-12-23T21:36:14.428Z</time>
      </trkpt>
      <trkpt lat="48.16234" lon="5.36186">
        <ele>377.56</ele>
        <time>2024-12-23T21:36:17.633Z</time>
      </trkpt>
      <trkpt lat="48.16241" lon="5.36223">
        <ele>379.59</ele>
        <time>2024-12-23T21:36:20.842Z</time>
      </trkpt>
      <trkpt lat="48.16247" lon="5.36259">
        <ele>381.49</ele>
        <time>2024-12-23T21:36:24.055Z</time>
      </trkpt>
      <trkpt lat="48.16255" lon="5.36295">
        <ele>383.37</ele>
        <time>2024-12-23T21:36:27.272Z</time>
      </trkpt>
      <trkpt lat="48.16263" lon="5.3633">
        <ele>385.21</ele>
        <time>2024-12-23T21:36:30.493Z</time>
      </trkpt>
      <trkpt lat="48.16271" lon="5.36365">
        <ele>386.97</ele>
        <time>2024-12-23T21:36:33.718Z</time>
      </trkpt>
      <trkpt lat="48.16282" lon="5.36404">
        <ele>388.71</ele>
        <time>2024-12-23T21:36:36.948Z</time>
      </trkpt>
      <trkpt lat="48.16293" lon="5.36444">
        <ele>390.33</ele>
        <time>2024-12-23T21:36:40.182Z</time>
      </trkpt>
      <trkpt lat="48.16303" lon="5.36483">
        <ele>391.82</ele>
        <time>2024-12-23T21:36:43.421Z</time>
      </trkpt>
      <trkpt lat="48.16314" lon="5.36523">
        <ele>393.35</ele>
        <time>2024-12-23T21:36:46.665Z</time>
      </trkpt>
      <trkpt lat="48.16325" lon="5.36562">
        <ele>394.85</ele>
        <time>2024-12-23T21:36:49.913Z</time>
      </trkpt>
      <trkpt lat="48.16332" lon="5.36601">
        <ele>396.22</ele>
        <time>2024-12-23T21:36:53.166Z</time>
      </trkpt>
      <trkpt lat="48.1634" lon="5.3664">
        <ele>397.6</ele>
        <time>2024-12-23T21:36:56.423Z</time>
      </trkpt>
      <trkpt lat="48.16347" lon="5.3668">
        <ele>398.99</ele>
        <time>2024-12-23T21:36:59.684Z</time>
      </trkpt>
      <trkpt lat="48.16355" lon="5.36719">
        <ele>400.35</ele>
        <time>2024-12-23T21:37:02.950Z</time>
      </trkpt>
      <trkpt lat="48.1636" lon="5.36754">
        <ele>401.57</ele>
        <time>2024-12-23T21:37:06.220Z</time>
      </trkpt>
      <trkpt lat="48.16365" lon="5.3679">
        <ele>402.72</ele>
        <time>2024-12-23T21:37:09.493Z</time>
      </trkpt>
      <trkpt lat="48.1637" lon="5.36826">
        <ele>403.79</ele>
        <time>2024-12-23T21:37:12.770Z</time>
      </trkpt>
      <trkpt lat="48.16373" lon="5.36866">
        <ele>404.9</ele>
        <time>2024-12-23T21:37:16.052Z</time>
      </trkpt>
      <trkpt lat="48.16376" lon="5.36907">
        <ele>405.89</ele>
        <time>2024-12-23T21:37:19.338Z</time>
      </trkpt>
      <trkpt lat="48.16379" lon="5.36947">
        <ele>406.91</ele>
        <time>2024-12-23T21:37:22.628Z</time>
      </trkpt>
      <trkpt lat="48.16382" lon="5.36988">
        <ele>407.82</ele>
        <time>2024-12-23T21:37:25.923Z</time>
      </trkpt>
      <trkpt lat="48.16385" lon="5.37028">
        <ele>408.58</ele>
        <time>2024-12-23T21:37:29.222Z</time>
      </trkpt>
      <trkpt lat="48.16387" lon="5.37049">
        <ele>409.33</ele>
        <time>2024-12-23T21:37:32.523Z</time>
      </trkpt>
      <trkpt lat="48.16396" lon="5.37079">
        <ele>410.14</ele>
        <time>2024-12-23T21:37:35.828Z</time>
      </trkpt>
      <trkpt lat="48.16404" lon="5.37109">
        <ele>410.97</ele>
        <time>2024-12-23T21:37:39.136Z</time>
      </trkpt>
      <trkpt lat="48.1642" lon="5.37149">
        <ele>411.78</ele>
        <time>2024-12-23T21:37:42.449Z</time>
      </trkpt>
      <trkpt lat="48.16436" lon="5.37188">
        <ele>412.47</ele>
        <time>2024-12-23T21:37:45.767Z</time>
      </trkpt>
      <trkpt lat="48.16451" lon="5.37227">
        <ele>413.15</ele>
        <time>2024-12-23T21:37:49.090Z</time>
      </trkpt>
      <trkpt lat="48.16467" lon="5.37267">
        <ele>413.76</ele>
        <time>2024-12-23T21:37:52.418Z</time>
      </trkpt>
      <trkpt lat="48.16483" lon="5.37306">
        <ele>414.37</ele>
        <time>2024-12-23T21:37:55.751Z</time>
      </trkpt>
      <trkpt lat="48.16499" lon="5.37346">
        <ele>414.95</ele>
        <time>2024-12-23T21:37:59.089Z</time>
      </trkpt>
      <trkpt lat="48.16514" lon="5.37385">
        <ele>415.41</ele>
        <time>2024-12-23T21:38:02.432Z</time>
      </trkpt>
      <trkpt lat="48.1653" lon="5.37424">
        <ele>415.96</ele>
        <time>2024-12-23T21:38:05.780Z</time>
      </trkpt>
      <trkpt lat="48.16546" lon="5.37464">
        <ele>416.57</ele>
        <time>2024-12-23T21:38:09.133Z</time>
      </trkpt>
      <trkpt lat="48.16562" lon="5.37503">
        <ele>417.15</ele>
        <time>2024-12-23T21:38:12.491Z</time>
      </trkpt>
      <trkpt lat="48.16578" lon="5.37543">
        <ele>417.67</ele>
        <time>2024-12-23T21:38:15.853Z</time>
      </trkpt>
      <trkpt lat="48.16593" lon="5.37582">
        <ele>418.17</ele>
        <time>2024-12-23T21:38:19.220Z</time>
      </trkpt>
      <trkpt lat="48.16609" lon="5.37621">
        <ele>418.73</ele>
        <time>2024-12-23T21:38:22.592Z</time>
      </trkpt>
      <trkpt lat="48.16625" lon="5.37661">
        <ele>419.22</ele>
        <time>2024-12-23T21:38:25.969Z</time>
      </trkpt>
      <trkpt lat="48.1664" lon="5.37699">
        <ele>419.67</ele>
        <time>2024-12-23T21:38:29.351Z</time>
      </trkpt>
      <trkpt lat="48.16653" lon="5.3772">
        <ele>420.14</ele>
        <time>2024-12-23T21:38:32.736Z</time>
      </trkpt>
      <trkpt lat="48.16666" lon="5.3774">
        <ele>420.61</ele>
        <time>2024-12-23T21:38:36.124Z</time>
      </trkpt>
      <trkpt lat="48.16682" lon="5.37762">
        <ele>421.06</ele>
        <time>2024-12-23T21:38:39.516Z</time>
      </trkpt>
      <trkpt lat="48.16699" lon="5.37784">
        <ele>421.5</ele>
        <time>2024-12-23T21:38:42.911Z</time>
      </trkpt>
      <trkpt lat="48.16715" lon="5.37807">
        <ele>421.93</ele>
        <time>2024-12-23T21:38:46.310Z</time>
      </trkpt>
      <trkpt lat="48.16735" lon="5.37827">
        <ele>422.3</ele>
        <time>2024-12-23T21:38:49.713Z</time>
      </trkpt>
      <trkpt lat="48.16755" lon="5.37848">
        <ele>422.66</ele>
        <time>2024-12-23T21:38:53.119Z</time>
      </trkpt>
      <trkpt lat="48.16775" lon="5.37869">
        <ele>423.03</ele>
        <time>2024-12-23T21:38:56.529Z</time>
      </trkpt>
      <trkpt lat="48.16788" lon="5.37886">
        <ele>423.37</ele>
        <time>2024-12-23T21:38:59.942Z</time>
      </trkpt>
      <trkpt lat="48.16801" lon="5.37903">
        <ele>423.66</ele>
        <time>2024-12-23T21:39:03.358Z</time>
      </trkpt>
      <trkpt lat="48.16817" lon="5.37935">
        <ele>423.87</ele>
        <time>2024-12-23T21:39:06.778Z</time>
      </trkpt>
      <trkpt lat="48.16832" lon="5.37968">
        <ele>424.04</ele>
        <time>2024-12-23T21:39:10.202Z</time>
      </trkpt>
      <trkpt lat="48.16847" lon="5.38">
        <ele>424.19</ele>
        <time>2024-12-23T21:39:13.631Z</time>
      </trkpt>
      <trkpt lat="48.16863" lon="5.38032">
        <ele>424.32</ele>
        <time>2024-12-23T21:39:17.064Z</time>
      </trkpt>
      <trkpt lat="48.16878" lon="5.38064">
        <ele>424.42</ele>
        <time>2024-12-23T21:39:20.501Z</time>
      </trkpt>
      <trkpt lat="48.1689" lon="5.38083">
        <ele>424.48</ele>
        <time>2024-12-23T21:39:23.941Z</time>
      </trkpt>
      <trkpt lat="48.16902" lon="5.38103">
        <ele>424.5</ele>
        <time>2024-12-23T21:39:27.384Z</time>
      </trkpt>
      <trkpt lat="48.16918" lon="5.38114">
        <ele>424.46</ele>
        <time>2024-12-23T21:39:30.830Z</time>
      </trkpt>
      <trkpt lat="48.16934" lon="5.38126">
        <ele>424.38</ele>
        <time>2024-12-23T21:39:34.278Z</time>
      </trkpt>
      <trkpt lat="48.16963" lon="5.38138">
        <ele>424.2</ele>
        <time>2024-12-23T21:39:37.731Z</time>
      </trkpt>
      <trkpt lat="48.16993" lon="5.38151">
        <ele>423.95</ele>
        <time>2024-12-23T21:39:41.189Z</time>
      </trkpt>
      <trkpt lat="48.17022" lon="5.38163">
        <ele>423.76</ele>
        <time>2024-12-23T21:39:44.652Z</time>
      </trkpt>
      <trkpt lat="48.1705" lon="5.3817">
        <ele>423.59</ele>
        <time>2024-12-23T21:39:48.120Z</time>
      </trkpt>
      <trkpt lat="48.17078" lon="5.38178">
        <ele>423.3</ele>
        <time>2024-12-23T21:39:51.592Z</time>
      </trkpt>
      <trkpt lat="48.17108" lon="5.38181">
        <ele>422.99</ele>
        <time>2024-12-23T21:39:55.069Z</time>
      </trkpt>
      <trkpt lat="48.17138" lon="5.38184">
        <ele>422.71</ele>
        <time>2024-12-23T21:39:58.551Z</time>
      </trkpt>
      <trkpt lat="48.17167" lon="5.38183">
        <ele>422.39</ele>
        <time>2024-12-23T21:40:02.037Z</time>
      </trkpt>
      <trkpt lat="48.17196" lon="5.38182">
        <ele>422.04</ele>
        <time>2024-12-23T21:40:05.528Z</time>
      </trkpt>
      <trkpt lat="48.17225" lon="5.38181">
        <ele>421.65</ele>
        <time>2024-12-23T21:40:09.024Z</time>
      </trkpt>
      <trkpt lat="48.17255" lon="5.3818">
        <ele>421.23</ele>
        <time>2024-12-23T21:40:12.524Z</time>
      </trkpt>
      <trkpt lat="48.17284" lon="5.38179">
        <ele>420.79</ele>
        <time>2024-12-23T21:40:16.029Z</time>
      </trkpt>
      <trkpt lat="48.17313" lon="5.38178">
        <ele>420.36</ele>
        <time>2024-12-23T21:40:19.539Z</time>
      </trkpt>
      <trkpt lat="48.17342" lon="5.38177">
        <ele>419.95</ele>
        <time>2024-12-23T21:40:23.054Z</time>
      </trkpt>
      <trkpt lat="48.17371" lon="5.38176">
        <ele>419.53</ele>
        <time>2024-12-23T21:40:26.573Z</time>
      </trkpt>
      <trkpt lat="48.17401" lon="5.38175">
        <ele>419.13</ele>
        <time>2024-12-23T21:40:30.097Z</time>
      </trkpt>
      <trkpt lat="48.1743" lon="5.38173">
        <ele>418.72</ele>
        <time>2024-12-23T21:40:33.626Z</time>
      </trkpt>
      <trkpt lat="48.17452" lon="5.38176">
        <ele>418.32</ele>
        <time>2024-12-23T21:40:37.158Z</time>
      </trkpt>
      <trkpt lat="48.17475" lon="5.38178">
        <ele>417.91</ele>
        <time>2024-12-23T21:40:40.694Z</time>
      </trkpt>
      <trkpt lat="48.175" lon="5.38183">
        <ele>417.52</ele>
        <time>2024-12-23T21:40:44.234Z</time>
      </trkpt>
      <trkpt lat="48.17524" lon="5.38188">
        <ele>417.14</ele>
        <time>2024-12-23T21:40:47.778Z</time>
      </trkpt>
      <trkpt lat="48.17554" lon="5.382">
        <ele>416.77</ele>
        <time>2024-12-23T21:40:51.327Z</time>
      </trkpt>
      <trkpt lat="48.17584" lon="5.38212">
        <ele>416.53</ele>
        <time>2024-12-23T21:40:54.881Z</time>
      </trkpt>
      <trkpt lat="48.17612" lon="5.38228">
        <ele>416.27</ele>
        <time>2024-12-23T21:40:58.439Z</time>
      </trkpt>
      <trkpt lat="48.1764" lon="5.38245">
        <ele>416</ele>
        <time>2024-12-23T21:41:02.002Z</time>
      </trkpt>
      <trkpt lat="48.17667" lon="5.38261">
        <ele>415.81</ele>
        <time>2024-12-23T21:41:05.570Z</time>
      </trkpt>
      <trkpt lat="48.17695" lon="5.38278">
        <ele>415.66</ele>
        <time>2024-12-23T21:41:09.143Z</time>
      </trkpt>
      <trkpt lat="48.17723" lon="5.38294">
        <ele>415.48</ele>
        <time>2024-12-23T21:41:12.721Z</time>
      </trkpt>
      <trkpt lat="48.1775" lon="5.3831">
        <ele>415.35</ele>
        <time>2024-12-23T21:41:16.303Z</time>
      </trkpt>
      <trkpt lat="48.17778" lon="5.38327">
        <ele>415.27</ele>
        <time>2024-12-23T21:41:19.890Z</time>
      </trkpt>
      <trkpt lat="48.17806" lon="5.38343">
        <ele>415.28</ele>
        <time>2024-12-23T21:41:23.482Z</time>
      </trkpt>
      <trkpt lat="48.17834" lon="5.3836">
        <ele>415.29</ele>
        <time>2024-12-23T21:41:27.079Z</time>
      </trkpt>
      <trkpt lat="48.17861" lon="5.38376">
        <ele>415.29</ele>
        <time>2024-12-23T21:41:30.680Z</time>
      </trkpt>
      <trkpt lat="48.17889" lon="5.38392">
        <ele>415.33</ele>
        <time>2024-12-23T21:41:34.286Z</time>
      </trkpt>
      <trkpt lat="48.17908" lon="5.38405">
        <ele>415.36</ele>
        <time>2024-12-23T21:41:37.896Z</time>
      </trkpt>
      <trkpt lat="48.17933" lon="5.38424">
        <ele>415.39</ele>
        <time>2024-12-23T21:41:41.510Z</time>
      </trkpt>
      <trkpt lat="48.17957" lon="5.38443">
        <ele>415.36</ele>
        <time>2024-12-23T21:41:45.128Z</time>
      </trkpt>
      <trkpt lat="48.17982" lon="5.38462">
        <ele>415.37</ele>
        <time>2024-12-23T21:41:48.751Z</time>
      </trkpt>
      <trkpt lat="48.18006" lon="5.38481">
        <ele>415.3</ele>
        <time>2024-12-23T21:41:52.378Z</time>
      </trkpt>
      <trkpt lat="48.18031" lon="5.385">
        <ele>415.16</ele>
        <time>2024-12-23T21:41:56.010Z</time>
      </trkpt>
      <trkpt lat="48.18051" lon="5.38512">
        <ele>415.02</ele>
        <time>2024-12-23T21:41:59.645Z</time>
      </trkpt>
      <trkpt lat="48.18072" lon="5.38525">
        <ele>414.77</ele>
        <time>2024-12-23T21:42:03.284Z</time>
      </trkpt>
      <trkpt lat="48.18093" lon="5.38538">
        <ele>414.47</ele>
        <time>2024-12-23T21:42:06.926Z</time>
      </trkpt>
      <trkpt lat="48.18109" lon="5.38538">
        <ele>414.11</ele>
        <time>2024-12-23T21:42:10.571Z</time>
      </trkpt>
      <trkpt lat="48.18125" lon="5.38538">
        <ele>413.67</ele>
        <time>2024-12-23T21:42:14.219Z</time>
      </trkpt>
      <trkpt lat="48.18155" lon="5.38525">
        <ele>413.18</ele>
        <time>2024-12-23T21:42:17.872Z</time>
      </trkpt>
      <trkpt lat="48.18185" lon="5.38512">
        <ele>412.68</ele>
        <time>2024-12-23T21:42:21.530Z</time>
      </trkpt>
      <trkpt lat="48.18209" lon="5.38502">
        <ele>412.17</ele>
        <time>2024-12-23T21:42:25.192Z</time>
      </trkpt>
      <trkpt lat="48.18234" lon="5.38491">
        <ele>411.48</ele>
        <time>2024-12-23T21:42:28.858Z</time>
      </trkpt>
      <trkpt lat="48.18258" lon="5.3848">
        <ele>410.76</ele>
        <time>2024-12-23T21:42:32.528Z</time>
      </trkpt>
      <trkpt lat="48.18282" lon="5.38475">
        <ele>409.97</ele>
        <time>2024-12-23T21:42:36.202Z</time>
      </trkpt>
      <trkpt lat="48.18305" lon="5.3847">
        <ele>409.1</ele>
        <time>2024-12-23T21:42:39.879Z</time>
      </trkpt>
      <trkpt lat="48.18329" lon="5.38465">
        <ele>408.22</ele>
        <time>2024-12-23T21:42:43.560Z</time>
      </trkpt>
      <trkpt lat="48.18359" lon="5.38466">
        <ele>407.27</ele>
        <time>2024-12-23T21:42:47.246Z</time>
      </trkpt>
      <trkpt lat="48.18389" lon="5.38467">
        <ele>406.28</ele>
        <time>2024-12-23T21:42:50.937Z</time>
      </trkpt>
      <trkpt lat="48.18418" lon="5.38471">
        <ele>405.28</ele>
        <time>2024-12-23T21:42:54.633Z</time>
      </trkpt>
      <trkpt lat="48.18447" lon="5.38474">
        <ele>404.2</ele>
        <time>2024-12-23T21:42:58.333Z</time>
      </trkpt>
      <trkpt lat="48.18477" lon="5.38477">
        <ele>403</ele>
        <time>2024-12-23T21:43:02.038Z</time>
      </trkpt>
      <trkpt lat="48.18506" lon="5.38481">
        <ele>401.79</ele>
        <time>2024-12-23T21:43:05.748Z</time>
      </trkpt>
      <trkpt lat="48.18535" lon="5.38484">
        <ele>400.58</ele>
        <time>2024-12-23T21:43:09.462Z</time>
      </trkpt>
      <trkpt lat="48.18564" lon="5.38487">
        <ele>399.31</ele>
        <time>2024-12-23T21:43:13.181Z</time>
      </trkpt>
      <trkpt lat="48.18594" lon="5.38491">
        <ele>398.08</ele>
        <time>2024-12-23T21:43:16.905Z</time>
      </trkpt>
      <trkpt lat="48.18623" lon="5.38494">
        <ele>396.86</ele>
        <time>2024-12-23T21:43:20.633Z</time>
      </trkpt>
      <trkpt lat="48.18652" lon="5.38497">
        <ele>395.7</ele>
        <time>2024-12-23T21:43:24.366Z</time>
      </trkpt>
      <trkpt lat="48.18681" lon="5.38501">
        <ele>394.47</ele>
        <time>2024-12-23T21:43:28.104Z</time>
      </trkpt>
      <trkpt lat="48.18711" lon="5.38504">
        <ele>393.13</ele>
        <time>2024-12-23T21:43:31.846Z</time>
      </trkpt>
      <trkpt lat="48.18722" lon="5.38504">
        <ele>391.83</ele>
        <time>2024-12-23T21:43:35.590Z</time>
      </trkpt>
      <trkpt lat="48.18747" lon="5.38503">
        <ele>390.48</ele>
        <time>2024-12-23T21:43:39.338Z</time>
      </trkpt>
      <trkpt lat="48.18773" lon="5.38502">
        <ele>389.17</ele>
        <time>2024-12-23T21:43:43.090Z</time>
      </trkpt>
      <trkpt lat="48.18801" lon="5.38498">
        <ele>387.87</ele>
        <time>2024-12-23T21:43:46.847Z</time>
      </trkpt>
      <trkpt lat="48.18829" lon="5.38494">
        <ele>386.58</ele>
        <time>2024-12-23T21:43:50.608Z</time>
      </trkpt>
      <trkpt lat="48.18857" lon="5.3849">
        <ele>385.33</ele>
        <time>2024-12-23T21:43:54.374Z</time>
      </trkpt>
      <trkpt lat="48.18885" lon="5.38486">
        <ele>384.14</ele>
        <time>2024-12-23T21:43:58.144Z</time>
      </trkpt>
      <trkpt lat="48.18912" lon="5.38483">
        <ele>383.01</ele>
        <time>2024-12-23T21:44:01.919Z</time>
      </trkpt>
      <trkpt lat="48.1894" lon="5.38479">
        <ele>381.94</ele>
        <time>2024-12-23T21:44:05.698Z</time>
      </trkpt>
      <trkpt lat="48.18968" lon="5.38475">
        <ele>380.94</ele>
        <time>2024-12-23T21:44:09.482Z</time>
      </trkpt>
      <trkpt lat="48.18996" lon="5.38471">
        <ele>379.97</ele>
        <time>2024-12-23T21:44:13.270Z</time>
      </trkpt>
      <trkpt lat="48.19024" lon="5.38467">
        <ele>379.08</ele>
        <time>2024-12-23T21:44:17.063Z</time>
      </trkpt>
      <trkpt lat="48.19053" lon="5.38458">
        <ele>378.24</ele>
        <time>2024-12-23T21:44:20.861Z</time>
      </trkpt>
      <trkpt lat="48.19082" lon="5.38449">
        <ele>377.53</ele>
        <time>2024-12-23T21:44:24.663Z</time>
      </trkpt>
      <trkpt lat="48.19112" lon="5.3844">
        <ele>376.91</ele>
        <time>2024-12-23T21:44:28.470Z</time>
      </trkpt>
      <trkpt lat="48.19141" lon="5.38431">
        <ele>376.3</ele>
        <time>2024-12-23T21:44:32.282Z</time>
      </trkpt>
      <trkpt lat="48.1917" lon="5.38422">
        <ele>375.75</ele>
        <time>2024-12-23T21:44:36.099Z</time>
      </trkpt>
      <trkpt lat="48.19199" lon="5.38427">
        <ele>375.25</ele>
        <time>2024-12-23T21:44:39.920Z</time>
      </trkpt>
      <trkpt lat="48.19227" lon="5.38432">
        <ele>374.78</ele>
        <time>2024-12-23T21:44:43.746Z</time>
      </trkpt>
      <trkpt lat="48.19256" lon="5.38436">
        <ele>374.3</ele>
        <time>2024-12-23T21:44:47.577Z</time>
      </trkpt>
      <trkpt lat="48.19284" lon="5.38441">
        <ele>373.9</ele>
        <time>2024-12-23T21:44:51.412Z</time>
      </trkpt>
      <trkpt lat="48.19313" lon="5.38446">
        <ele>373.6</ele>
        <time>2024-12-23T21:44:55.252Z</time>
      </trkpt>
      <trkpt lat="48.19342" lon="5.3845">
        <ele>373.36</ele>
        <time>2024-12-23T21:44:59.096Z</time>
      </trkpt>
      <trkpt lat="48.19365" lon="5.38451">
        <ele>373.16</ele>
        <time>2024-12-23T21:45:02.944Z</time>
      </trkpt>
      <trkpt lat="48.19389" lon="5.38452">
        <ele>372.99</ele>
        <time>2024-12-23T21:45:06.796Z</time>
      </trkpt>
      <trkpt lat="48.19417" lon="5.38451">
        <ele>372.78</ele>
        <time>2024-12-23T21:45:10.652Z</time>
      </trkpt>
      <trkpt lat="48.19445" lon="5.3845">
        <ele>372.63</ele>
        <time>2024-12-23T21:45:14.513Z</time>
      </trkpt>
      <trkpt lat="48.19473" lon="5.38449">
        <ele>372.53</ele>
        <time>2024-12-23T21:45:18.378Z</time>
      </trkpt>
      <trkpt lat="48.195" lon="5.38448">
        <ele>372.53</ele>
        <time>2024-12-23T21:45:22.248Z</time>
      </trkpt>
      <trkpt lat="48.19528" lon="5.38447">
        <ele>372.63</ele>
        <time>2024-12-23T21:45:26.122Z</time>
      </trkpt>
      <trkpt lat="48.19556" lon="5.38446">
        <ele>372.79</ele>
        <time>2024-12-23T21:45:30.001Z</time>
      </trkpt>
      <trkpt lat="48.19584" lon="5.38445">
        <ele>372.78</ele>
        <time>2024-12-23T21:45:33.884Z</time>
      </trkpt>
      <trkpt lat="48.19612" lon="5.38444">
        <ele>372.69</ele>
        <time>2024-12-23T21:45:37.772Z</time>
      </trkpt>
      <trkpt lat="48.1964" lon="5.3844">
        <ele>372.65</ele>
        <time>2024-12-23T21:45:41.664Z</time>
      </trkpt>
      <trkpt lat="48.19668" lon="5.3842">
        <ele>372.7</ele>
        <time>2024-12-23T21:45:45.561Z</time>
      </trkpt>
      <trkpt lat="48.19688" lon="5.38399">
        <ele>372.82</ele>
        <time>2024-12-23T21:45:49.462Z</time>
      </trkpt>
      <trkpt lat="48.19709" lon="5.38377">
        <ele>372.91</ele>
        <time>2024-12-23T21:45:53.367Z</time>
      </trkpt>
      <trkpt lat="48.19732" lon="5.38351">
        <ele>373.01</ele>
        <time>2024-12-23T21:45:57.277Z</time>
      </trkpt>
      <trkpt lat="48.19756" lon="5.38325">
        <ele>373.11</ele>
        <time>2024-12-23T21:46:01.191Z</time>
      </trkpt>
      <trkpt lat="48.19779" lon="5.38299">
        <ele>373.2</ele>
        <time>2024-12-23T21:46:05.110Z</time>
      </trkpt>
      <trkpt lat="48.19803" lon="5.38273">
        <ele>373.3</ele>
        <time>2024-12-23T21:46:09.034Z</time>
      </trkpt>
      <trkpt lat="48.19827" lon="5.38247">
        <ele>373.33</ele>
        <time>2024-12-23T21:46:12.963Z</time>
      </trkpt>
      <trkpt lat="48.1985" lon="5.38221">
        <ele>373.44</ele>
        <time>2024-12-23T21:46:16.896Z</time>
      </trkpt>
      <trkpt lat="48.19874" lon="5.38195">
        <ele>373.59</ele>
        <time>2024-12-23T21:46:20.834Z</time>
      </trkpt>
      <trkpt lat="48.19898" lon="5.38169">
        <ele>373.73</ele>
        <time>2024-12-23T21:46:24.777Z</time>
      </trkpt>
      <trkpt lat="48.19921" lon="5.38143">
        <ele>373.8</ele>
        <time>2024-12-23T21:46:28.724Z</time>
      </trkpt>
      <trkpt lat="48.19942" lon="5.38115">
        <ele>373.82</ele>
        <time>2024-12-23T21:46:32.676Z</time>
      </trkpt>
      <trkpt lat="48.19963" lon="5.38087">
        <ele>373.88</ele>
        <time>2024-12-23T21:46:36.632Z</time>
      </trkpt>
      <trkpt lat="48.19984" lon="5.38059">
        <ele>373.92</ele>
        <time>2024-12-23T21:46:40.593Z</time>
      </trkpt>
      <trkpt lat="48.20005" lon="5.38031">
        <ele>373.93</ele>
        <time>2024-12-23T21:46:44.558Z</time>
      </trkpt>
      <trkpt lat="48.20026" lon="5.38002">
        <ele>373.89</ele>
        <time>2024-12-23T21:46:48.528Z</time>
      </trkpt>
      <trkpt lat="48.20047" lon="5.37974">
        <ele>373.75</ele>
        <time>2024-12-23T21:46:52.502Z</time>
      </trkpt>
      <trkpt lat="48.20068" lon="5.37946">
        <ele>373.6</ele>
        <time>2024-12-23T21:46:56.481Z</time>
      </trkpt>
      <trkpt lat="48.20088" lon="5.37918">
        <ele>373.45</ele>
        <time>2024-12-23T21:47:00.464Z</time>
      </trkpt>
      <trkpt lat="48.20108" lon="5.37884">
        <ele>373.29</ele>
        <time>2024-12-23T21:47:04.452Z</time>
      </trkpt>
      <trkpt lat="48.20124" lon="5.37849">
        <ele>373.07</ele>
        <time>2024-12-23T21:47:08.445Z</time>
      </trkpt>
      <trkpt lat="48.2014" lon="5.37815">
        <ele>372.75</ele>
        <time>2024-12-23T21:47:12.442Z</time>
      </trkpt>
      <trkpt lat="48.20156" lon="5.37781">
        <ele>372.43</ele>
        <time>2024-12-23T21:47:16.444Z</time>
      </trkpt>
      <trkpt lat="48.20172" lon="5.37746">
        <ele>372.1</ele>
        <time>2024-12-23T21:47:20.450Z</time>
      </trkpt>
      <trkpt lat="48.20181" lon="5.37719">
        <ele>371.71</ele>
        <time>2024-12-23T21:47:24.459Z</time>
      </trkpt>
      <trkpt lat="48.20184" lon="5.37687">
        <ele>371.2</ele>
        <time>2024-12-23T21:47:28.472Z</time>
      </trkpt>
      <trkpt lat="48.20187" lon="5.37656">
        <ele>370.56</ele>
        <time>2024-12-23T21:47:32.488Z</time>
      </trkpt>
      <trkpt lat="48.20189" lon="5.37652">
        <ele>369.89</ele>
        <time>2024-12-23T21:47:36.505Z</time>
      </trkpt>
      <trkpt lat="48.20214" lon="5.37662">
        <ele>369.08</ele>
        <time>2024-12-23T21:47:40.526Z</time>
      </trkpt>
      <trkpt lat="48.20238" lon="5.37672">
        <ele>368.2</ele>
        <time>2024-12-23T21:47:44.551Z</time>
      </trkpt>
      <trkpt lat="48.20262" lon="5.37682">
        <ele>367.15</ele>
        <time>2024-12-23T21:47:48.580Z</time>
      </trkpt>
      <trkpt lat="48.2028" lon="5.37682">
        <ele>366.05</ele>
        <time>2024-12-23T21:47:52.612Z</time>
      </trkpt>
      <trkpt lat="48.20299" lon="5.37682">
        <ele>364.85</ele>
        <time>2024-12-23T21:47:56.647Z</time>
      </trkpt>
      <trkpt lat="48.20315" lon="5.37678">
        <ele>363.59</ele>
        <time>2024-12-23T21:48:00.684Z</time>
      </trkpt>
      <trkpt lat="48.20331" lon="5.37673">
        <ele>362.26</ele>
        <time>2024-12-23T21:48:04.724Z</time>
      </trkpt>
      <trkpt lat="48.20354" lon="5.37673">
        <ele>360.87</ele>
        <time>2024-12-23T21:48:08.768Z</time>
      </trkpt>
      <trkpt lat="48.20382" lon="5.37686">
        <ele>359.25</ele>
        <time>2024-12-23T21:48:12.816Z</time>
      </trkpt>
      <trkpt lat="48.2041" lon="5.37699">
        <ele>357.53</ele>
        <time>2024-12-23T21:48:16.869Z</time>
      </trkpt>
      <trkpt lat="48.20438" lon="5.37711">
        <ele>355.72</ele>
        <time>2024-12-23T21:48:20.927Z</time>
      </trkpt>
      <trkpt lat="48.20466" lon="5.37724">
        <ele>353.74</ele>
        <time>2024-12-23T21:48:24.989Z</time>
      </trkpt>
      <trkpt lat="48.20494" lon="5.37736">
        <ele>351.53</ele>
        <time>2024-12-23T21:48:29.056Z</time>
      </trkpt>
      <trkpt lat="48.20522" lon="5.37749">
        <ele>349.21</ele>
        <time>2024-12-23T21:48:33.128Z</time>
      </trkpt>
      <trkpt lat="48.2055" lon="5.37762">
        <ele>346.81</ele>
        <time>2024-12-23T21:48:37.204Z</time>
      </trkpt>
      <trkpt lat="48.20578" lon="5.37774">
        <ele>344.33</ele>
        <time>2024-12-23T21:48:41.285Z</time>
      </trkpt>
      <trkpt lat="48.20592" lon="5.37787">
        <ele>341.74</ele>
        <time>2024-12-23T21:48:45.369Z</time>
      </trkpt>
      <trkpt lat="48.20606" lon="5.378">
        <ele>339.08</ele>
        <time>2024-12-23T21:48:49.455Z</time>
      </trkpt>
      <trkpt lat="48.20618" lon="5.37823">
        <ele>336.21</ele>
        <time>2024-12-23T21:48:53.544Z</time>
      </trkpt>
      <trkpt lat="48.20631" lon="5.37845">
        <ele>333.32</ele>
        <time>2024-12-23T21:48:57.637Z</time>
      </trkpt>
      <trkpt lat="48.20649" lon="5.37882">
        <ele>330.37</ele>
        <time>2024-12-23T21:49:01.734Z</time>
      </trkpt>
      <trkpt lat="48.20667" lon="5.37919">
        <ele>327.48</ele>
        <time>2024-12-23T21:49:05.836Z</time>
      </trkpt>
      <trkpt lat="48.20684" lon="5.37956">
        <ele>324.69</ele>
        <time>2024-12-23T21:49:09.943Z</time>
      </trkpt>
      <trkpt lat="48.20702" lon="5.37993">
        <ele>321.97</ele>
        <time>2024-12-23T21:49:14.055Z</time>
      </trkpt>
      <trkpt lat="48.20721" lon="5.3803">
        <ele>319.17</ele>
        <time>2024-12-23T21:49:18.172Z</time>
      </trkpt>
      <trkpt lat="48.20739" lon="5.38066">
        <ele>316.49</ele>
        <time>2024-12-23T21:49:22.294Z</time>
      </trkpt>
      <trkpt lat="48.20758" lon="5.38103">
        <ele>313.83</ele>
        <time>2024-12-23T21:49:26.421Z</time>
      </trkpt>
      <trkpt lat="48.20771" lon="5.38125">
        <ele>311.45</ele>
        <time>2024-12-23T21:49:30.551Z</time>
      </trkpt>
      <trkpt lat="48.20784" lon="5.38148">
        <ele>309.29</ele>
        <time>2024-12-23T21:49:34.684Z</time>
      </trkpt>
      <trkpt lat="48.20798" lon="5.38162">
        <ele>307.41</ele>
        <time>2024-12-23T21:49:38.820Z</time>
      </trkpt>
      <trkpt lat="48.20812" lon="5.38176">
        <ele>305.75</ele>
        <time>2024-12-23T21:49:42.959Z</time>
      </trkpt>
      <trkpt lat="48.20827" lon="5.38195">
        <ele>304.28</ele>
        <time>2024-12-23T21:49:47.101Z</time>
      </trkpt>
      <trkpt lat="48.20827" lon="5.38236">
        <ele>303.01</ele>
        <time>2024-12-23T21:49:51.247Z</time>
      </trkpt>
      <trkpt lat="48.20827" lon="5.38241">
        <ele>302.15</ele>
        <time>2024-12-23T21:49:55.394Z</time>
      </trkpt>
      <trkpt lat="48.20827" lon="5.38241">
        <ele>301.56</ele>
        <time>2024-12-23T21:49:59.541Z</time>
      </trkpt>
      <trkpt lat="48.20827" lon="5.38241">
        <ele>301.24</ele>
        <time>2024-12-23T21:50:03.688Z</time>
      </trkpt>
      <trkpt lat="48.20827" lon="5.38236">
        <ele>303.01</ele>
        <time>2024-12-23T21:50:07.835Z</time>
      </trkpt>
      <trkpt lat="48.20827" lon="5.38195">
        <ele>304.28</ele>
        <time>2024-12-23T21:50:11.987Z</time>
      </trkpt>
      <trkpt lat="48.20835" lon="5.38152">
        <ele>302.42</ele>
        <time>2024-12-23T21:50:16.143Z</time>
      </trkpt>
      <trkpt lat="48.2086" lon="5.38138">
        <ele>303.29</ele>
        <time>2024-12-23T21:50:20.304Z</time>
      </trkpt>
      <trkpt lat="48.20884" lon="5.38124">
        <ele>304.23</ele>
        <time>2024-12-23T21:50:24.469Z</time>
      </trkpt>
      <trkpt lat="48.20903" lon="5.38103">
        <ele>305.4</ele>
        <time>2024-12-23T21:50:28.638Z</time>
      </trkpt>
      <trkpt lat="48.20922" lon="5.38083">
        <ele>306.76</ele>
        <time>2024-12-23T21:50:32.810Z</time>
      </trkpt>
      <trkpt lat="48.2094" lon="5.38062">
        <ele>308.4</ele>
        <time>2024-12-23T21:50:36.986Z</time>
      </trkpt>
      <trkpt lat="48.20965" lon="5.38035">
        <ele>310.4</ele>
        <time>2024-12-23T21:50:41.167Z</time>
      </trkpt>
      <trkpt lat="48.2099" lon="5.38008">
        <ele>312.38</ele>
        <time>2024-12-23T21:50:45.353Z</time>
      </trkpt>
      <trkpt lat="48.21008" lon="5.37992">
        <ele>314.56</ele>
        <time>2024-12-23T21:50:49.542Z</time>
      </trkpt>
      <trkpt lat="48.21026" lon="5.37976">
        <ele>316.83</ele>
        <time>2024-12-23T21:50:53.735Z</time>
      </trkpt>
      <trkpt lat="48.2105" lon="5.37961">
        <ele>319.34</ele>
        <time>2024-12-23T21:50:57.932Z</time>
      </trkpt>
      <trkpt lat="48.21073" lon="5.37946">
        <ele>321.99</ele>
        <time>2024-12-23T21:51:02.133Z</time>
      </trkpt>
      <trkpt lat="48.21095" lon="5.37922">
        <ele>324.89</ele>
        <time>2024-12-23T21:51:06.338Z</time>
      </trkpt>
      <trkpt lat="48.21108" lon="5.37892">
        <ele>327.71</ele>
        <time>2024-12-23T21:51:10.547Z</time>
      </trkpt>
      <trkpt lat="48.21117" lon="5.37853">
        <ele>330.5</ele>
        <time>2024-12-23T21:51:14.760Z</time>
      </trkpt>
      <trkpt lat="48.21127" lon="5.37813">
        <ele>333.27</ele>
        <time>2024-12-23T21:51:18.978Z</time>
      </trkpt>
      <trkpt lat="48.21127" lon="5.3777">
        <ele>336.17</ele>
        <time>2024-12-23T21:51:23.200Z</time>
      </trkpt>
      <trkpt lat="48.21117" lon="5.37742">
        <ele>338.96</ele>
        <time>2024-12-23T21:51:27.426Z</time>
      </trkpt>
      <trkpt lat="48.21108" lon="5.37714">
        <ele>341.65</ele>
        <time>2024-12-23T21:51:31.655Z</time>
      </trkpt>
      <trkpt lat="48.21096" lon="5.37694">
        <ele>344.3</ele>
        <time>2024-12-23T21:51:35.887Z</time>
      </trkpt>
      <trkpt lat="48.21084" lon="5.37673">
        <ele>346.82</ele>
        <time>2024-12-23T21:51:40.122Z</time>
      </trkpt>
      <trkpt lat="48.21068" lon="5.37657">
        <ele>349.2</ele>
        <time>2024-12-23T21:51:44.360Z</time>
      </trkpt>
      <trkpt lat="48.21052" lon="5.37641">
        <ele>351.44</ele>
        <time>2024-12-23T21:51:48.601Z</time>
      </trkpt>
      <trkpt lat="48.21028" lon="5.37625">
        <ele>353.67</ele>
        <time>2024-12-23T21:51:52.846Z</time>
      </trkpt>
      <trkpt lat="48.21005" lon="5.37608">
        <ele>355.85</ele>
        <time>2024-12-23T21:51:57.096Z</time>
      </trkpt>
      <trkpt lat="48.20981" lon="5.37591">
        <ele>357.85</ele>
        <time>2024-12-23T21:52:01.350Z</time>
      </trkpt>
      <trkpt lat="48.20957" lon="5.37574">
        <ele>359.67</ele>
        <time>2024-12-23T21:52:05.608Z</time>
      </trkpt>
      <trkpt lat="48.20934" lon="5.37558">
        <ele>361.34</ele>
        <time>2024-12-23T21:52:09.870Z</time>
      </trkpt>
      <trkpt lat="48.2092" lon="5.37544">
        <ele>362.82</ele>
        <time>2024-12-23T21:52:14.135Z</time>
      </trkpt>
      <trkpt lat="48.20906" lon="5.3753">
        <ele>364.18</ele>
        <time>2024-12-23T21:52:18.402Z</time>
      </trkpt>
      <trkpt lat="48.20889" lon="5.37495">
        <ele>365.47</ele>
        <time>2024-12-23T21:52:22.674Z</time>
      </trkpt>
      <trkpt lat="48.20884" lon="5.37472">
        <ele>366.61</ele>
        <time>2024-12-23T21:52:26.949Z</time>
      </trkpt>
      <trkpt lat="48.2088" lon="5.37448">
        <ele>367.62</ele>
        <time>2024-12-23T21:52:31.226Z</time>
      </trkpt>
      <trkpt lat="48.20891" lon="5.37408">
        <ele>368.55</ele>
        <time>2024-12-23T21:52:35.508Z</time>
      </trkpt>
      <trkpt lat="48.20902" lon="5.37368">
        <ele>369.38</ele>
        <time>2024-12-23T21:52:39.795Z</time>
      </trkpt>
      <trkpt lat="48.20912" lon="5.37328">
        <ele>370.11</ele>
        <time>2024-12-23T21:52:44.086Z</time>
      </trkpt>
      <trkpt lat="48.20912" lon="5.37328">
        <ele>370.71</ele>
        <time>2024-12-23T21:52:48.377Z</time>
      </trkpt>
      <trkpt lat="48.20924" lon="5.37287">
        <ele>371.22</ele>
        <time>2024-12-23T21:52:52.673Z</time>
      </trkpt>
      <trkpt lat="48.20936" lon="5.37246">
        <ele>371.7</ele>
        <time>2024-12-23T21:52:56.974Z</time>
      </trkpt>
      <trkpt lat="48.20948" lon="5.37205">
        <ele>372</ele>
        <time>2024-12-23T21:53:01.279Z</time>
      </trkpt>
      <trkpt lat="48.2096" lon="5.37165">
        <ele>372.15</ele>
        <time>2024-12-23T21:53:05.589Z</time>
      </trkpt>
      <trkpt lat="48.20972" lon="5.37124">
        <ele>372.34</ele>
        <time>2024-12-23T21:53:09.904Z</time>
      </trkpt>
      <trkpt lat="48.20984" lon="5.37083">
        <ele>372.6</ele>
        <time>2024-12-23T21:53:14.224Z</time>
      </trkpt>
      <trkpt lat="48.20996" lon="5.37042">
        <ele>372.82</ele>
        <time>2024-12-23T21:53:18.549Z</time>
      </trkpt>
      <trkpt lat="48.21008" lon="5.37001">
        <ele>372.96</ele>
        <time>2024-12-23T21:53:22.878Z</time>
      </trkpt>
      <trkpt lat="48.2102" lon="5.3696">
        <ele>373.05</ele>
        <time>2024-12-23T21:53:27.212Z</time>
      </trkpt>
      <trkpt lat="48.21031" lon="5.36919">
        <ele>373.07</ele>
        <time>2024-12-23T21:53:31.551Z</time>
      </trkpt>
      <trkpt lat="48.21043" lon="5.36879">
        <ele>373.05</ele>
        <time>2024-12-23T21:53:35.895Z</time>
      </trkpt>
      <trkpt lat="48.21055" lon="5.36838">
        <ele>373</ele>
        <time>2024-12-23T21:53:40.243Z</time>
      </trkpt>
      <trkpt lat="48.21067" lon="5.36798">
        <ele>372.89</ele>
        <time>2024-12-23T21:53:44.596Z</time>
      </trkpt>
      <trkpt lat="48.21074" lon="5.36775">
        <ele>372.74</ele>
        <time>2024-12-23T21:53:48.952Z</time>
      </trkpt>
      <trkpt lat="48.21082" lon="5.36753">
        <ele>372.55</ele>
        <time>2024-12-23T21:53:53.310Z</time>
      </trkpt>
      <trkpt lat="48.21092" lon="5.36733">
        <ele>372.34</ele>
        <time>2024-12-23T21:53:57.671Z</time>
      </trkpt>
      <trkpt lat="48.21101" lon="5.36712">
        <ele>372.06</ele>
        <time>2024-12-23T21:54:02.035Z</time>
      </trkpt>
      <trkpt lat="48.2112" lon="5.36677">
        <ele>371.84</ele>
        <time>2024-12-23T21:54:06.404Z</time>
      </trkpt>
      <trkpt lat="48.21139" lon="5.36642">
        <ele>371.46</ele>
        <time>2024-12-23T21:54:10.777Z</time>
      </trkpt>
      <trkpt lat="48.21159" lon="5.36608">
        <ele>370.95</ele>
        <time>2024-12-23T21:54:15.155Z</time>
      </trkpt>
      <trkpt lat="48.21178" lon="5.36573">
        <ele>370.45</ele>
        <time>2024-12-23T21:54:19.538Z</time>
      </trkpt>
      <trkpt lat="48.21197" lon="5.36538">
        <ele>370.04</ele>
        <time>2024-12-23T21:54:23.926Z</time>
      </trkpt>
      <trkpt lat="48.21216" lon="5.36503">
        <ele>369.72</ele>
        <time>2024-12-23T21:54:28.319Z</time>
      </trkpt>
      <trkpt lat="48.21235" lon="5.36468">
        <ele>369.43</ele>
        <time>2024-12-23T21:54:32.717Z</time>
      </trkpt>
      <trkpt lat="48.21254" lon="5.36433">
        <ele>369.14</ele>
        <time>2024-12-23T21:54:37.119Z</time>
      </trkpt>
      <trkpt lat="48.21273" lon="5.36398">
        <ele>368.82</ele>
        <time>2024-12-23T21:54:41.526Z</time>
      </trkpt>
      <trkpt lat="48.21293" lon="5.36363">
        <ele>368.53</ele>
        <time>2024-12-23T21:54:45.938Z</time>
      </trkpt>
      <trkpt lat="48.21312" lon="5.36329">
        <ele>368.17</ele>
        <time>2024-12-23T21:54:50.355Z</time>
      </trkpt>
      <trkpt lat="48.21331" lon="5.36294">
        <ele>367.88</ele>
        <time>2024-12-23T21:54:54.777Z</time>
      </trkpt>
      <trkpt lat="48.2135" lon="5.36259">
        <ele>367.64</ele>
        <time>2024-12-23T21:54:59.204Z</time>
      </trkpt>
      <trkpt lat="48.21369" lon="5.36224">
        <ele>367.57</ele>
        <time>2024-12-23T21:55:03.635Z</time>
      </trkpt>
      <trkpt lat="48.21388" lon="5.36189">
        <ele>367.5</ele>
        <time>2024-12-23T21:55:08.071Z</time>
      </trkpt>
      <trkpt lat="48.21408" lon="5.36154">
        <ele>367.49</ele>
        <time>2024-12-23T21:55:12.512Z</time>
      </trkpt>
      <trkpt lat="48.21427" lon="5.36119">
        <ele>367.65</ele>
        <time>2024-12-23T21:55:16.958Z</time>
      </trkpt>
      <trkpt lat="48.21446" lon="5.36085">
        <ele>367.98</ele>
        <time>2024-12-23T21:55:21.409Z</time>
      </trkpt>
      <trkpt lat="48.21465" lon="5.3605">
        <ele>368.24</ele>
        <time>2024-12-23T21:55:25.865Z</time>
      </trkpt>
      <trkpt lat="48.21484" lon="5.36015">
        <ele>368.44</ele>
        <time>2024-12-23T21:55:30.325Z</time>
      </trkpt>
      <trkpt lat="48.21503" lon="5.3598">
        <ele>368.63</ele>
        <time>2024-12-23T21:55:34.790Z</time>
      </trkpt>
      <trkpt lat="48.21522" lon="5.35946">
        <ele>368.93</ele>
        <time>2024-12-23T21:55:39.260Z</time>
      </trkpt>
      <trkpt lat="48.21542" lon="5.35919">
        <ele>369.28</ele>
        <time>2024-12-23T21:55:43.734Z</time>
      </trkpt>
      <trkpt lat="48.21562" lon="5.35892">
        <ele>369.67</ele>
        <time>2024-12-23T21:55:48.213Z</time>
      </trkpt>
      <trkpt lat="48.21582" lon="5.35865">
        <ele>370.03</ele>
        <time>2024-12-23T21:55:52.696Z</time>
      </trkpt>
      <trkpt lat="48.21605" lon="5.35842">
        <ele>370.31</ele>
        <time>2024-12-23T21:55:57.183Z</time>
      </trkpt>
      <trkpt lat="48.21628" lon="5.35819">
        <ele>370.56</ele>
        <time>2024-12-23T21:56:01.675Z</time>
      </trkpt>
      <trkpt lat="48.21651" lon="5.35797">
        <ele>370.71</ele>
        <time>2024-12-23T21:56:06.171Z</time>
      </trkpt>
      <trkpt lat="48.21674" lon="5.35774">
        <ele>370.9</ele>
        <time>2024-12-23T21:56:10.671Z</time>
      </trkpt>
      <trkpt lat="48.21699" lon="5.35748">
        <ele>370.97</ele>
        <time>2024-12-23T21:56:15.176Z</time>
      </trkpt>
      <trkpt lat="48.21724" lon="5.35722">
        <ele>371.01</ele>
        <time>2024-12-23T21:56:19.686Z</time>
      </trkpt>
      <trkpt lat="48.2175" lon="5.35695">
        <ele>371.04</ele>
        <time>2024-12-23T21:56:24.201Z</time>
      </trkpt>
      <trkpt lat="48.21775" lon="5.35669">
        <ele>370.94</ele>
        <time>2024-12-23T21:56:28.721Z</time>
      </trkpt>
      <trkpt lat="48.218" lon="5.35643">
        <ele>370.78</ele>
        <time>2024-12-23T21:56:33.246Z</time>
      </trkpt>
      <trkpt lat="48.21825" lon="5.35616">
        <ele>370.7</ele>
        <time>2024-12-23T21:56:37.776Z</time>
      </trkpt>
      <trkpt lat="48.2185" lon="5.3559">
        <ele>370.58</ele>
        <time>2024-12-23T21:56:42.311Z</time>
      </trkpt>
      <trkpt lat="48.21874" lon="5.35569">
        <ele>370.4</ele>
        <time>2024-12-23T21:56:46.850Z</time>
      </trkpt>
      <trkpt lat="48.21899" lon="5.35548">
        <ele>370.23</ele>
        <time>2024-12-23T21:56:51.394Z</time>
      </trkpt>
      <trkpt lat="48.21923" lon="5.35527">
        <ele>370.04</ele>
        <time>2024-12-23T21:56:55.942Z</time>
      </trkpt>
      <trkpt lat="48.21947" lon="5.35505">
        <ele>369.81</ele>
        <time>2024-12-23T21:57:00.495Z</time>
      </trkpt>
      <trkpt lat="48.21972" lon="5.35484">
        <ele>369.53</ele>
        <time>2024-12-23T21:57:05.052Z</time>
      </trkpt>
      <trkpt lat="48.21996" lon="5.35463">
        <ele>369.19</ele>
        <time>2024-12-23T21:57:09.614Z</time>
      </trkpt>
      <trkpt lat="48.22017" lon="5.3544">
        <ele>368.84</ele>
        <time>2024-12-23T21:57:14.180Z</time>
      </trkpt>
      <trkpt lat="48.22037" lon="5.35418">
        <ele>368.46</ele>
        <time>2024-12-23T21:57:18.750Z</time>
      </trkpt>
      <trkpt lat="48.22058" lon="5.35395">
        <ele>368.02</ele>
        <time>2024-12-23T21:57:23.324Z</time>
      </trkpt>
      <trkpt lat="48.22083" lon="5.35368">
        <ele>367.61</ele>
        <time>2024-12-23T21:57:27.903Z</time>
      </trkpt>
      <trkpt lat="48.22108" lon="5.35341">
        <ele>367.17</ele>
        <time>2024-12-23T21:57:32.487Z</time>
      </trkpt>
      <trkpt lat="48.22133" lon="5.35315">
        <ele>366.63</ele>
        <time>2024-12-23T21:57:37.076Z</time>
      </trkpt>
      <trkpt lat="48.22158" lon="5.35288">
        <ele>366.04</ele>
        <time>2024-12-23T21:57:41.670Z</time>
      </trkpt>
      <trkpt lat="48.22183" lon="5.35262">
        <ele>365.32</ele>
        <time>2024-12-23T21:57:46.269Z</time>
      </trkpt>
      <trkpt lat="48.22204" lon="5.35233">
        <ele>364.58</ele>
        <time>2024-12-23T21:57:50.872Z</time>
      </trkpt>
      <trkpt lat="48.22226" lon="5.35204">
        <ele>363.86</ele>
        <time>2024-12-23T21:57:55.480Z</time>
      </trkpt>
      <trkpt lat="48.22245" lon="5.35182">
        <ele>363.11</ele>
        <time>2024-12-23T21:58:00.092Z</time>
      </trkpt>
      <trkpt lat="48.22264" lon="5.35159">
        <ele>362.32</ele>
        <time>2024-12-23T21:58:04.708Z</time>
      </trkpt>
      <trkpt lat="48.22284" lon="5.35137">
        <ele>361.48</ele>
        <time>2024-12-23T21:58:09.328Z</time>
      </trkpt>
      <trkpt lat="48.22305" lon="5.35119">
        <ele>360.56</ele>
        <time>2024-12-23T21:58:13.952Z</time>
      </trkpt>
      <trkpt lat="48.22326" lon="5.35101">
        <ele>359.67</ele>
        <time>2024-12-23T21:58:18.580Z</time>
      </trkpt>
      <trkpt lat="48.22351" lon="5.35083">
        <ele>358.77</ele>
        <time>2024-12-23T21:58:23.212Z</time>
      </trkpt>
      <trkpt lat="48.22375" lon="5.35065">
        <ele>357.85</ele>
        <time>2024-12-23T21:58:27.848Z</time>
      </trkpt>
      <trkpt lat="48.22399" lon="5.35047">
        <ele>356.93</ele>
        <time>2024-12-23T21:58:32.489Z</time>
      </trkpt>
      <trkpt lat="48.22423" lon="5.35027">
        <ele>356</ele>
        <time>2024-12-23T21:58:37.134Z</time>
      </trkpt>
      <trkpt lat="48.22447" lon="5.35006">
        <ele>355.07</ele>
        <time>2024-12-23T21:58:41.783Z</time>
      </trkpt>
      <trkpt lat="48.22472" lon="5.34988">
        <ele>354.12</ele>
        <time>2024-12-23T21:58:46.437Z</time>
      </trkpt>
      <trkpt lat="48.22497" lon="5.34969">
        <ele>353.14</ele>
        <time>2024-12-23T21:58:51.095Z</time>
      </trkpt>
      <trkpt lat="48.22522" lon="5.3495">
        <ele>352.34</ele>
        <time>2024-12-23T21:58:55.758Z</time>
      </trkpt>
      <trkpt lat="48.22547" lon="5.34932">
        <ele>351.53</ele>
        <time>2024-12-23T21:59:00.425Z</time>
      </trkpt>
      <trkpt lat="48.22572" lon="5.34913">
        <ele>350.67</ele>
        <time>2024-12-23T21:59:05.097Z</time>
      </trkpt>
      <trkpt lat="48.22597" lon="5.34895">
        <ele>349.84</ele>
        <time>2024-12-23T21:59:09.773Z</time>
      </trkpt>
      <trkpt lat="48.2262" lon="5.3487">
        <ele>348.99</ele>
        <time>2024-12-23T21:59:14.454Z</time>
      </trkpt>
      <trkpt lat="48.22643" lon="5.34845">
        <ele>348.14</ele>
        <time>2024-12-23T21:59:19.139Z</time>
      </trkpt>
      <trkpt lat="48.22667" lon="5.34821">
        <ele>347.21</ele>
        <time>2024-12-23T21:59:23.829Z</time>
      </trkpt>
      <trkpt lat="48.2269" lon="5.34796">
        <ele>346.23</ele>
        <time>2024-12-23T21:59:28.523Z</time>
      </trkpt>
      <trkpt lat="48.22713" lon="5.34771">
        <ele>345.4</ele>
        <time>2024-12-23T21:59:33.222Z</time>
      </trkpt>
      <trkpt lat="48.22736" lon="5.34747">
        <ele>344.61</ele>
        <time>2024-12-23T21:59:37.926Z</time>
      </trkpt>
      <trkpt lat="48.22736" lon="5.34747">
        <ele>343.83</ele>
        <time>2024-12-23T21:59:42.630Z</time>
      </trkpt>
      <trkpt lat="48.22757" lon="5.34724">
        <ele>343.05</ele>
        <time>2024-12-23T21:59:47.338Z</time>
      </trkpt>
      <trkpt lat="48.22777" lon="5.34702">
        <ele>342.32</ele>
        <time>2024-12-23T21:59:52.050Z</time>
      </trkpt>
      <trkpt lat="48.22797" lon="5.34679">
        <ele>341.67</ele>
        <time>2024-12-23T21:59:56.766Z</time>
      </trkpt>
      <trkpt lat="48.22818" lon="5.34657">
        <ele>341</ele>
        <time>2024-12-23T22:00:01.486Z</time>
      </trkpt>
      <trkpt lat="48.22842" lon="5.34633">
        <ele>340.19</ele>
        <time>2024-12-23T22:00:06.210Z</time>
      </trkpt>
      <trkpt lat="48.22866" lon="5.3461">
        <ele>339.37</ele>
        <time>2024-12-23T22:00:10.939Z</time>
      </trkpt>
      <trkpt lat="48.2289" lon="5.34587">
        <ele>338.56</ele>
        <time>2024-12-23T22:00:15.673Z</time>
      </trkpt>
      <trkpt lat="48.22914" lon="5.34564">
        <ele>337.85</ele>
        <time>2024-12-23T22:00:20.411Z</time>
      </trkpt>
      <trkpt lat="48.22938" lon="5.34541">
        <ele>337.25</ele>
        <time>2024-12-23T22:00:25.154Z</time>
      </trkpt>
      <trkpt lat="48.22962" lon="5.34517">
        <ele>336.73</ele>
        <time>2024-12-23T22:00:29.901Z</time>
      </trkpt>
      <trkpt lat="48.22986" lon="5.34494">
        <ele>336.24</ele>
        <time>2024-12-23T22:00:34.653Z</time>
      </trkpt>
      <trkpt lat="48.2301" lon="5.34471">
        <ele>335.78</ele>
        <time>2024-12-23T22:00:39.409Z</time>
      </trkpt>
      <trkpt lat="48.23034" lon="5.34448">
        <ele>335.33</ele>
        <time>2024-12-23T22:00:44.170Z</time>
      </trkpt>
      <trkpt lat="48.23058" lon="5.34425">
        <ele>334.95</ele>
        <time>2024-12-23T22:00:48.936Z</time>
      </trkpt>
      <trkpt lat="48.23079" lon="5.34403">
        <ele>334.65</ele>
        <time>2024-12-23T22:00:53.706Z</time>
      </trkpt>
      <trkpt lat="48.231" lon="5.34382">
        <ele>334.39</ele>
        <time>2024-12-23T22:00:58.480Z</time>
      </trkpt>
      <trkpt lat="48.23121" lon="5.3436">
        <ele>334.08</ele>
        <time>2024-12-23T22:01:03.258Z</time>
      </trkpt>
      <trkpt lat="48.23142" lon="5.34339">
        <ele>333.85</ele>
        <time>2024-12-23T22:01:08.040Z</time>
      </trkpt>
      <trkpt lat="48.23163" lon="5.34317">
        <ele>333.66</ele>
        <time>2024-12-23T22:01:12.826Z</time>
      </trkpt>
      <trkpt lat="48.23188" lon="5.34298">
        <ele>333.43</ele>
        <time>2024-12-23T22:01:17.616Z</time>
      </trkpt>
      <trkpt lat="48.23213" lon="5.34279">
        <ele>333.28</ele>
        <time>2024-12-23T22:01:22.411Z</time>
      </trkpt>
      <trkpt lat="48.23241" lon="5.34263">
        <ele>333.28</ele>
        <time>2024-12-23T22:01:27.211Z</time>
      </trkpt>
      <trkpt lat="48.23268" lon="5.34246">
        <ele>333.26</ele>
        <time>2024-12-23T22:01:32.015Z</time>
      </trkpt>
      <trkpt lat="48.23296" lon="5.3423">
        <ele>333.18</ele>
        <time>2024-12-23T22:01:36.824Z</time>
      </trkpt>
      <trkpt lat="48.23324" lon="5.34214">
        <ele>333.06</ele>
        <time>2024-12-23T22:01:41.638Z</time>
      </trkpt>
      <trkpt lat="48.23352" lon="5.34197">
        <ele>333.01</ele>
        <time>2024-12-23T22:01:46.457Z</time>
      </trkpt>
      <trkpt lat="48.23382" lon="5.34191">
        <ele>333.08</ele>
        <time>2024-12-23T22:01:51.281Z</time>
      </trkpt>
      <trkpt lat="48.23412" lon="5.34184">
        <ele>333.21</ele>
        <time>2024-12-23T22:01:56.110Z</time>
      </trkpt>
      <trkpt lat="48.23426" lon="5.34169">
        <ele>333.2</ele>
        <time>2024-12-23T22:02:00.941Z</time>
      </trkpt>
      <trkpt lat="48.2344" lon="5.34154">
        <ele>333.24</ele>
        <time>2024-12-23T22:02:05.775Z</time>
      </trkpt>
      <trkpt lat="48.23461" lon="5.3412">
        <ele>333.27</ele>
        <time>2024-12-23T22:02:10.614Z</time>
      </trkpt>
      <trkpt lat="48.23481" lon="5.34086">
        <ele>333.34</ele>
        <time>2024-12-23T22:02:15.458Z</time>
      </trkpt>
      <trkpt lat="48.23502" lon="5.34051">
        <ele>333.41</ele>
        <time>2024-12-23T22:02:20.307Z</time>
      </trkpt>
      <trkpt lat="48.23522" lon="5.34017">
        <ele>333.52</ele>
        <time>2024-12-23T22:02:25.161Z</time>
      </trkpt>
      <trkpt lat="48.23543" lon="5.33983">
        <ele>333.71</ele>
        <time>2024-12-23T22:02:30.020Z</time>
      </trkpt>
      <trkpt lat="48.23563" lon="5.33948">
        <ele>333.94</ele>
        <time>2024-12-23T22:02:34.884Z</time>
      </trkpt>
      <trkpt lat="48.23584" lon="5.33914">
        <ele>334.03</ele>
        <time>2024-12-23T22:02:39.753Z</time>
      </trkpt>
      <trkpt lat="48.23604" lon="5.33879">
        <ele>333.97</ele>
        <time>2024-12-23T22:02:44.627Z</time>
      </trkpt>
      <trkpt lat="48.23625" lon="5.33845">
        <ele>333.85</ele>
        <time>2024-12-23T22:02:49.505Z</time>
      </trkpt>
      <trkpt lat="48.23645" lon="5.33811">
        <ele>333.76</ele>
        <time>2024-12-23T22:02:54.388Z</time>
      </trkpt>
      <trkpt lat="48.23666" lon="5.33776">
        <ele>333.7</ele>
        <time>2024-12-23T22:02:59.276Z</time>
      </trkpt>
      <trkpt lat="48.23686" lon="5.33742">
        <ele>333.71</ele>
        <time>2024-12-23T22:03:04.169Z</time>
      </trkpt>
      <trkpt lat="48.23707" lon="5.33708">
        <ele>333.64</ele>
        <time>2024-12-23T22:03:09.067Z</time>
      </trkpt>
      <trkpt lat="48.23728" lon="5.33673">
        <ele>333.38</ele>
        <time>2024-12-23T22:03:13.970Z</time>
      </trkpt>
      <trkpt lat="48.23748" lon="5.33639">
        <ele>332.96</ele>
        <time>2024-12-23T22:03:18.878Z</time>
      </trkpt>
      <trkpt lat="48.23769" lon="5.33604">
        <ele>332.38</ele>
        <time>2024-12-23T22:03:23.791Z</time>
      </trkpt>
      <trkpt lat="48.23789" lon="5.3357">
        <ele>331.63</ele>
        <time>2024-12-23T22:03:28.709Z</time>
      </trkpt>
      <trkpt lat="48.23809" lon="5.33536">
        <ele>330.89</ele>
        <time>2024-12-23T22:03:33.632Z</time>
      </trkpt>
      <trkpt lat="48.23829" lon="5.33501">
        <ele>330.16</ele>
        <time>2024-12-23T22:03:38.560Z</time>
      </trkpt>
      <trkpt lat="48.23849" lon="5.33466">
        <ele>329.34</ele>
        <time>2024-12-23T22:03:43.493Z</time>
      </trkpt>
      <trkpt lat="48.23869" lon="5.33431">
        <ele>328.35</ele>
        <time>2024-12-23T22:03:48.431Z</time>
      </trkpt>
      <trkpt lat="48.23889" lon="5.3341">
        <ele>327.36</ele>
        <time>2024-12-23T22:03:53.372Z</time>
      </trkpt>
      <trkpt lat="48.23914" lon="5.33391">
        <ele>326.24</ele>
        <time>2024-12-23T22:03:58.318Z</time>
      </trkpt>
      <trkpt lat="48.23944" lon="5.33378">
        <ele>325.08</ele>
        <time>2024-12-23T22:04:03.269Z</time>
      </trkpt>
      <trkpt lat="48.23974" lon="5.33366">
        <ele>323.79</ele>
        <time>2024-12-23T22:04:08.225Z</time>
      </trkpt>
      <trkpt lat="48.24004" lon="5.33353">
        <ele>322.36</ele>
        <time>2024-12-23T22:04:13.186Z</time>
      </trkpt>
      <trkpt lat="48.24033" lon="5.33341">
        <ele>320.9</ele>
        <time>2024-12-23T22:04:18.152Z</time>
      </trkpt>
      <trkpt lat="48.24063" lon="5.33329">
        <ele>319.4</ele>
        <time>2024-12-23T22:04:23.123Z</time>
      </trkpt>
      <trkpt lat="48.24093" lon="5.33316">
        <ele>317.79</ele>
        <time>2024-12-23T22:04:28.099Z</time>
      </trkpt>
      <trkpt lat="48.24123" lon="5.33304">
        <ele>316.14</ele>
        <time>2024-12-23T22:04:33.080Z</time>
      </trkpt>
      <trkpt lat="48.24153" lon="5.33291">
        <ele>314.41</ele>
        <time>2024-12-23T22:04:38.066Z</time>
      </trkpt>
      <trkpt lat="48.24182" lon="5.33279">
        <ele>312.64</ele>
        <time>2024-12-23T22:04:43.057Z</time>
      </trkpt>
      <trkpt lat="48.24212" lon="5.33267">
        <ele>310.93</ele>
        <time>2024-12-23T22:04:48.053Z</time>
      </trkpt>
      <trkpt lat="48.24242" lon="5.33254">
        <ele>309.15</ele>
        <time>2024-12-23T22:04:53.053Z</time>
      </trkpt>
      <trkpt lat="48.24272" lon="5.33242">
        <ele>307.31</ele>
        <time>2024-12-23T22:04:58.058Z</time>
      </trkpt>
      <trkpt lat="48.24302" lon="5.33229">
        <ele>305.47</ele>
        <time>2024-12-23T22:05:03.068Z</time>
      </trkpt>
      <trkpt lat="48.24331" lon="5.33217">
        <ele>303.69</ele>
        <time>2024-12-23T22:05:08.083Z</time>
      </trkpt>
      <trkpt lat="48.24361" lon="5.33205">
        <ele>301.92</ele>
        <time>2024-12-23T22:05:13.103Z</time>
      </trkpt>
      <trkpt lat="48.24391" lon="5.33192">
        <ele>300.11</ele>
        <time>2024-12-23T22:05:18.128Z</time>
      </trkpt>
      <trkpt lat="48.24421" lon="5.3318">
        <ele>298.26</ele>
        <time>2024-12-23T22:05:23.158Z</time>
      </trkpt>
      <trkpt lat="48.24451" lon="5.33167">
        <ele>296.45</ele>
        <time>2024-12-23T22:05:28.193Z</time>
      </trkpt>
      <trkpt lat="48.24476" lon="5.33152">
        <ele>294.69</ele>
        <time>2024-12-23T22:05:33.233Z</time>
      </trkpt>
      <trkpt lat="48.24489" lon="5.33133">
        <ele>292.95</ele>
        <time>2024-12-23T22:05:38.275Z</time>
      </trkpt>
      <trkpt lat="48.24502" lon="5.33092">
        <ele>291.27</ele>
        <time>2024-12-23T22:05:43.322Z</time>
      </trkpt>
      <trkpt lat="48.24515" lon="5.33051">
        <ele>289.61</ele>
        <time>2024-12-23T22:05:48.374Z</time>
      </trkpt>
      <trkpt lat="48.24528" lon="5.33011">
        <ele>287.99</ele>
        <time>2024-12-23T22:05:53.431Z</time>
      </trkpt>
      <trkpt lat="48.24537" lon="5.32978">
        <ele>286.47</ele>
        <time>2024-12-23T22:05:58.492Z</time>
      </trkpt>
      <trkpt lat="48.24547" lon="5.32945">
        <ele>285.04</ele>
        <time>2024-12-23T22:06:03.557Z</time>
      </trkpt>
      <trkpt lat="48.24556" lon="5.32912">
        <ele>283.65</ele>
        <time>2024-12-23T22:06:08.625Z</time>
      </trkpt>
      <trkpt lat="48.24564" lon="5.32866">
        <ele>282.28</ele>
        <time>2024-12-23T22:06:13.698Z</time>
      </trkpt>
      <trkpt lat="48.24572" lon="5.32821">
        <ele>280.92</ele>
        <time>2024-12-23T22:06:18.777Z</time>
      </trkpt>
      <trkpt lat="48.24581" lon="5.32775">
        <ele>279.51</ele>
        <time>2024-12-23T22:06:23.861Z</time>
      </trkpt>
      <trkpt lat="48.24589" lon="5.3273">
        <ele>278.21</ele>
        <time>2024-12-23T22:06:28.950Z</time>
      </trkpt>
      <trkpt lat="48.24597" lon="5.32684">
        <ele>277.04</ele>
        <time>2024-12-23T22:06:34.044Z</time>
      </trkpt>
      <trkpt lat="48.24605" lon="5.3264">
        <ele>275.93</ele>
        <time>2024-12-23T22:06:39.143Z</time>
      </trkpt>
      <trkpt lat="48.24618" lon="5.32598">
        <ele>274.86</ele>
        <time>2024-12-23T22:06:44.247Z</time>
      </trkpt>
      <trkpt lat="48.24631" lon="5.32556">
        <ele>273.86</ele>
        <time>2024-12-23T22:06:49.355Z</time>
      </trkpt>
      <trkpt lat="48.24648" lon="5.32524">
        <ele>272.97</ele>
        <time>2024-12-23T22:06:54.468Z</time>
      </trkpt>
      <trkpt lat="48.2467" lon="5.32494">
        <ele>272.13</ele>
        <time>2024-12-23T22:06:59.586Z</time>
      </trkpt>
      <trkpt lat="48.24691" lon="5.32464">
        <ele>271.35</ele>
        <time>2024-12-23T22:07:04.708Z</time>
      </trkpt>
      <trkpt lat="48.247" lon="5.32451">
        <ele>270.72</ele>
        <time>2024-12-23T22:07:09.832Z</time>
      </trkpt>
      <trkpt lat="48.24718" lon="5.32427">
        <ele>270.12</ele>
        <time>2024-12-23T22:07:14.960Z</time>
      </trkpt>
      <trkpt lat="48.24736" lon="5.32403">
        <ele>269.58</ele>
        <time>2024-12-23T22:07:20.092Z</time>
      </trkpt>
      <trkpt lat="48.24753" lon="5.32384">
        <ele>269.07</ele>
        <time>2024-12-23T22:07:25.227Z</time>
      </trkpt>
      <trkpt lat="48.24773" lon="5.32358">
        <ele>268.65</ele>
        <time>2024-12-23T22:07:30.367Z</time>
      </trkpt>
      <trkpt lat="48.24788" lon="5.32352">
        <ele>268.38</ele>
        <time>2024-12-23T22:07:35.509Z</time>
      </trkpt>
      <trkpt lat="48.24785" lon="5.32326">
        <ele>268.26</ele>
        <time>2024-12-23T22:07:40.654Z</time>
      </trkpt>
      <trkpt lat="48.24783" lon="5.323">
        <ele>268.2</ele>
        <time>2024-12-23T22:07:45.802Z</time>
      </trkpt>
      <trkpt lat="48.24778" lon="5.32275">
        <ele>268.25</ele>
        <time>2024-12-23T22:07:50.952Z</time>
      </trkpt>
      <trkpt lat="48.24773" lon="5.32249">
        <ele>268.37</ele>
        <time>2024-12-23T22:07:56.105Z</time>
      </trkpt>
      <trkpt lat="48.24768" lon="5.32219">
        <ele>268.59</ele>
        <time>2024-12-23T22:08:01.262Z</time>
      </trkpt>
      <trkpt lat="48.24761" lon="5.32183">
        <ele>268.89</ele>
        <time>2024-12-23T22:08:06.423Z</time>
      </trkpt>
      <trkpt lat="48.24753" lon="5.32147">
        <ele>269.18</ele>
        <time>2024-12-23T22:08:11.588Z</time>
      </trkpt>
      <trkpt lat="48.24746" lon="5.32111">
        <ele>269.45</ele>
        <time>2024-12-23T22:08:16.757Z</time>
      </trkpt>
      <trkpt lat="48.24738" lon="5.32075">
        <ele>269.67</ele>
        <time>2024-12-23T22:08:21.930Z</time>
      </trkpt>
      <trkpt lat="48.2473" lon="5.3204">
        <ele>269.95</ele>
        <time>2024-12-23T22:08:27.107Z</time>
      </trkpt>
      <trkpt lat="48.24722" lon="5.32004">
        <ele>270.23</ele>
        <time>2024-12-23T22:08:32.288Z</time>
      </trkpt>
      <trkpt lat="48.24714" lon="5.31969">
        <ele>270.56</ele>
        <time>2024-12-23T22:08:37.473Z</time>
      </trkpt>
      <trkpt lat="48.24706" lon="5.31934">
        <ele>270.82</ele>
        <time>2024-12-23T22:08:42.662Z</time>
      </trkpt>
      <trkpt lat="48.24699" lon="5.31908">
        <ele>271.1</ele>
        <time>2024-12-23T22:08:47.854Z</time>
      </trkpt>
      <trkpt lat="48.24691" lon="5.31882">
        <ele>271.36</ele>
        <time>2024-12-23T22:08:53.049Z</time>
      </trkpt>
      <trkpt lat="48.24681" lon="5.31838">
        <ele>271.69</ele>
        <time>2024-12-23T22:08:58.249Z</time>
      </trkpt>
      <trkpt lat="48.24671" lon="5.31795">
        <ele>272.01</ele>
        <time>2024-12-23T22:09:03.454Z</time>
      </trkpt>
      <trkpt lat="48.24661" lon="5.31751">
        <ele>272.33</ele>
        <time>2024-12-23T22:09:08.664Z</time>
      </trkpt>
      <trkpt lat="48.24653" lon="5.31714">
        <ele>272.63</ele>
        <time>2024-12-23T22:09:13.878Z</time>
      </trkpt>
      <trkpt lat="48.24646" lon="5.31676">
        <ele>272.9</ele>
        <time>2024-12-23T22:09:19.096Z</time>
      </trkpt>
      <trkpt lat="48.24638" lon="5.31638">
        <ele>273.13</ele>
        <time>2024-12-23T22:09:24.318Z</time>
      </trkpt>
      <trkpt lat="48.24631" lon="5.31601">
        <ele>273.47</ele>
        <time>2024-12-23T22:09:29.544Z</time>
      </trkpt>
      <trkpt lat="48.24623" lon="5.31564">
        <ele>273.79</ele>
        <time>2024-12-23T22:09:34.775Z</time>
      </trkpt>
      <trkpt lat="48.24615" lon="5.31526">
        <ele>274.02</ele>
        <time>2024-12-23T22:09:40.010Z</time>
      </trkpt>
      <trkpt lat="48.24606" lon="5.31489">
        <ele>274.22</ele>
        <time>2024-12-23T22:09:45.249Z</time>
      </trkpt>
      <trkpt lat="48.24598" lon="5.31451">
        <ele>274.4</ele>
        <time>2024-12-23T22:09:50.492Z</time>
      </trkpt>
      <trkpt lat="48.2459" lon="5.31414">
        <ele>274.57</ele>
        <time>2024-12-23T22:09:55.739Z</time>
      </trkpt>
      <trkpt lat="48.2458" lon="5.31376">
        <ele>274.72</ele>
        <time>2024-12-23T22:10:00.991Z</time>
      </trkpt>
      <trkpt lat="48.2457" lon="5.31337">
        <ele>274.84</ele>
        <time>2024-12-23T22:10:06.247Z</time>
      </trkpt>
      <trkpt lat="48.2456" lon="5.31298">
        <ele>274.9</ele>
        <time>2024-12-23T22:10:11.508Z</time>
      </trkpt>
      <trkpt lat="48.2455" lon="5.31254">
        <ele>275.01</ele>
        <time>2024-12-23T22:10:16.774Z</time>
      </trkpt>
      <trkpt lat="48.2454" lon="5.31209">
        <ele>275.01</ele>
        <time>2024-12-23T22:10:22.045Z</time>
      </trkpt>
      <trkpt lat="48.2453" lon="5.31165">
        <ele>275.02</ele>
        <time>2024-12-23T22:10:27.321Z</time>
      </trkpt>
      <trkpt lat="48.24526" lon="5.3114">
        <ele>274.99</ele>
        <time>2024-12-23T22:10:32.599Z</time>
      </trkpt>
      <trkpt lat="48.24516" lon="5.31098">
        <ele>274.97</ele>
        <time>2024-12-23T22:10:37.882Z</time>
      </trkpt>
      <trkpt lat="48.24506" lon="5.31056">
        <ele>274.94</ele>
        <time>2024-12-23T22:10:43.170Z</time>
      </trkpt>
      <trkpt lat="48.24496" lon="5.31015">
        <ele>274.8</ele>
        <time>2024-12-23T22:10:48.463Z</time>
      </trkpt>
      <trkpt lat="48.24496" lon="5.31015">
        <ele>274.72</ele>
        <time>2024-12-23T22:10:53.756Z</time>
      </trkpt>
      <trkpt lat="48.2448" lon="5.30976">
        <ele>274.62</ele>
        <time>2024-12-23T22:10:59.054Z</time>
      </trkpt>
      <trkpt lat="48.24464" lon="5.30938">
        <ele>274.52</ele>
        <time>2024-12-23T22:11:04.356Z</time>
      </trkpt>
      <trkpt lat="48.24449" lon="5.30906">
        <ele>274.42</ele>
        <time>2024-12-23T22:11:09.663Z</time>
      </trkpt>
      <trkpt lat="48.24434" lon="5.30874">
        <ele>274.32</ele>
        <time>2024-12-23T22:11:14.974Z</time>
      </trkpt>
      <trkpt lat="48.24421" lon="5.30843">
        <ele>274.15</ele>
        <time>2024-12-23T22:11:20.289Z</time>
      </trkpt>
      <trkpt lat="48.24414" lon="5.3082">
        <ele>273.93</ele>
        <time>2024-12-23T22:11:25.606Z</time>
      </trkpt>
      <trkpt lat="48.24414" lon="5.30794">
        <ele>273.63</ele>
        <time>2024-12-23T22:11:30.926Z</time>
      </trkpt>
      <trkpt lat="48.24406" lon="5.30786">
        <ele>273.39</ele>
        <time>2024-12-23T22:11:36.248Z</time>
      </trkpt>
      <trkpt lat="48.24397" lon="5.30768">
        <ele>273.11</ele>
        <time>2024-12-23T22:11:41.572Z</time>
      </trkpt>
      <trkpt lat="48.24385" lon="5.30731">
        <ele>272.83</ele>
        <time>2024-12-23T22:11:46.900Z</time>
      </trkpt>
      <trkpt lat="48.24373" lon="5.30695">
        <ele>272.54</ele>
        <time>2024-12-23T22:11:52.233Z</time>
      </trkpt>
      <trkpt lat="48.24362" lon="5.30658">
        <ele>272.27</ele>
        <time>2024-12-23T22:11:57.570Z</time>
      </trkpt>
      <trkpt lat="48.2435" lon="5.30621">
        <ele>271.94</ele>
        <time>2024-12-23T22:12:02.912Z</time>
      </trkpt>
      <trkpt lat="48.24338" lon="5.30584">
        <ele>271.56</ele>
        <time>2024-12-23T22:12:08.258Z</time>
      </trkpt>
      <trkpt lat="48.24326" lon="5.30547">
        <ele>271.1</ele>
        <time>2024-12-23T22:12:13.608Z</time>
      </trkpt>
      <trkpt lat="48.2431" lon="5.30509">
        <ele>270.61</ele>
        <time>2024-12-23T22:12:18.963Z</time>
      </trkpt>
      <trkpt lat="48.24293" lon="5.3047">
        <ele>270.07</ele>
        <time>2024-12-23T22:12:24.323Z</time>
      </trkpt>
      <trkpt lat="48.24277" lon="5.30432">
        <ele>269.54</ele>
        <time>2024-12-23T22:12:29.688Z</time>
      </trkpt>
      <trkpt lat="48.24273" lon="5.30453">
        <ele>269.13</ele>
        <time>2024-12-23T22:12:35.055Z</time>
      </trkpt>
      <trkpt lat="48.2426" lon="5.30474">
        <ele>268.7</ele>
        <time>2024-12-23T22:12:40.425Z</time>
      </trkpt>
      <trkpt lat="48.24239" lon="5.30504">
        <ele>268.3</ele>
        <time>2024-12-23T22:12:45.800Z</time>
      </trkpt>
      <trkpt lat="48.24219" lon="5.30533">
        <ele>267.9</ele>
        <time>2024-12-23T22:12:51.180Z</time>
      </trkpt>
      <trkpt lat="48.24198" lon="5.30563">
        <ele>267.58</ele>
        <time>2024-12-23T22:12:56.564Z</time>
      </trkpt>
      <trkpt lat="48.24178" lon="5.30592">
        <ele>267.21</ele>
        <time>2024-12-23T22:13:01.953Z</time>
      </trkpt>
      <trkpt lat="48.24157" lon="5.30621">
        <ele>266.83</ele>
        <time>2024-12-23T22:13:07.346Z</time>
      </trkpt>
      <trkpt lat="48.24137" lon="5.30651">
        <ele>266.5</ele>
        <time>2024-12-23T22:13:12.744Z</time>
      </trkpt>
      <trkpt lat="48.24116" lon="5.3068">
        <ele>266.16</ele>
        <time>2024-12-23T22:13:18.146Z</time>
      </trkpt>
      <trkpt lat="48.24096" lon="5.30709">
        <ele>265.87</ele>
        <time>2024-12-23T22:13:23.553Z</time>
      </trkpt>
      <trkpt lat="48.24075" lon="5.30738">
        <ele>265.56</ele>
        <time>2024-12-23T22:13:28.964Z</time>
      </trkpt>
      <trkpt lat="48.24053" lon="5.30764">
        <ele>265.28</ele>
        <time>2024-12-23T22:13:34.380Z</time>
      </trkpt>
      <trkpt lat="48.24031" lon="5.3079">
        <ele>264.97</ele>
        <time>2024-12-23T22:13:39.800Z</time>
      </trkpt>
      <trkpt lat="48.24008" lon="5.30816">
        <ele>264.69</ele>
        <time>2024-12-23T22:13:45.225Z</time>
      </trkpt>
      <trkpt lat="48.23986" lon="5.30841">
        <ele>264.5</ele>
        <time>2024-12-23T22:13:50.654Z</time>
      </trkpt>
      <trkpt lat="48.23964" lon="5.30867">
        <ele>264.55</ele>
        <time>2024-12-23T22:13:56.088Z</time>
      </trkpt>
      <trkpt lat="48.23951" lon="5.30886">
        <ele>264.6</ele>
        <time>2024-12-23T22:14:01.525Z</time>
      </trkpt>
      <trkpt lat="48.2394" lon="5.30916">
        <ele>264.74</ele>
        <time>2024-12-23T22:14:06.965Z</time>
      </trkpt>
      <trkpt lat="48.2393" lon="5.30951">
        <ele>264.76</ele>
        <time>2024-12-23T22:14:12.409Z</time>
      </trkpt>
      <trkpt lat="48.23919" lon="5.30986">
        <ele>264.81</ele>
        <time>2024-12-23T22:14:17.858Z</time>
      </trkpt>
      <trkpt lat="48.23909" lon="5.31021">
        <ele>264.89</ele>
        <time>2024-12-23T22:14:23.311Z</time>
      </trkpt>
      <trkpt lat="48.23899" lon="5.31056">
        <ele>264.93</ele>
        <time>2024-12-23T22:14:28.768Z</time>
      </trkpt>
      <trkpt lat="48.23889" lon="5.3109">
        <ele>264.96</ele>
        <time>2024-12-23T22:14:34.229Z</time>
      </trkpt>
      <trkpt lat="48.23878" lon="5.31134">
        <ele>265</ele>
        <time>2024-12-23T22:14:39.695Z</time>
      </trkpt>
      <trkpt lat="48.23868" lon="5.31178">
        <ele>265.14</ele>
        <time>2024-12-23T22:14:45.166Z</time>
      </trkpt>
      <trkpt lat="48.23858" lon="5.31221">
        <ele>265.26</ele>
        <time>2024-12-23T22:14:50.642Z</time>
      </trkpt>
      <trkpt lat="48.23849" lon="5.31251">
        <ele>265.37</ele>
        <time>2024-12-23T22:14:56.121Z</time>
      </trkpt>
      <trkpt lat="48.23839" lon="5.31281">
        <ele>265.45</ele>
        <time>2024-12-23T22:15:01.604Z</time>
      </trkpt>
      <trkpt lat="48.2382" lon="5.31307">
        <ele>265.38</ele>
        <time>2024-12-23T22:15:07.091Z</time>
      </trkpt>
      <trkpt lat="48.23798" lon="5.31325">
        <ele>265.32</ele>
        <time>2024-12-23T22:15:12.582Z</time>
      </trkpt>
      <trkpt lat="48.23776" lon="5.31343">
        <ele>265.25</ele>
        <time>2024-12-23T22:15:18.077Z</time>
      </trkpt>
      <trkpt lat="48.23753" lon="5.31361">
        <ele>265.15</ele>
        <time>2024-12-23T22:15:23.576Z</time>
      </trkpt>
      <trkpt lat="48.23725" lon="5.31378">
        <ele>264.92</ele>
        <time>2024-12-23T22:15:29.080Z</time>
      </trkpt>
      <trkpt lat="48.23696" lon="5.31386">
        <ele>264.71</ele>
        <time>2024-12-23T22:15:34.588Z</time>
      </trkpt>
      <trkpt lat="48.23668" lon="5.31395">
        <ele>264.5</ele>
        <time>2024-12-23T22:15:40.101Z</time>
      </trkpt>
      <trkpt lat="48.23642" lon="5.31399">
        <ele>264.33</ele>
        <time>2024-12-23T22:15:45.618Z</time>
      </trkpt>
      <trkpt lat="48.23617" lon="5.31404">
        <ele>264.16</ele>
        <time>2024-12-23T22:15:51.139Z</time>
      </trkpt>
      <trkpt lat="48.23592" lon="5.31408">
        <ele>264.09</ele>
        <time>2024-12-23T22:15:56.664Z</time>
      </trkpt>
      <trkpt lat="48.23568" lon="5.31413">
        <ele>264.08</ele>
        <time>2024-12-23T22:16:02.193Z</time>
      </trkpt>
      <trkpt lat="48.23544" lon="5.31419">
        <ele>264.11</ele>
        <time>2024-12-23T22:16:07.726Z</time>
      </trkpt>
      <trkpt lat="48.2352" lon="5.31424">
        <ele>264.23</ele>
        <time>2024-12-23T22:16:13.263Z</time>
      </trkpt>
      <trkpt lat="48.23496" lon="5.31429">
        <ele>264.48</ele>
        <time>2024-12-23T22:16:18.804Z</time>
      </trkpt>
      <trkpt lat="48.23467" lon="5.31441">
        <ele>264.77</ele>
        <time>2024-12-23T22:16:24.350Z</time>
      </trkpt>
      <trkpt lat="48.23439" lon="5.31454">
        <ele>264.96</ele>
        <time>2024-12-23T22:16:29.900Z</time>
      </trkpt>
      <trkpt lat="48.2341" lon="5.31466">
        <ele>265.24</ele>
        <time>2024-12-23T22:16:35.455Z</time>
      </trkpt>
      <trkpt lat="48.23393" lon="5.31468">
        <ele>265.49</ele>
        <time>2024-12-23T22:16:41.013Z</time>
      </trkpt>
      <trkpt lat="48.23376" lon="5.3147">
        <ele>265.73</ele>
        <time>2024-12-23T22:16:46.574Z</time>
      </trkpt>
      <trkpt lat="48.23348" lon="5.31468">
        <ele>265.92</ele>
        <time>2024-12-23T22:16:52.139Z</time>
      </trkpt>
      <trkpt lat="48.23319" lon="5.31462">
        <ele>266.03</ele>
        <time>2024-12-23T22:16:57.709Z</time>
      </trkpt>
      <trkpt lat="48.23291" lon="5.31456">
        <ele>266.25</ele>
        <time>2024-12-23T22:17:03.283Z</time>
      </trkpt>
      <trkpt lat="48.23262" lon="5.31451">
        <ele>266.43</ele>
        <time>2024-12-23T22:17:08.862Z</time>
      </trkpt>
      <trkpt lat="48.23231" lon="5.31452">
        <ele>266.43</ele>
        <time>2024-12-23T22:17:14.446Z</time>
      </trkpt>
      <trkpt lat="48.232" lon="5.31453">
        <ele>266.57</ele>
        <time>2024-12-23T22:17:20.035Z</time>
      </trkpt>
      <trkpt lat="48.23179" lon="5.31449">
        <ele>266.71</ele>
        <time>2024-12-23T22:17:25.627Z</time>
      </trkpt>
      <trkpt lat="48.23159" lon="5.31444">
        <ele>266.87</ele>
        <time>2024-12-23T22:17:31.223Z</time>
      </trkpt>
      <trkpt lat="48.23131" lon="5.3143">
        <ele>267.05</ele>
        <time>2024-12-23T22:17:36.823Z</time>
      </trkpt>
      <trkpt lat="48.23103" lon="5.31415">
        <ele>267.28</ele>
        <time>2024-12-23T22:17:42.428Z</time>
      </trkpt>
      <trkpt lat="48.23075" lon="5.31401">
        <ele>267.54</ele>
        <time>2024-12-23T22:17:48.038Z</time>
      </trkpt>
      <trkpt lat="48.23047" lon="5.31386">
        <ele>267.86</ele>
        <time>2024-12-23T22:17:53.653Z</time>
      </trkpt>
      <trkpt lat="48.23019" lon="5.31372">
        <ele>268.1</ele>
        <time>2024-12-23T22:17:59.272Z</time>
      </trkpt>
      <trkpt lat="48.22992" lon="5.31357">
        <ele>268.18</ele>
        <time>2024-12-23T22:18:04.896Z</time>
      </trkpt>
      <trkpt lat="48.22964" lon="5.31343">
        <ele>268.27</ele>
        <time>2024-12-23T22:18:10.525Z</time>
      </trkpt>
      <trkpt lat="48.22936" lon="5.31328">
        <ele>268.46</ele>
        <time>2024-12-23T22:18:16.158Z</time>
      </trkpt>
      <trkpt lat="48.2292" lon="5.31325">
        <ele>268.76</ele>
        <time>2024-12-23T22:18:21.794Z</time>
      </trkpt>
      <trkpt lat="48.22904" lon="5.31322">
        <ele>269.03</ele>
        <time>2024-12-23T22:18:27.433Z</time>
      </trkpt>
      <trkpt lat="48.22889" lon="5.31328">
        <ele>269.25</ele>
        <time>2024-12-23T22:18:33.074Z</time>
      </trkpt>
      <trkpt lat="48.22876" lon="5.31341">
        <ele>269.48</ele>
        <time>2024-12-23T22:18:38.718Z</time>
      </trkpt>
      <trkpt lat="48.22858" lon="5.31377">
        <ele>269.76</ele>
        <time>2024-12-23T22:18:44.366Z</time>
      </trkpt>
      <trkpt lat="48.2284" lon="5.31412">
        <ele>269.76</ele>
        <time>2024-12-23T22:18:50.019Z</time>
      </trkpt>
      <trkpt lat="48.22822" lon="5.31447">
        <ele>269.67</ele>
        <time>2024-12-23T22:18:55.677Z</time>
      </trkpt>
      <trkpt lat="48.22804" lon="5.31482">
        <ele>269.64</ele>
        <time>2024-12-23T22:19:01.340Z</time>
      </trkpt>
      <trkpt lat="48.22786" lon="5.31517">
        <ele>269.59</ele>
        <time>2024-12-23T22:19:07.007Z</time>
      </trkpt>
      <trkpt lat="48.22767" lon="5.3154">
        <ele>269.41</ele>
        <time>2024-12-23T22:19:12.678Z</time>
      </trkpt>
      <trkpt lat="48.22749" lon="5.31562">
        <ele>269.14</ele>
        <time>2024-12-23T22:19:18.353Z</time>
      </trkpt>
      <trkpt lat="48.22729" lon="5.31567">
        <ele>268.73</ele>
        <time>2024-12-23T22:19:24.031Z</time>
      </trkpt>
      <trkpt lat="48.22708" lon="5.31571">
        <ele>268.27</ele>
        <time>2024-12-23T22:19:29.713Z</time>
      </trkpt>
      <trkpt lat="48.22687" lon="5.31572">
        <ele>267.8</ele>
        <time>2024-12-23T22:19:35.398Z</time>
      </trkpt>
      <trkpt lat="48.22665" lon="5.31572">
        <ele>267.39</ele>
        <time>2024-12-23T22:19:41.086Z</time>
      </trkpt>
      <trkpt lat="48.22644" lon="5.31573">
        <ele>266.97</ele>
        <time>2024-12-23T22:19:46.778Z</time>
      </trkpt>
      <trkpt lat="48.22616" lon="5.31564">
        <ele>266.45</ele>
        <time>2024-12-23T22:19:52.474Z</time>
      </trkpt>
      <trkpt lat="48.22588" lon="5.31556">
        <ele>265.94</ele>
        <time>2024-12-23T22:19:58.175Z</time>
      </trkpt>
      <trkpt lat="48.22588" lon="5.31556">
        <ele>265.54</ele>
        <time>2024-12-23T22:20:03.876Z</time>
      </trkpt>
      <trkpt lat="48.22586" lon="5.31543">
        <ele>265.11</ele>
        <time>2024-12-23T22:20:09.578Z</time>
      </trkpt>
      <trkpt lat="48.22588" lon="5.31532">
        <ele>264.71</ele>
        <time>2024-12-23T22:20:15.282Z</time>
      </trkpt>
      <trkpt lat="48.2259" lon="5.31506">
        <ele>264.33</ele>
        <time>2024-12-23T22:20:20.988Z</time>
      </trkpt>
      <trkpt lat="48.22592" lon="5.31481">
        <ele>264.03</ele>
        <time>2024-12-23T22:20:26.697Z</time>
      </trkpt>
      <trkpt lat="48.22588" lon="5.31466">
        <ele>263.76</ele>
        <time>2024-12-23T22:20:32.408Z</time>
      </trkpt>
      <trkpt lat="48.22575" lon="5.31446">
        <ele>263.59</ele>
        <time>2024-12-23T22:20:38.122Z</time>
      </trkpt>
      <trkpt lat="48.22559" lon="5.31437">
        <ele>263.44</ele>
        <time>2024-12-23T22:20:43.839Z</time>
      </trkpt>
      <trkpt lat="48.22543" lon="5.31427">
        <ele>263.32</ele>
        <time>2024-12-23T22:20:49.558Z</time>
      </trkpt>
      <trkpt lat="48.22515" lon="5.31416">
        <ele>263.24</ele>
        <time>2024-12-23T22:20:55.282Z</time>
      </trkpt>
      <trkpt lat="48.22496" lon="5.31416">
        <ele>263.2</ele>
        <time>2024-12-23T22:21:01.009Z</time>
      </trkpt>
      <trkpt lat="48.22471" lon="5.31421">
        <ele>263.21</ele>
        <time>2024-12-23T22:21:06.740Z</time>
      </trkpt>
      <trkpt lat="48.22471" lon="5.31421">
        <ele>263.21</ele>
        <time>2024-12-23T22:21:12.471Z</time>
      </trkpt>
      <trkpt lat="48.22496" lon="5.31416">
        <ele>263.2</ele>
        <time>2024-12-23T22:21:18.206Z</time>
      </trkpt>
      <trkpt lat="48.22515" lon="5.31416">
        <ele>263.24</ele>
        <time>2024-12-23T22:21:23.944Z</time>
      </trkpt>
      <trkpt lat="48.22543" lon="5.31427">
        <ele>263.32</ele>
        <time>2024-12-23T22:21:29.687Z</time>
      </trkpt>
      <trkpt lat="48.22559" lon="5.31437">
        <ele>263.44</ele>
        <time>2024-12-23T22:21:35.432Z</time>
      </trkpt>
      <trkpt lat="48.22575" lon="5.31446">
        <ele>263.59</ele>
        <time>2024-12-23T22:21:41.180Z</time>
      </trkpt>
      <trkpt lat="48.22588" lon="5.31466">
        <ele>263.76</ele>
        <time>2024-12-23T22:21:46.931Z</time>
      </trkpt>
      <trkpt lat="48.22592" lon="5.31481">
        <ele>264.03</ele>
        <time>2024-12-23T22:21:52.684Z</time>
      </trkpt>
      <trkpt lat="48.2259" lon="5.31507">
        <ele>264.33</ele>
        <time>2024-12-23T22:21:58.440Z</time>
      </trkpt>
      <trkpt lat="48.22588" lon="5.31532">
        <ele>264.71</ele>
        <time>2024-12-23T22:22:04.198Z</time>
      </trkpt>
      <trkpt lat="48.22586" lon="5.31543">
        <ele>265.11</ele>
        <time>2024-12-23T22:22:09.958Z</time>
      </trkpt>
      <trkpt lat="48.22588" lon="5.31556">
        <ele>265.54</ele>
        <time>2024-12-23T22:22:15.719Z</time>
      </trkpt>
      <trkpt lat="48.22588" lon="5.31556">
        <ele>265.94</ele>
        <time>2024-12-23T22:22:21.480Z</time>
      </trkpt>
      <trkpt lat="48.22616" lon="5.31564">
        <ele>266.45</ele>
        <time>2024-12-23T22:22:27.246Z</time>
      </trkpt>
      <trkpt lat="48.22644" lon="5.31573">
        <ele>266.97</ele>
        <time>2024-12-23T22:22:33.016Z</time>
      </trkpt>
      <trkpt lat="48.22665" lon="5.31572">
        <ele>267.38</ele>
        <time>2024-12-23T22:22:38.790Z</time>
      </trkpt>
      <trkpt lat="48.22687" lon="5.31572">
        <ele>267.79</ele>
        <time>2024-12-23T22:22:44.567Z</time>
      </trkpt>
      <trkpt lat="48.22708" lon="5.31571">
        <ele>268.27</ele>
        <time>2024-12-23T22:22:50.348Z</time>
      </trkpt>
      <trkpt lat="48.22729" lon="5.31567">
        <ele>268.71</ele>
        <time>2024-12-23T22:22:56.132Z</time>
      </trkpt>
      <trkpt lat="48.22749" lon="5.31562">
        <ele>269.14</ele>
        <time>2024-12-23T22:23:01.919Z</time>
      </trkpt>
      <trkpt lat="48.22767" lon="5.3154">
        <ele>269.39</ele>
        <time>2024-12-23T22:23:07.710Z</time>
      </trkpt>
      <trkpt lat="48.22786" lon="5.31517">
        <ele>269.59</ele>
        <time>2024-12-23T22:23:13.505Z</time>
      </trkpt>
      <trkpt lat="48.22804" lon="5.31482">
        <ele>269.61</ele>
        <time>2024-12-23T22:23:19.304Z</time>
      </trkpt>
      <trkpt lat="48.22822" lon="5.31447">
        <ele>269.65</ele>
        <time>2024-12-23T22:23:25.108Z</time>
      </trkpt>
      <trkpt lat="48.2284" lon="5.31412">
        <ele>269.73</ele>
        <time>2024-12-23T22:23:30.917Z</time>
      </trkpt>
      <trkpt lat="48.22858" lon="5.31376">
        <ele>269.73</ele>
        <time>2024-12-23T22:23:36.731Z</time>
      </trkpt>
      <trkpt lat="48.22876" lon="5.31341">
        <ele>269.48</ele>
        <time>2024-12-23T22:23:42.549Z</time>
      </trkpt>
      <trkpt lat="48.22889" lon="5.31328">
        <ele>269.25</ele>
        <time>2024-12-23T22:23:48.370Z</time>
      </trkpt>
      <trkpt lat="48.22904" lon="5.31322">
        <ele>269.03</ele>
        <time>2024-12-23T22:23:54.193Z</time>
      </trkpt>
      <trkpt lat="48.2292" lon="5.31325">
        <ele>268.72</ele>
        <time>2024-12-23T22:24:00.019Z</time>
      </trkpt>
      <trkpt lat="48.22936" lon="5.31328">
        <ele>268.46</ele>
        <time>2024-12-23T22:24:05.848Z</time>
      </trkpt>
      <trkpt lat="48.22964" lon="5.31343">
        <ele>268.22</ele>
        <time>2024-12-23T22:24:11.681Z</time>
      </trkpt>
      <trkpt lat="48.22992" lon="5.31357">
        <ele>268.13</ele>
        <time>2024-12-23T22:24:17.519Z</time>
      </trkpt>
      <trkpt lat="48.2302" lon="5.31372">
        <ele>268.05</ele>
        <time>2024-12-23T22:24:23.362Z</time>
      </trkpt>
      <trkpt lat="48.23047" lon="5.31386">
        <ele>267.8</ele>
        <time>2024-12-23T22:24:29.210Z</time>
      </trkpt>
      <trkpt lat="48.23075" lon="5.31401">
        <ele>267.49</ele>
        <time>2024-12-23T22:24:35.062Z</time>
      </trkpt>
      <trkpt lat="48.23103" lon="5.31415">
        <ele>267.23</ele>
        <time>2024-12-23T22:24:40.919Z</time>
      </trkpt>
      <trkpt lat="48.23131" lon="5.3143">
        <ele>266.99</ele>
        <time>2024-12-23T22:24:46.781Z</time>
      </trkpt>
      <trkpt lat="48.23159" lon="5.31444">
        <ele>266.87</ele>
        <time>2024-12-23T22:24:52.647Z</time>
      </trkpt>
      <trkpt lat="48.23179" lon="5.31449">
        <ele>266.66</ele>
        <time>2024-12-23T22:24:58.517Z</time>
      </trkpt>
      <trkpt lat="48.232" lon="5.31453">
        <ele>266.57</ele>
        <time>2024-12-23T22:25:04.390Z</time>
      </trkpt>
      <trkpt lat="48.23231" lon="5.31452">
        <ele>266.38</ele>
        <time>2024-12-23T22:25:10.268Z</time>
      </trkpt>
      <trkpt lat="48.23262" lon="5.31451">
        <ele>266.43</ele>
        <time>2024-12-23T22:25:16.151Z</time>
      </trkpt>
      <trkpt lat="48.23291" lon="5.31456">
        <ele>266.22</ele>
        <time>2024-12-23T22:25:22.039Z</time>
      </trkpt>
      <trkpt lat="48.23319" lon="5.31462">
        <ele>266</ele>
        <time>2024-12-23T22:25:27.931Z</time>
      </trkpt>
      <trkpt lat="48.23348" lon="5.31468">
        <ele>265.92</ele>
        <time>2024-12-23T22:25:33.828Z</time>
      </trkpt>
      <trkpt lat="48.23376" lon="5.3147">
        <ele>265.73</ele>
        <time>2024-12-23T22:25:39.729Z</time>
      </trkpt>
      <trkpt lat="48.23393" lon="5.31468">
        <ele>265.49</ele>
        <time>2024-12-23T22:25:45.633Z</time>
      </trkpt>
      <trkpt lat="48.2341" lon="5.31466">
        <ele>265.24</ele>
        <time>2024-12-23T22:25:51.540Z</time>
      </trkpt>
      <trkpt lat="48.23439" lon="5.31454">
        <ele>264.96</ele>
        <time>2024-12-23T22:25:57.452Z</time>
      </trkpt>
      <trkpt lat="48.23467" lon="5.31441">
        <ele>264.77</ele>
        <time>2024-12-23T22:26:03.368Z</time>
      </trkpt>
      <trkpt lat="48.23496" lon="5.31429">
        <ele>264.48</ele>
        <time>2024-12-23T22:26:09.289Z</time>
      </trkpt>
      <trkpt lat="48.2352" lon="5.31424">
        <ele>264.3</ele>
        <time>2024-12-23T22:26:15.214Z</time>
      </trkpt>
      <trkpt lat="48.23544" lon="5.31419">
        <ele>264.2</ele>
        <time>2024-12-23T22:26:21.143Z</time>
      </trkpt>
      <trkpt lat="48.23568" lon="5.31413">
        <ele>264.19</ele>
        <time>2024-12-23T22:26:27.076Z</time>
      </trkpt>
      <trkpt lat="48.23592" lon="5.31408">
        <ele>264.09</ele>
        <time>2024-12-23T22:26:33.013Z</time>
      </trkpt>
      <trkpt lat="48.23617" lon="5.31404">
        <ele>264.31</ele>
        <time>2024-12-23T22:26:38.954Z</time>
      </trkpt>
      <trkpt lat="48.23642" lon="5.31399">
        <ele>264.5</ele>
        <time>2024-12-23T22:26:44.899Z</time>
      </trkpt>
      <trkpt lat="48.23668" lon="5.31395">
        <ele>264.5</ele>
        <time>2024-12-23T22:26:50.848Z</time>
      </trkpt>
      <trkpt lat="48.23696" lon="5.31386">
        <ele>264.92</ele>
        <time>2024-12-23T22:26:56.802Z</time>
      </trkpt>
      <trkpt lat="48.23725" lon="5.31378">
        <ele>264.92</ele>
        <time>2024-12-23T22:27:02.760Z</time>
      </trkpt>
      <trkpt lat="48.23753" lon="5.31361">
        <ele>265.15</ele>
        <time>2024-12-23T22:27:08.723Z</time>
      </trkpt>
      <trkpt lat="48.23776" lon="5.31343">
        <ele>265.53</ele>
        <time>2024-12-23T22:27:14.690Z</time>
      </trkpt>
      <trkpt lat="48.23798" lon="5.31325">
        <ele>265.62</ele>
        <time>2024-12-23T22:27:20.661Z</time>
      </trkpt>
      <trkpt lat="48.2382" lon="5.31307">
        <ele>265.38</ele>
        <time>2024-12-23T22:27:26.636Z</time>
      </trkpt>
      <trkpt lat="48.23839" lon="5.31281">
        <ele>265.45</ele>
        <time>2024-12-23T22:27:32.615Z</time>
      </trkpt>
      <trkpt lat="48.23849" lon="5.31251">
        <ele>265.73</ele>
        <time>2024-12-23T22:27:38.598Z</time>
      </trkpt>
      <trkpt lat="48.23858" lon="5.31221">
        <ele>265.26</ele>
        <time>2024-12-23T22:27:44.585Z</time>
      </trkpt>
      <trkpt lat="48.23869" lon="5.31177">
        <ele>265.53</ele>
        <time>2024-12-23T22:27:50.576Z</time>
      </trkpt>
      <trkpt lat="48.23879" lon="5.31134">
        <ele>265.4</ele>
        <time>2024-12-23T22:27:56.572Z</time>
      </trkpt>
      <trkpt lat="48.23889" lon="5.3109">
        <ele>264.96</ele>
        <time>2024-12-23T22:28:02.573Z</time>
      </trkpt>
      <trkpt lat="48.23899" lon="5.31055">
        <ele>265.33</ele>
        <time>2024-12-23T22:28:08.578Z</time>
      </trkpt>
      <trkpt lat="48.23909" lon="5.31021">
        <ele>265.28</ele>
        <time>2024-12-23T22:28:14.587Z</time>
      </trkpt>
      <trkpt lat="48.2392" lon="5.30986">
        <ele>265.2</ele>
        <time>2024-12-23T22:28:20.601Z</time>
      </trkpt>
      <trkpt lat="48.2393" lon="5.30951">
        <ele>265.13</ele>
        <time>2024-12-23T22:28:26.619Z</time>
      </trkpt>
      <trkpt lat="48.2394" lon="5.30916">
        <ele>264.74</ele>
        <time>2024-12-23T22:28:32.641Z</time>
      </trkpt>
      <trkpt lat="48.23951" lon="5.30886">
        <ele>264.6</ele>
        <time>2024-12-23T22:28:38.666Z</time>
      </trkpt>
      <trkpt lat="48.23964" lon="5.30867">
        <ele>264.55</ele>
        <time>2024-12-23T22:28:44.694Z</time>
      </trkpt>
      <trkpt lat="48.23986" lon="5.30841">
        <ele>264.72</ele>
        <time>2024-12-23T22:28:50.727Z</time>
      </trkpt>
      <trkpt lat="48.24008" lon="5.30816">
        <ele>264.85</ele>
        <time>2024-12-23T22:28:56.764Z</time>
      </trkpt>
      <trkpt lat="48.24031" lon="5.3079">
        <ele>265.06</ele>
        <time>2024-12-23T22:29:02.806Z</time>
      </trkpt>
      <trkpt lat="48.24053" lon="5.30764">
        <ele>265.3</ele>
        <time>2024-12-23T22:29:08.852Z</time>
      </trkpt>
      <trkpt lat="48.24075" lon="5.30738">
        <ele>265.56</ele>
        <time>2024-12-23T22:29:14.903Z</time>
      </trkpt>
      <trkpt lat="48.24096" lon="5.30709">
        <ele>265.71</ele>
        <time>2024-12-23T22:29:20.958Z</time>
      </trkpt>
      <trkpt lat="48.24116" lon="5.3068">
        <ele>265.88</ele>
        <time>2024-12-23T22:29:27.018Z</time>
      </trkpt>
      <trkpt lat="48.24137" lon="5.3065">
        <ele>266.12</ele>
        <time>2024-12-23T22:29:33.082Z</time>
      </trkpt>
      <trkpt lat="48.24157" lon="5.30621">
        <ele>266.32</ele>
        <time>2024-12-23T22:29:39.151Z</time>
      </trkpt>
      <trkpt lat="48.24178" lon="5.30592">
        <ele>266.56</ele>
        <time>2024-12-23T22:29:45.224Z</time>
      </trkpt>
      <trkpt lat="48.24198" lon="5.30562">
        <ele>266.78</ele>
        <time>2024-12-23T22:29:51.302Z</time>
      </trkpt>
      <trkpt lat="48.24219" lon="5.30533">
        <ele>266.95</ele>
        <time>2024-12-23T22:29:57.385Z</time>
      </trkpt>
      <trkpt lat="48.24239" lon="5.30503">
        <ele>267.19</ele>
        <time>2024-12-23T22:30:03.472Z</time>
      </trkpt>
      <trkpt lat="48.2426" lon="5.30474">
        <ele>268.7</ele>
        <time>2024-12-23T22:30:09.564Z</time>
      </trkpt>
      <trkpt lat="48.24273" lon="5.30453">
        <ele>269.13</ele>
        <time>2024-12-23T22:30:15.659Z</time>
      </trkpt>
      <trkpt lat="48.24277" lon="5.30432">
        <ele>269.54</ele>
        <time>2024-12-23T22:30:21.756Z</time>
      </trkpt>
      <trkpt lat="48.24277" lon="5.30432">
        <ele>268.16</ele>
        <time>2024-12-23T22:30:27.853Z</time>
      </trkpt>
      <trkpt lat="48.24275" lon="5.30393">
        <ele>268.33</ele>
        <time>2024-12-23T22:30:33.954Z</time>
      </trkpt>
      <trkpt lat="48.24273" lon="5.30354">
        <ele>268.59</ele>
        <time>2024-12-23T22:30:40.059Z</time>
      </trkpt>
      <trkpt lat="48.24267" lon="5.30312">
        <ele>268.78</ele>
        <time>2024-12-23T22:30:46.169Z</time>
      </trkpt>
      <trkpt lat="48.24261" lon="5.3027">
        <ele>268.94</ele>
        <time>2024-12-23T22:30:52.284Z</time>
      </trkpt>
      <trkpt lat="48.24255" lon="5.30228">
        <ele>269.08</ele>
        <time>2024-12-23T22:30:58.403Z</time>
      </trkpt>
      <trkpt lat="48.24253" lon="5.30195">
        <ele>269.27</ele>
        <time>2024-12-23T22:31:04.526Z</time>
      </trkpt>
      <trkpt lat="48.24253" lon="5.30195">
        <ele>269.47</ele>
        <time>2024-12-23T22:31:10.649Z</time>
      </trkpt>
      <trkpt lat="48.24259" lon="5.30149">
        <ele>269.72</ele>
        <time>2024-12-23T22:31:16.777Z</time>
      </trkpt>
      <trkpt lat="48.24264" lon="5.30103">
        <ele>269.96</ele>
        <time>2024-12-23T22:31:22.910Z</time>
      </trkpt>
      <trkpt lat="48.24277" lon="5.30077">
        <ele>270.26</ele>
        <time>2024-12-23T22:31:29.046Z</time>
      </trkpt>
      <trkpt lat="48.24279" lon="5.30071">
        <ele>270.35</ele>
        <time>2024-12-23T22:31:35.183Z</time>
      </trkpt>
      <trkpt lat="48.24274" lon="5.30039">
        <ele>270.41</ele>
        <time>2024-12-23T22:31:41.323Z</time>
      </trkpt>
      <trkpt lat="48.24269" lon="5.30006">
        <ele>270.4</ele>
        <time>2024-12-23T22:31:47.467Z</time>
      </trkpt>
      <trkpt lat="48.24264" lon="5.29974">
        <ele>270.3</ele>
        <time>2024-12-23T22:31:53.615Z</time>
      </trkpt>
      <trkpt lat="48.24268" lon="5.29966">
        <ele>270.16</ele>
        <time>2024-12-23T22:31:59.764Z</time>
      </trkpt>
      <trkpt lat="48.24283" lon="5.29955">
        <ele>270</ele>
        <time>2024-12-23T22:32:05.915Z</time>
      </trkpt>
      <trkpt lat="48.24298" lon="5.29944">
        <ele>269.72</ele>
        <time>2024-12-23T22:32:12.069Z</time>
      </trkpt>
      <trkpt lat="48.24307" lon="5.29942">
        <ele>269.31</ele>
        <time>2024-12-23T22:32:18.224Z</time>
      </trkpt>
      <trkpt lat="48.24311" lon="5.29932">
        <ele>268.81</ele>
        <time>2024-12-23T22:32:24.381Z</time>
      </trkpt>
      <trkpt lat="48.24331" lon="5.29928">
        <ele>268.19</ele>
        <time>2024-12-23T22:32:30.541Z</time>
      </trkpt>
      <trkpt lat="48.2435" lon="5.29925">
        <ele>267.5</ele>
        <time>2024-12-23T22:32:36.704Z</time>
      </trkpt>
      <trkpt lat="48.24368" lon="5.29928">
        <ele>266.76</ele>
        <time>2024-12-23T22:32:42.870Z</time>
      </trkpt>
      <trkpt lat="48.24386" lon="5.29932">
        <ele>265.97</ele>
        <time>2024-12-23T22:32:49.039Z</time>
      </trkpt>
      <trkpt lat="48.24391" lon="5.29917">
        <ele>265.15</ele>
        <time>2024-12-23T22:32:55.210Z</time>
      </trkpt>
      <trkpt lat="48.24393" lon="5.29899">
        <ele>264.26</ele>
        <time>2024-12-23T22:33:01.382Z</time>
      </trkpt>
      <trkpt lat="48.24397" lon="5.29874">
        <ele>263.33</ele>
        <time>2024-12-23T22:33:07.557Z</time>
      </trkpt>
      <trkpt lat="48.24401" lon="5.29848">
        <ele>262.35</ele>
        <time>2024-12-23T22:33:13.735Z</time>
      </trkpt>
      <trkpt lat="48.24401" lon="5.29835">
        <ele>261.35</ele>
        <time>2024-12-23T22:33:19.914Z</time>
      </trkpt>
      <trkpt lat="48.24399" lon="5.29816">
        <ele>260.35</ele>
        <time>2024-12-23T22:33:26.096Z</time>
      </trkpt>
      <trkpt lat="48.24395" lon="5.29796">
        <ele>259.35</ele>
        <time>2024-12-23T22:33:32.280Z</time>
      </trkpt>
      <trkpt lat="48.2438" lon="5.29769">
        <ele>258.39</ele>
        <time>2024-12-23T22:33:38.468Z</time>
      </trkpt>
      <trkpt lat="48.24365" lon="5.29743">
        <ele>257.4</ele>
        <time>2024-12-23T22:33:44.659Z</time>
      </trkpt>
      <trkpt lat="48.24348" lon="5.29704">
        <ele>256.33</ele>
        <time>2024-12-23T22:33:50.855Z</time>
      </trkpt>
      <trkpt lat="48.24343" lon="5.29683">
        <ele>255.35</ele>
        <time>2024-12-23T22:33:57.054Z</time>
      </trkpt>
      <trkpt lat="48.2434" lon="5.29645">
        <ele>254.4</ele>
        <time>2024-12-23T22:34:03.257Z</time>
      </trkpt>
      <trkpt lat="48.24337" lon="5.29608">
        <ele>253.53</ele>
        <time>2024-12-23T22:34:09.464Z</time>
      </trkpt>
      <trkpt lat="48.24335" lon="5.29584">
        <ele>252.76</ele>
        <time>2024-12-23T22:34:15.673Z</time>
      </trkpt>
      <trkpt lat="48.24337" lon="5.29567">
        <ele>252.1</ele>
        <time>2024-12-23T22:34:21.884Z</time>
      </trkpt>
      <trkpt lat="48.24339" lon="5.29547">
        <ele>251.54</ele>
        <time>2024-12-23T22:34:28.097Z</time>
      </trkpt>
      <trkpt lat="48.24343" lon="5.29511">
        <ele>251.13</ele>
        <time>2024-12-23T22:34:34.314Z</time>
      </trkpt>
      <trkpt lat="48.24341" lon="5.29487">
        <ele>250.85</ele>
        <time>2024-12-23T22:34:40.534Z</time>
      </trkpt>
      <trkpt lat="48.24358" lon="5.29468">
        <ele>250.67</ele>
        <time>2024-12-23T22:34:46.757Z</time>
      </trkpt>
      <trkpt lat="48.24363" lon="5.29462">
        <ele>250.57</ele>
        <time>2024-12-23T22:34:52.981Z</time>
      </trkpt>
      <trkpt lat="48.24363" lon="5.29453">
        <ele>250.57</ele>
        <time>2024-12-23T22:34:59.206Z</time>
      </trkpt>
      <trkpt lat="48.24361" lon="5.2944">
        <ele>250.67</ele>
        <time>2024-12-23T22:35:05.432Z</time>
      </trkpt>
      <trkpt lat="48.24349" lon="5.29411">
        <ele>250.9</ele>
        <time>2024-12-23T22:35:11.662Z</time>
      </trkpt>
      <trkpt lat="48.24337" lon="5.29382">
        <ele>251.22</ele>
        <time>2024-12-23T22:35:17.896Z</time>
      </trkpt>
      <trkpt lat="48.24331" lon="5.29367">
        <ele>251.59</ele>
        <time>2024-12-23T22:35:24.132Z</time>
      </trkpt>
      <trkpt lat="48.24318" lon="5.2935">
        <ele>252.05</ele>
        <time>2024-12-23T22:35:30.370Z</time>
      </trkpt>
      <trkpt lat="48.24311" lon="5.29346">
        <ele>252.61</ele>
        <time>2024-12-23T22:35:36.610Z</time>
      </trkpt>
      <trkpt lat="48.24292" lon="5.29329">
        <ele>253.26</ele>
        <time>2024-12-23T22:35:42.853Z</time>
      </trkpt>
      <trkpt lat="48.24275" lon="5.29307">
        <ele>254</ele>
        <time>2024-12-23T22:35:49.100Z</time>
      </trkpt>
      <trkpt lat="48.24264" lon="5.29286">
        <ele>254.82</ele>
        <time>2024-12-23T22:35:55.350Z</time>
      </trkpt>
      <trkpt lat="48.24249" lon="5.29252">
        <ele>255.77</ele>
        <time>2024-12-23T22:36:01.604Z</time>
      </trkpt>
      <trkpt lat="48.24234" lon="5.29218">
        <ele>256.78</ele>
        <time>2024-12-23T22:36:07.862Z</time>
      </trkpt>
      <trkpt lat="48.24219" lon="5.29185">
        <ele>257.85</ele>
        <time>2024-12-23T22:36:14.125Z</time>
      </trkpt>
      <trkpt lat="48.2421" lon="5.29166">
        <ele>258.85</ele>
        <time>2024-12-23T22:36:20.390Z</time>
      </trkpt>
      <trkpt lat="48.24194" lon="5.29133">
        <ele>259.85</ele>
        <time>2024-12-23T22:36:26.659Z</time>
      </trkpt>
      <trkpt lat="48.24177" lon="5.291">
        <ele>260.72</ele>
        <time>2024-12-23T22:36:32.933Z</time>
      </trkpt>
      <trkpt lat="48.2416" lon="5.29068">
        <ele>261.68</ele>
        <time>2024-12-23T22:36:39.211Z</time>
      </trkpt>
      <trkpt lat="48.24143" lon="5.29035">
        <ele>262.67</ele>
        <time>2024-12-23T22:36:45.494Z</time>
      </trkpt>
      <trkpt lat="48.24126" lon="5.29003">
        <ele>263.64</ele>
        <time>2024-12-23T22:36:51.781Z</time>
      </trkpt>
      <trkpt lat="48.2411" lon="5.2897">
        <ele>264.51</ele>
        <time>2024-12-23T22:36:58.072Z</time>
      </trkpt>
      <trkpt lat="48.24098" lon="5.28942">
        <ele>265.36</ele>
        <time>2024-12-23T22:37:04.367Z</time>
      </trkpt>
      <trkpt lat="48.24086" lon="5.28914">
        <ele>266.2</ele>
        <time>2024-12-23T22:37:10.665Z</time>
      </trkpt>
      <trkpt lat="48.24073" lon="5.2888">
        <ele>267.01</ele>
        <time>2024-12-23T22:37:16.968Z</time>
      </trkpt>
      <trkpt lat="48.24059" lon="5.28845">
        <ele>267.77</ele>
        <time>2024-12-23T22:37:23.275Z</time>
      </trkpt>
      <trkpt lat="48.24046" lon="5.2881">
        <ele>268.42</ele>
        <time>2024-12-23T22:37:29.586Z</time>
      </trkpt>
      <trkpt lat="48.24032" lon="5.28775">
        <ele>268.99</ele>
        <time>2024-12-23T22:37:35.902Z</time>
      </trkpt>
      <trkpt lat="48.2402" lon="5.28751">
        <ele>269.6</ele>
        <time>2024-12-23T22:37:42.221Z</time>
      </trkpt>
      <trkpt lat="48.24009" lon="5.28728">
        <ele>270.14</ele>
        <time>2024-12-23T22:37:48.543Z</time>
      </trkpt>
      <trkpt lat="48.23993" lon="5.28699">
        <ele>270.67</ele>
        <time>2024-12-23T22:37:54.869Z</time>
      </trkpt>
      <trkpt lat="48.23977" lon="5.2867">
        <ele>271.02</ele>
        <time>2024-12-23T22:38:01.199Z</time>
      </trkpt>
      <trkpt lat="48.23961" lon="5.28647">
        <ele>271.34</ele>
        <time>2024-12-23T22:38:07.533Z</time>
      </trkpt>
      <trkpt lat="48.23946" lon="5.28624">
        <ele>271.58</ele>
        <time>2024-12-23T22:38:13.870Z</time>
      </trkpt>
      <trkpt lat="48.23931" lon="5.28601">
        <ele>271.73</ele>
        <time>2024-12-23T22:38:20.210Z</time>
      </trkpt>
      <trkpt lat="48.23911" lon="5.28575">
        <ele>271.74</ele>
        <time>2024-12-23T22:38:26.555Z</time>
      </trkpt>
      <trkpt lat="48.2389" lon="5.28548">
        <ele>271.69</ele>
        <time>2024-12-23T22:38:32.904Z</time>
      </trkpt>
      <trkpt lat="48.2387" lon="5.28521">
        <ele>271.54</ele>
        <time>2024-12-23T22:38:39.257Z</time>
      </trkpt>
      <trkpt lat="48.23849" lon="5.28495">
        <ele>271.36</ele>
        <time>2024-12-23T22:38:45.615Z</time>
      </trkpt>
      <trkpt lat="48.23828" lon="5.28468">
        <ele>271.2</ele>
        <time>2024-12-23T22:38:51.977Z</time>
      </trkpt>
      <trkpt lat="48.23828" lon="5.28468">
        <ele>271.04</ele>
        <time>2024-12-23T22:38:58.339Z</time>
      </trkpt>
      <trkpt lat="48.23813" lon="5.2844">
        <ele>270.8</ele>
        <time>2024-12-23T22:39:04.705Z</time>
      </trkpt>
      <trkpt lat="48.23798" lon="5.28412">
        <ele>270.59</ele>
        <time>2024-12-23T22:39:11.075Z</time>
      </trkpt>
      <trkpt lat="48.23783" lon="5.28384">
        <ele>270.36</ele>
        <time>2024-12-23T22:39:17.449Z</time>
      </trkpt>
      <trkpt lat="48.23773" lon="5.28356">
        <ele>270.06</ele>
        <time>2024-12-23T22:39:23.826Z</time>
      </trkpt>
      <trkpt lat="48.23762" lon="5.28327">
        <ele>269.87</ele>
        <time>2024-12-23T22:39:30.207Z</time>
      </trkpt>
      <trkpt lat="48.23751" lon="5.28299">
        <ele>269.7</ele>
        <time>2024-12-23T22:39:36.591Z</time>
      </trkpt>
      <trkpt lat="48.23751" lon="5.28299">
        <ele>269.52</ele>
        <time>2024-12-23T22:39:42.975Z</time>
      </trkpt>
      <trkpt lat="48.23739" lon="5.28256">
        <ele>269.34</ele>
        <time>2024-12-23T22:39:49.364Z</time>
      </trkpt>
      <trkpt lat="48.23727" lon="5.28214">
        <ele>269.2</ele>
        <time>2024-12-23T22:39:55.758Z</time>
      </trkpt>
      <trkpt lat="48.23715" lon="5.28172">
        <ele>269.1</ele>
        <time>2024-12-23T22:40:02.157Z</time>
      </trkpt>
      <trkpt lat="48.23704" lon="5.28145">
        <ele>269.08</ele>
        <time>2024-12-23T22:40:08.559Z</time>
      </trkpt>
      <trkpt lat="48.23693" lon="5.28118">
        <ele>269.1</ele>
        <time>2024-12-23T22:40:14.965Z</time>
      </trkpt>
      <trkpt lat="48.23678" lon="5.28095">
        <ele>269.22</ele>
        <time>2024-12-23T22:40:21.374Z</time>
      </trkpt>
      <trkpt lat="48.23663" lon="5.28071">
        <ele>269.35</ele>
        <time>2024-12-23T22:40:27.787Z</time>
      </trkpt>
      <trkpt lat="48.23648" lon="5.28055">
        <ele>269.49</ele>
        <time>2024-12-23T22:40:34.203Z</time>
      </trkpt>
      <trkpt lat="48.23633" lon="5.28039">
        <ele>269.65</ele>
        <time>2024-12-23T22:40:40.622Z</time>
      </trkpt>
      <trkpt lat="48.23607" lon="5.28018">
        <ele>269.88</ele>
        <time>2024-12-23T22:40:47.045Z</time>
      </trkpt>
      <trkpt lat="48.23607" lon="5.28018">
        <ele>270.14</ele>
        <time>2024-12-23T22:40:53.468Z</time>
      </trkpt>
      <trkpt lat="48.23583" lon="5.28">
        <ele>270.5</ele>
        <time>2024-12-23T22:40:59.896Z</time>
      </trkpt>
      <trkpt lat="48.23558" lon="5.27983">
        <ele>270.92</ele>
        <time>2024-12-23T22:41:06.328Z</time>
      </trkpt>
      <trkpt lat="48.23539" lon="5.27965">
        <ele>271.31</ele>
        <time>2024-12-23T22:41:12.764Z</time>
      </trkpt>
      <trkpt lat="48.23521" lon="5.27946">
        <ele>271.73</ele>
        <time>2024-12-23T22:41:19.203Z</time>
      </trkpt>
      <trkpt lat="48.23502" lon="5.27927">
        <ele>272.2</ele>
        <time>2024-12-23T22:41:25.646Z</time>
      </trkpt>
      <trkpt lat="48.23489" lon="5.27915">
        <ele>272.73</ele>
        <time>2024-12-23T22:41:32.091Z</time>
      </trkpt>
      <trkpt lat="48.23489" lon="5.27915">
        <ele>273.26</ele>
        <time>2024-12-23T22:41:38.536Z</time>
      </trkpt>
      <trkpt lat="48.23469" lon="5.27891">
        <ele>273.89</ele>
        <time>2024-12-23T22:41:44.985Z</time>
      </trkpt>
      <trkpt lat="48.23449" lon="5.27867">
        <ele>274.52</ele>
        <time>2024-12-23T22:41:51.438Z</time>
      </trkpt>
      <trkpt lat="48.23433" lon="5.27837">
        <ele>275.17</ele>
        <time>2024-12-23T22:41:57.896Z</time>
      </trkpt>
      <trkpt lat="48.23416" lon="5.27807">
        <ele>275.8</ele>
        <time>2024-12-23T22:42:04.358Z</time>
      </trkpt>
      <trkpt lat="48.23398" lon="5.27769">
        <ele>276.46</ele>
        <time>2024-12-23T22:42:10.825Z</time>
      </trkpt>
      <trkpt lat="48.2338" lon="5.27732">
        <ele>277.17</ele>
        <time>2024-12-23T22:42:17.297Z</time>
      </trkpt>
      <trkpt lat="48.23362" lon="5.27694">
        <ele>277.94</ele>
        <time>2024-12-23T22:42:23.774Z</time>
      </trkpt>
      <trkpt lat="48.23344" lon="5.27656">
        <ele>278.74</ele>
        <time>2024-12-23T22:42:30.256Z</time>
      </trkpt>
      <trkpt lat="48.23326" lon="5.27618">
        <ele>279.57</ele>
        <time>2024-12-23T22:42:36.743Z</time>
      </trkpt>
      <trkpt lat="48.23308" lon="5.2758">
        <ele>280.34</ele>
        <time>2024-12-23T22:42:43.235Z</time>
      </trkpt>
      <trkpt lat="48.2329" lon="5.27543">
        <ele>281.1</ele>
        <time>2024-12-23T22:42:49.731Z</time>
      </trkpt>
      <trkpt lat="48.23272" lon="5.27505">
        <ele>281.88</ele>
        <time>2024-12-23T22:42:56.232Z</time>
      </trkpt>
      <trkpt lat="48.23254" lon="5.27467">
        <ele>282.67</ele>
        <time>2024-12-23T22:43:02.738Z</time>
      </trkpt>
      <trkpt lat="48.23236" lon="5.27429">
        <ele>283.41</ele>
        <time>2024-12-23T22:43:09.249Z</time>
      </trkpt>
      <trkpt lat="48.23217" lon="5.27391">
        <ele>284.2</ele>
        <time>2024-12-23T22:43:15.765Z</time>
      </trkpt>
      <trkpt lat="48.232" lon="5.27354">
        <ele>284.96</ele>
        <time>2024-12-23T22:43:22.286Z</time>
      </trkpt>
      <trkpt lat="48.23187" lon="5.27321">
        <ele>285.72</ele>
        <time>2024-12-23T22:43:28.811Z</time>
      </trkpt>
      <trkpt lat="48.23174" lon="5.27288">
        <ele>286.48</ele>
        <time>2024-12-23T22:43:35.340Z</time>
      </trkpt>
      <trkpt lat="48.23165" lon="5.27258">
        <ele>287.24</ele>
        <time>2024-12-23T22:43:41.873Z</time>
      </trkpt>
      <trkpt lat="48.23157" lon="5.27228">
        <ele>288</ele>
        <time>2024-12-23T22:43:48.409Z</time>
      </trkpt>
      <trkpt lat="48.23147" lon="5.27183">
        <ele>288.77</ele>
        <time>2024-12-23T22:43:54.950Z</time>
      </trkpt>
      <trkpt lat="48.23137" lon="5.27139">
        <ele>289.57</ele>
        <time>2024-12-23T22:44:01.496Z</time>
      </trkpt>
      <trkpt lat="48.23127" lon="5.27095">
        <ele>290.39</ele>
        <time>2024-12-23T22:44:08.047Z</time>
      </trkpt>
      <trkpt lat="48.23117" lon="5.27069">
        <ele>291.16</ele>
        <time>2024-12-23T22:44:14.602Z</time>
      </trkpt>
      <trkpt lat="48.23107" lon="5.27043">
        <ele>291.92</ele>
        <time>2024-12-23T22:44:21.160Z</time>
      </trkpt>
      <trkpt lat="48.23095" lon="5.27012">
        <ele>292.65</ele>
        <time>2024-12-23T22:44:27.722Z</time>
      </trkpt>
      <trkpt lat="48.23082" lon="5.26981">
        <ele>293.38</ele>
        <time>2024-12-23T22:44:34.288Z</time>
      </trkpt>
      <trkpt lat="48.23066" lon="5.26952">
        <ele>294.14</ele>
        <time>2024-12-23T22:44:40.858Z</time>
      </trkpt>
      <trkpt lat="48.23049" lon="5.26922">
        <ele>294.85</ele>
        <time>2024-12-23T22:44:47.432Z</time>
      </trkpt>
      <trkpt lat="48.23033" lon="5.26892">
        <ele>295.52</ele>
        <time>2024-12-23T22:44:54.010Z</time>
      </trkpt>
      <trkpt lat="48.23017" lon="5.26863">
        <ele>296.12</ele>
        <time>2024-12-23T22:45:00.592Z</time>
      </trkpt>
      <trkpt lat="48.22999" lon="5.26832">
        <ele>296.69</ele>
        <time>2024-12-23T22:45:07.178Z</time>
      </trkpt>
      <trkpt lat="48.2298" lon="5.26801">
        <ele>297.21</ele>
        <time>2024-12-23T22:45:13.769Z</time>
      </trkpt>
      <trkpt lat="48.22962" lon="5.26771">
        <ele>297.64</ele>
        <time>2024-12-23T22:45:20.364Z</time>
      </trkpt>
      <trkpt lat="48.22939" lon="5.2674">
        <ele>297.98</ele>
        <time>2024-12-23T22:45:26.964Z</time>
      </trkpt>
      <trkpt lat="48.22916" lon="5.26709">
        <ele>298.33</ele>
        <time>2024-12-23T22:45:33.569Z</time>
      </trkpt>
      <trkpt lat="48.22893" lon="5.26678">
        <ele>298.69</ele>
        <time>2024-12-23T22:45:40.179Z</time>
      </trkpt>
      <trkpt lat="48.2287" lon="5.26648">
        <ele>299.02</ele>
        <time>2024-12-23T22:45:46.794Z</time>
      </trkpt>
      <trkpt lat="48.22847" lon="5.26617">
        <ele>299.31</ele>
        <time>2024-12-23T22:45:53.414Z</time>
      </trkpt>
      <trkpt lat="48.22824" lon="5.26586">
        <ele>299.6</ele>
        <time>2024-12-23T22:46:00.039Z</time>
      </trkpt>
      <trkpt lat="48.22802" lon="5.26555">
        <ele>299.72</ele>
        <time>2024-12-23T22:46:06.669Z</time>
      </trkpt>
      <trkpt lat="48.2278" lon="5.26524">
        <ele>299.82</ele>
        <time>2024-12-23T22:46:13.304Z</time>
      </trkpt>
      <trkpt lat="48.22758" lon="5.26493">
        <ele>299.83</ele>
        <time>2024-12-23T22:46:19.943Z</time>
      </trkpt>
      <trkpt lat="48.22735" lon="5.26462">
        <ele>299.9</ele>
        <time>2024-12-23T22:46:26.587Z</time>
      </trkpt>
      <trkpt lat="48.22713" lon="5.26431">
        <ele>299.96</ele>
        <time>2024-12-23T22:46:33.236Z</time>
      </trkpt>
      <trkpt lat="48.22691" lon="5.264">
        <ele>299.95</ele>
        <time>2024-12-23T22:46:39.890Z</time>
      </trkpt>
      <trkpt lat="48.22674" lon="5.26376">
        <ele>299.93</ele>
        <time>2024-12-23T22:46:46.548Z</time>
      </trkpt>
      <trkpt lat="48.22658" lon="5.26361">
        <ele>299.92</ele>
        <time>2024-12-23T22:46:53.209Z</time>
      </trkpt>
      <trkpt lat="48.22642" lon="5.26346">
        <ele>299.88</ele>
        <time>2024-12-23T22:46:59.873Z</time>
      </trkpt>
      <trkpt lat="48.22642" lon="5.26346">
        <ele>299.8</ele>
        <time>2024-12-23T22:47:06.537Z</time>
      </trkpt>
      <trkpt lat="48.22631" lon="5.2634">
        <ele>299.73</ele>
        <time>2024-12-23T22:47:13.203Z</time>
      </trkpt>
      <trkpt lat="48.22608" lon="5.26322">
        <ele>299.64</ele>
        <time>2024-12-23T22:47:19.873Z</time>
      </trkpt>
      <trkpt lat="48.22585" lon="5.26304">
        <ele>299.54</ele>
        <time>2024-12-23T22:47:26.547Z</time>
      </trkpt>
      <trkpt lat="48.22585" lon="5.26304">
        <ele>299.43</ele>
        <time>2024-12-23T22:47:33.221Z</time>
      </trkpt>
      <trkpt lat="48.22582" lon="5.26301">
        <ele>299.33</ele>
        <time>2024-12-23T22:47:39.896Z</time>
      </trkpt>
      <trkpt lat="48.2256" lon="5.26269">
        <ele>299.19</ele>
        <time>2024-12-23T22:47:46.575Z</time>
      </trkpt>
      <trkpt lat="48.2254" lon="5.26233">
        <ele>299.04</ele>
        <time>2024-12-23T22:47:53.259Z</time>
      </trkpt>
      <trkpt lat="48.2252" lon="5.26198">
        <ele>298.93</ele>
        <time>2024-12-23T22:47:59.948Z</time>
      </trkpt>
      <trkpt lat="48.22498" lon="5.26165">
        <ele>298.76</ele>
        <time>2024-12-23T22:48:06.642Z</time>
      </trkpt>
      <trkpt lat="48.22477" lon="5.26131">
        <ele>298.63</ele>
        <time>2024-12-23T22:48:13.341Z</time>
      </trkpt>
      <trkpt lat="48.22463" lon="5.26114">
        <ele>298.59</ele>
        <time>2024-12-23T22:48:20.043Z</time>
      </trkpt>
      <trkpt lat="48.22449" lon="5.26097">
        <ele>298.61</ele>
        <time>2024-12-23T22:48:26.748Z</time>
      </trkpt>
      <trkpt lat="48.22431" lon="5.26072">
        <ele>298.72</ele>
        <time>2024-12-23T22:48:33.457Z</time>
      </trkpt>
      <trkpt lat="48.22413" lon="5.26047">
        <ele>298.88</ele>
        <time>2024-12-23T22:48:40.170Z</time>
      </trkpt>
      <trkpt lat="48.22396" lon="5.26021">
        <ele>299.03</ele>
        <time>2024-12-23T22:48:46.887Z</time>
      </trkpt>
      <trkpt lat="48.22378" lon="5.25996">
        <ele>299.19</ele>
        <time>2024-12-23T22:48:53.608Z</time>
      </trkpt>
      <trkpt lat="48.22363" lon="5.25975">
        <ele>299.33</ele>
        <time>2024-12-23T22:49:00.332Z</time>
      </trkpt>
      <trkpt lat="48.22348" lon="5.25953">
        <ele>299.49</ele>
        <time>2024-12-23T22:49:07.059Z</time>
      </trkpt>
      <trkpt lat="48.22333" lon="5.25928">
        <ele>299.66</ele>
        <time>2024-12-23T22:49:13.790Z</time>
      </trkpt>
      <trkpt lat="48.22315" lon="5.25899">
        <ele>299.78</ele>
        <time>2024-12-23T22:49:20.525Z</time>
      </trkpt>
      <trkpt lat="48.22298" lon="5.2587">
        <ele>299.89</ele>
        <time>2024-12-23T22:49:27.264Z</time>
      </trkpt>
      <trkpt lat="48.2228" lon="5.25841">
        <ele>300.06</ele>
        <time>2024-12-23T22:49:34.008Z</time>
      </trkpt>
      <trkpt lat="48.22262" lon="5.25812">
        <ele>300.27</ele>
        <time>2024-12-23T22:49:40.756Z</time>
      </trkpt>
      <trkpt lat="48.22245" lon="5.25784">
        <ele>300.43</ele>
        <time>2024-12-23T22:49:47.508Z</time>
      </trkpt>
      <trkpt lat="48.2223" lon="5.25754">
        <ele>300.56</ele>
        <time>2024-12-23T22:49:54.264Z</time>
      </trkpt>
      <trkpt lat="48.22215" lon="5.25724">
        <ele>300.68</ele>
        <time>2024-12-23T22:50:01.024Z</time>
      </trkpt>
      <trkpt lat="48.222" lon="5.25694">
        <ele>300.8</ele>
        <time>2024-12-23T22:50:07.788Z</time>
      </trkpt>
      <trkpt lat="48.22185" lon="5.25664">
        <ele>300.87</ele>
        <time>2024-12-23T22:50:14.556Z</time>
      </trkpt>
      <trkpt lat="48.22181" lon="5.25657">
        <ele>300.95</ele>
        <time>2024-12-23T22:50:21.325Z</time>
      </trkpt>
      <trkpt lat="48.22171" lon="5.25637">
        <ele>301.02</ele>
        <time>2024-12-23T22:50:28.097Z</time>
      </trkpt>
      <trkpt lat="48.22161" lon="5.25616">
        <ele>301.08</ele>
        <time>2024-12-23T22:50:34.871Z</time>
      </trkpt>
      <trkpt lat="48.22159" lon="5.2561">
        <ele>301.12</ele>
        <time>2024-12-23T22:50:41.646Z</time>
      </trkpt>
      <trkpt lat="48.22144" lon="5.2558">
        <ele>301.18</ele>
        <time>2024-12-23T22:50:48.425Z</time>
      </trkpt>
      <trkpt lat="48.22128" lon="5.25545">
        <ele>301.16</ele>
        <time>2024-12-23T22:50:55.209Z</time>
      </trkpt>
      <trkpt lat="48.22111" lon="5.25509">
        <ele>301.09</ele>
        <time>2024-12-23T22:51:01.997Z</time>
      </trkpt>
      <trkpt lat="48.22095" lon="5.25474">
        <ele>301.03</ele>
        <time>2024-12-23T22:51:08.790Z</time>
      </trkpt>
      <trkpt lat="48.22079" lon="5.25439">
        <ele>301.05</ele>
        <time>2024-12-23T22:51:15.587Z</time>
      </trkpt>
      <trkpt lat="48.22063" lon="5.25403">
        <ele>301.09</ele>
        <time>2024-12-23T22:51:22.389Z</time>
      </trkpt>
      <trkpt lat="48.22046" lon="5.25368">
        <ele>301.06</ele>
        <time>2024-12-23T22:51:29.196Z</time>
      </trkpt>
      <trkpt lat="48.2203" lon="5.25333">
        <ele>300.99</ele>
        <time>2024-12-23T22:51:36.007Z</time>
      </trkpt>
      <trkpt lat="48.22018" lon="5.25294">
        <ele>300.94</ele>
        <time>2024-12-23T22:51:42.823Z</time>
      </trkpt>
      <trkpt lat="48.22007" lon="5.25256">
        <ele>300.81</ele>
        <time>2024-12-23T22:51:49.643Z</time>
      </trkpt>
      <trkpt lat="48.21995" lon="5.25217">
        <ele>300.77</ele>
        <time>2024-12-23T22:51:56.468Z</time>
      </trkpt>
      <trkpt lat="48.21983" lon="5.25179">
        <ele>300.79</ele>
        <time>2024-12-23T22:52:03.297Z</time>
      </trkpt>
      <trkpt lat="48.21975" lon="5.25146">
        <ele>300.74</ele>
        <time>2024-12-23T22:52:10.130Z</time>
      </trkpt>
      <trkpt lat="48.21966" lon="5.25112">
        <ele>300.73</ele>
        <time>2024-12-23T22:52:16.967Z</time>
      </trkpt>
      <trkpt lat="48.21961" lon="5.25079">
        <ele>300.7</ele>
        <time>2024-12-23T22:52:23.808Z</time>
      </trkpt>
      <trkpt lat="48.21955" lon="5.25046">
        <ele>300.69</ele>
        <time>2024-12-23T22:52:30.652Z</time>
      </trkpt>
      <trkpt lat="48.21948" lon="5.25003">
        <ele>300.58</ele>
        <time>2024-12-23T22:52:37.501Z</time>
      </trkpt>
      <trkpt lat="48.21941" lon="5.24961">
        <ele>300.49</ele>
        <time>2024-12-23T22:52:44.355Z</time>
      </trkpt>
      <trkpt lat="48.21934" lon="5.24919">
        <ele>300.47</ele>
        <time>2024-12-23T22:52:51.213Z</time>
      </trkpt>
      <trkpt lat="48.21934" lon="5.24908">
        <ele>300.41</ele>
        <time>2024-12-23T22:52:58.072Z</time>
      </trkpt>
      <trkpt lat="48.21956" lon="5.24903">
        <ele>300.29</ele>
        <time>2024-12-23T22:53:04.935Z</time>
      </trkpt>
      <trkpt lat="48.21979" lon="5.24898">
        <ele>300.2</ele>
        <time>2024-12-23T22:53:11.802Z</time>
      </trkpt>
      <trkpt lat="48.21956" lon="5.24903">
        <ele>300.12</ele>
        <time>2024-12-23T22:53:18.672Z</time>
      </trkpt>
      <trkpt lat="48.21934" lon="5.24908">
        <ele>300.07</ele>
        <time>2024-12-23T22:53:25.546Z</time>
      </trkpt>
      <trkpt lat="48.21931" lon="5.24882">
        <ele>299.97</ele>
        <time>2024-12-23T22:53:32.423Z</time>
      </trkpt>
      <trkpt lat="48.21927" lon="5.24857">
        <ele>299.86</ele>
        <time>2024-12-23T22:53:39.303Z</time>
      </trkpt>
      <trkpt lat="48.21924" lon="5.24831">
        <ele>299.7</ele>
        <time>2024-12-23T22:53:46.185Z</time>
      </trkpt>
      <trkpt lat="48.21921" lon="5.24805">
        <ele>299.56</ele>
        <time>2024-12-23T22:53:53.070Z</time>
      </trkpt>
      <trkpt lat="48.21923" lon="5.24769">
        <ele>299.36</ele>
        <time>2024-12-23T22:53:59.959Z</time>
      </trkpt>
      <trkpt lat="48.21921" lon="5.24745">
        <ele>299.22</ele>
        <time>2024-12-23T22:54:06.851Z</time>
      </trkpt>
      <trkpt lat="48.21919" lon="5.24722">
        <ele>299.08</ele>
        <time>2024-12-23T22:54:13.745Z</time>
      </trkpt>
      <trkpt lat="48.21912" lon="5.24689">
        <ele>298.91</ele>
        <time>2024-12-23T22:54:20.643Z</time>
      </trkpt>
      <trkpt lat="48.21905" lon="5.24665">
        <ele>298.76</ele>
        <time>2024-12-23T22:54:27.544Z</time>
      </trkpt>
      <trkpt lat="48.21897" lon="5.2464">
        <ele>298.56</ele>
        <time>2024-12-23T22:54:34.448Z</time>
      </trkpt>
      <trkpt lat="48.2189" lon="5.24598">
        <ele>298.34</ele>
        <time>2024-12-23T22:54:41.356Z</time>
      </trkpt>
      <trkpt lat="48.21882" lon="5.24556">
        <ele>298.07</ele>
        <time>2024-12-23T22:54:48.269Z</time>
      </trkpt>
      <trkpt lat="48.21875" lon="5.24514">
        <ele>297.72</ele>
        <time>2024-12-23T22:54:55.187Z</time>
      </trkpt>
      <trkpt lat="48.21867" lon="5.24473">
        <ele>297.45</ele>
        <time>2024-12-23T22:55:02.109Z</time>
      </trkpt>
      <trkpt lat="48.21868" lon="5.24433">
        <ele>297.17</ele>
        <time>2024-12-23T22:55:09.035Z</time>
      </trkpt>
      <trkpt lat="48.21869" lon="5.24393">
        <ele>296.91</ele>
        <time>2024-12-23T22:55:15.966Z</time>
      </trkpt>
      <trkpt lat="48.21873" lon="5.2435">
        <ele>296.6</ele>
        <time>2024-12-23T22:55:22.901Z</time>
      </trkpt>
      <trkpt lat="48.21876" lon="5.24307">
        <ele>296.38</ele>
        <time>2024-12-23T22:55:29.841Z</time>
      </trkpt>
      <trkpt lat="48.21874" lon="5.24297">
        <ele>296.14</ele>
        <time>2024-12-23T22:55:36.782Z</time>
      </trkpt>
      <trkpt lat="48.21865" lon="5.24271">
        <ele>295.89</ele>
        <time>2024-12-23T22:55:43.726Z</time>
      </trkpt>
      <trkpt lat="48.21856" lon="5.24245">
        <ele>295.64</ele>
        <time>2024-12-23T22:55:50.673Z</time>
      </trkpt>
      <trkpt lat="48.2185" lon="5.24221">
        <ele>295.39</ele>
        <time>2024-12-23T22:55:57.623Z</time>
      </trkpt>
      <trkpt lat="48.21844" lon="5.24196">
        <ele>295.17</ele>
        <time>2024-12-23T22:56:04.576Z</time>
      </trkpt>
      <trkpt lat="48.21833" lon="5.2417">
        <ele>294.97</ele>
        <time>2024-12-23T22:56:11.532Z</time>
      </trkpt>
      <trkpt lat="48.21819" lon="5.24129">
        <ele>294.78</ele>
        <time>2024-12-23T22:56:18.493Z</time>
      </trkpt>
      <trkpt lat="48.21806" lon="5.24088">
        <ele>294.66</ele>
        <time>2024-12-23T22:56:25.459Z</time>
      </trkpt>
      <trkpt lat="48.21792" lon="5.24048">
        <ele>294.55</ele>
        <time>2024-12-23T22:56:32.430Z</time>
      </trkpt>
      <trkpt lat="48.21778" lon="5.24007">
        <ele>294.45</ele>
        <time>2024-12-23T22:56:39.406Z</time>
      </trkpt>
      <trkpt lat="48.21765" lon="5.23966">
        <ele>294.35</ele>
        <time>2024-12-23T22:56:46.387Z</time>
      </trkpt>
      <trkpt lat="48.21751" lon="5.23926">
        <ele>294.24</ele>
        <time>2024-12-23T22:56:53.372Z</time>
      </trkpt>
      <trkpt lat="48.21737" lon="5.23888">
        <ele>294.2</ele>
        <time>2024-12-23T22:57:00.362Z</time>
      </trkpt>
      <trkpt lat="48.21722" lon="5.23851">
        <ele>294.14</ele>
        <time>2024-12-23T22:57:07.357Z</time>
      </trkpt>
      <trkpt lat="48.21708" lon="5.23814">
        <ele>294.07</ele>
        <time>2024-12-23T22:57:14.356Z</time>
      </trkpt>
      <trkpt lat="48.21694" lon="5.23776">
        <ele>294.01</ele>
        <time>2024-12-23T22:57:21.360Z</time>
      </trkpt>
      <trkpt lat="48.21679" lon="5.23739">
        <ele>294</ele>
        <time>2024-12-23T22:57:28.369Z</time>
      </trkpt>
      <trkpt lat="48.21665" lon="5.23702">
        <ele>293.96</ele>
        <time>2024-12-23T22:57:35.382Z</time>
      </trkpt>
      <trkpt lat="48.2165" lon="5.23664">
        <ele>293.91</ele>
        <time>2024-12-23T22:57:42.400Z</time>
      </trkpt>
      <trkpt lat="48.21636" lon="5.23627">
        <ele>293.85</ele>
        <time>2024-12-23T22:57:49.422Z</time>
      </trkpt>
      <trkpt lat="48.21621" lon="5.2359">
        <ele>293.89</ele>
        <time>2024-12-23T22:57:56.449Z</time>
      </trkpt>
      <trkpt lat="48.21607" lon="5.23552">
        <ele>293.83</ele>
        <time>2024-12-23T22:58:03.481Z</time>
      </trkpt>
      <trkpt lat="48.21593" lon="5.23516">
        <ele>293.76</ele>
        <time>2024-12-23T22:58:10.517Z</time>
      </trkpt>
      <trkpt lat="48.21583" lon="5.23482">
        <ele>293.65</ele>
        <time>2024-12-23T22:58:17.557Z</time>
      </trkpt>
      <trkpt lat="48.21573" lon="5.23449">
        <ele>293.56</ele>
        <time>2024-12-23T22:58:24.601Z</time>
      </trkpt>
      <trkpt lat="48.21562" lon="5.23408">
        <ele>293.47</ele>
        <time>2024-12-23T22:58:31.650Z</time>
      </trkpt>
      <trkpt lat="48.2155" lon="5.23366">
        <ele>293.43</ele>
        <time>2024-12-23T22:58:38.704Z</time>
      </trkpt>
      <trkpt lat="48.21539" lon="5.23325">
        <ele>293.41</ele>
        <time>2024-12-23T22:58:45.762Z</time>
      </trkpt>
      <trkpt lat="48.2153" lon="5.23281">
        <ele>293.41</ele>
        <time>2024-12-23T22:58:52.825Z</time>
      </trkpt>
      <trkpt lat="48.21522" lon="5.23237">
        <ele>293.31</ele>
        <time>2024-12-23T22:58:59.893Z</time>
      </trkpt>
      <trkpt lat="48.21513" lon="5.23192">
        <ele>293.21</ele>
        <time>2024-12-23T22:59:06.966Z</time>
      </trkpt>
      <trkpt lat="48.21505" lon="5.23148">
        <ele>293.09</ele>
        <time>2024-12-23T22:59:14.044Z</time>
      </trkpt>
      <trkpt lat="48.21496" lon="5.23104">
        <ele>292.9</ele>
        <time>2024-12-23T22:59:21.127Z</time>
      </trkpt>
      <trkpt lat="48.21487" lon="5.2306">
        <ele>292.79</ele>
        <time>2024-12-23T22:59:28.215Z</time>
      </trkpt>
      <trkpt lat="48.21479" lon="5.23016">
        <ele>292.62</ele>
        <time>2024-12-23T22:59:35.308Z</time>
      </trkpt>
      <trkpt lat="48.2147" lon="5.22973">
        <ele>292.45</ele>
        <time>2024-12-23T22:59:42.406Z</time>
      </trkpt>
      <trkpt lat="48.21464" lon="5.22933">
        <ele>292.28</ele>
        <time>2024-12-23T22:59:49.508Z</time>
      </trkpt>
      <trkpt lat="48.21458" lon="5.22893">
        <ele>292.07</ele>
        <time>2024-12-23T22:59:56.614Z</time>
      </trkpt>
      <trkpt lat="48.21452" lon="5.22853">
        <ele>291.82</ele>
        <time>2024-12-23T23:00:03.725Z</time>
      </trkpt>
      <trkpt lat="48.21446" lon="5.22813">
        <ele>291.59</ele>
        <time>2024-12-23T23:00:10.840Z</time>
      </trkpt>
      <trkpt lat="48.2144" lon="5.22773">
        <ele>291.33</ele>
        <time>2024-12-23T23:00:17.959Z</time>
      </trkpt>
      <trkpt lat="48.21434" lon="5.22737">
        <ele>291.06</ele>
        <time>2024-12-23T23:00:25.082Z</time>
      </trkpt>
      <trkpt lat="48.21426" lon="5.22691">
        <ele>290.74</ele>
        <time>2024-12-23T23:00:32.210Z</time>
      </trkpt>
      <trkpt lat="48.21419" lon="5.22645">
        <ele>290.46</ele>
        <time>2024-12-23T23:00:39.344Z</time>
      </trkpt>
      <trkpt lat="48.21411" lon="5.226">
        <ele>290.16</ele>
        <time>2024-12-23T23:00:46.483Z</time>
      </trkpt>
      <trkpt lat="48.21404" lon="5.22554">
        <ele>289.83</ele>
        <time>2024-12-23T23:00:53.627Z</time>
      </trkpt>
      <trkpt lat="48.21399" lon="5.22524">
        <ele>289.48</ele>
        <time>2024-12-23T23:01:00.774Z</time>
      </trkpt>
      <trkpt lat="48.21395" lon="5.22493">
        <ele>289.09</ele>
        <time>2024-12-23T23:01:07.924Z</time>
      </trkpt>
      <trkpt lat="48.21391" lon="5.22462">
        <ele>288.64</ele>
        <time>2024-12-23T23:01:15.078Z</time>
      </trkpt>
      <trkpt lat="48.21389" lon="5.2243">
        <ele>288.14</ele>
        <time>2024-12-23T23:01:22.235Z</time>
      </trkpt>
      <trkpt lat="48.21387" lon="5.22398">
        <ele>287.68</ele>
        <time>2024-12-23T23:01:29.396Z</time>
      </trkpt>
      <trkpt lat="48.21385" lon="5.22353">
        <ele>287.32</ele>
        <time>2024-12-23T23:01:36.561Z</time>
      </trkpt>
      <trkpt lat="48.21384" lon="5.22307">
        <ele>286.91</ele>
        <time>2024-12-23T23:01:43.731Z</time>
      </trkpt>
      <trkpt lat="48.21382" lon="5.22263">
        <ele>286.35</ele>
        <time>2024-12-23T23:01:50.906Z</time>
      </trkpt>
      <trkpt lat="48.21381" lon="5.22223">
        <ele>285.89</ele>
        <time>2024-12-23T23:01:58.085Z</time>
      </trkpt>
      <trkpt lat="48.2138" lon="5.22183">
        <ele>285.51</ele>
        <time>2024-12-23T23:02:05.269Z</time>
      </trkpt>
      <trkpt lat="48.2138" lon="5.22183">
        <ele>285.09</ele>
        <time>2024-12-23T23:02:12.453Z</time>
      </trkpt>
      <trkpt lat="48.21379" lon="5.22152">
        <ele>284.68</ele>
        <time>2024-12-23T23:02:19.640Z</time>
      </trkpt>
      <trkpt lat="48.21378" lon="5.22121">
        <ele>284.28</ele>
        <time>2024-12-23T23:02:26.830Z</time>
      </trkpt>
      <trkpt lat="48.21376" lon="5.22087">
        <ele>283.86</ele>
        <time>2024-12-23T23:02:34.024Z</time>
      </trkpt>
      <trkpt lat="48.21374" lon="5.22052">
        <ele>283.43</ele>
        <time>2024-12-23T23:02:41.222Z</time>
      </trkpt>
      <trkpt lat="48.21372" lon="5.22018">
        <ele>283.07</ele>
        <time>2024-12-23T23:02:48.423Z</time>
      </trkpt>
      <trkpt lat="48.21367" lon="5.21981">
        <ele>282.67</ele>
        <time>2024-12-23T23:02:55.628Z</time>
      </trkpt>
      <trkpt lat="48.21365" lon="5.21956">
        <ele>282.35</ele>
        <time>2024-12-23T23:03:02.836Z</time>
      </trkpt>
      <trkpt lat="48.21361" lon="5.21921">
        <ele>282.03</ele>
        <time>2024-12-23T23:03:10.048Z</time>
      </trkpt>
      <trkpt lat="48.21359" lon="5.21904">
        <ele>281.75</ele>
        <time>2024-12-23T23:03:17.262Z</time>
      </trkpt>
      <trkpt lat="48.2135" lon="5.21866">
        <ele>281.49</ele>
        <time>2024-12-23T23:03:24.480Z</time>
      </trkpt>
      <trkpt lat="48.21337" lon="5.21825">
        <ele>281.24</ele>
        <time>2024-12-23T23:03:31.703Z</time>
      </trkpt>
      <trkpt lat="48.21328" lon="5.21786">
        <ele>281.02</ele>
        <time>2024-12-23T23:03:38.930Z</time>
      </trkpt>
      <trkpt lat="48.21318" lon="5.21748">
        <ele>280.91</ele>
        <time>2024-12-23T23:03:46.162Z</time>
      </trkpt>
      <trkpt lat="48.21314" lon="5.21716">
        <ele>280.84</ele>
        <time>2024-12-23T23:03:53.397Z</time>
      </trkpt>
      <trkpt lat="48.21309" lon="5.21685">
        <ele>280.77</ele>
        <time>2024-12-23T23:04:00.635Z</time>
      </trkpt>
      <trkpt lat="48.21309" lon="5.21651">
        <ele>280.78</ele>
        <time>2024-12-23T23:04:07.877Z</time>
      </trkpt>
      <trkpt lat="48.21309" lon="5.21608">
        <ele>280.8</ele>
        <time>2024-12-23T23:04:15.124Z</time>
      </trkpt>
      <trkpt lat="48.21309" lon="5.21564">
        <ele>280.82</ele>
        <time>2024-12-23T23:04:22.375Z</time>
      </trkpt>
      <trkpt lat="48.21309" lon="5.21521">
        <ele>280.98</ele>
        <time>2024-12-23T23:04:29.631Z</time>
      </trkpt>
      <trkpt lat="48.21309" lon="5.21477">
        <ele>281.2</ele>
        <time>2024-12-23T23:04:36.892Z</time>
      </trkpt>
      <trkpt lat="48.21307" lon="5.21441">
        <ele>281.38</ele>
        <time>2024-12-23T23:04:44.157Z</time>
      </trkpt>
      <trkpt lat="48.21301" lon="5.214">
        <ele>281.6</ele>
        <time>2024-12-23T23:04:51.426Z</time>
      </trkpt>
      <trkpt lat="48.21294" lon="5.21359">
        <ele>281.84</ele>
        <time>2024-12-23T23:04:58.700Z</time>
      </trkpt>
      <trkpt lat="48.2129" lon="5.21336">
        <ele>282.12</ele>
        <time>2024-12-23T23:05:05.976Z</time>
      </trkpt>
      <trkpt lat="48.21281" lon="5.21294">
        <ele>282.43</ele>
        <time>2024-12-23T23:05:13.257Z</time>
      </trkpt>
      <trkpt lat="48.21271" lon="5.21252">
        <ele>282.69</ele>
        <time>2024-12-23T23:05:20.543Z</time>
      </trkpt>
      <trkpt lat="48.21262" lon="5.21211">
        <ele>282.99</ele>
        <time>2024-12-23T23:05:27.833Z</time>
      </trkpt>
      <trkpt lat="48.21253" lon="5.2117">
        <ele>283.32</ele>
        <time>2024-12-23T23:05:35.128Z</time>
      </trkpt>
      <trkpt lat="48.21243" lon="5.21129">
        <ele>283.67</ele>
        <time>2024-12-23T23:05:42.428Z</time>
      </trkpt>
      <trkpt lat="48.21234" lon="5.21089">
        <ele>283.99</ele>
        <time>2024-12-23T23:05:49.732Z</time>
      </trkpt>
      <trkpt lat="48.21234" lon="5.21089">
        <ele>284.28</ele>
        <time>2024-12-23T23:05:57.036Z</time>
      </trkpt>
      <trkpt lat="48.21229" lon="5.21063">
        <ele>284.56</ele>
        <time>2024-12-23T23:06:04.343Z</time>
      </trkpt>
      <trkpt lat="48.21224" lon="5.21037">
        <ele>284.82</ele>
        <time>2024-12-23T23:06:11.653Z</time>
      </trkpt>
      <trkpt lat="48.21219" lon="5.21007">
        <ele>285.07</ele>
        <time>2024-12-23T23:06:18.966Z</time>
      </trkpt>
      <trkpt lat="48.21213" lon="5.20973">
        <ele>285.26</ele>
        <time>2024-12-23T23:06:26.283Z</time>
      </trkpt>
      <trkpt lat="48.21206" lon="5.20939">
        <ele>285.48</ele>
        <time>2024-12-23T23:06:33.604Z</time>
      </trkpt>
      <trkpt lat="48.212" lon="5.20903">
        <ele>285.7</ele>
        <time>2024-12-23T23:06:40.929Z</time>
      </trkpt>
      <trkpt lat="48.21193" lon="5.20867">
        <ele>285.92</ele>
        <time>2024-12-23T23:06:48.258Z</time>
      </trkpt>
      <trkpt lat="48.21187" lon="5.20831">
        <ele>286.1</ele>
        <time>2024-12-23T23:06:55.591Z</time>
      </trkpt>
      <trkpt lat="48.21176" lon="5.20787">
        <ele>286.23</ele>
        <time>2024-12-23T23:07:02.929Z</time>
      </trkpt>
      <trkpt lat="48.21166" lon="5.20743">
        <ele>286.29</ele>
        <time>2024-12-23T23:07:10.272Z</time>
      </trkpt>
      <trkpt lat="48.21155" lon="5.20702">
        <ele>286.43</ele>
        <time>2024-12-23T23:07:17.619Z</time>
      </trkpt>
      <trkpt lat="48.21144" lon="5.2066">
        <ele>286.54</ele>
        <time>2024-12-23T23:07:24.971Z</time>
      </trkpt>
      <trkpt lat="48.21133" lon="5.20618">
        <ele>286.58</ele>
        <time>2024-12-23T23:07:32.328Z</time>
      </trkpt>
      <trkpt lat="48.21123" lon="5.20576">
        <ele>286.58</ele>
        <time>2024-12-23T23:07:39.690Z</time>
      </trkpt>
      <trkpt lat="48.21112" lon="5.20534">
        <ele>286.53</ele>
        <time>2024-12-23T23:07:47.057Z</time>
      </trkpt>
      <trkpt lat="48.21101" lon="5.20493">
        <ele>286.42</ele>
        <time>2024-12-23T23:07:54.428Z</time>
      </trkpt>
      <trkpt lat="48.2109" lon="5.20452">
        <ele>286.12</ele>
        <time>2024-12-23T23:08:01.804Z</time>
      </trkpt>
      <trkpt lat="48.21079" lon="5.20411">
        <ele>285.78</ele>
        <time>2024-12-23T23:08:09.185Z</time>
      </trkpt>
      <trkpt lat="48.21068" lon="5.20371">
        <ele>285.43</ele>
        <time>2024-12-23T23:08:16.571Z</time>
      </trkpt>
      <trkpt lat="48.21056" lon="5.20331">
        <ele>285.1</ele>
        <time>2024-12-23T23:08:23.961Z</time>
      </trkpt>
      <trkpt lat="48.2105" lon="5.20297">
        <ele>284.67</ele>
        <time>2024-12-23T23:08:31.355Z</time>
      </trkpt>
      <trkpt lat="48.21043" lon="5.20263">
        <ele>284.19</ele>
        <time>2024-12-23T23:08:38.753Z</time>
      </trkpt>
      <trkpt lat="48.21037" lon="5.20226">
        <ele>283.7</ele>
        <time>2024-12-23T23:08:46.155Z</time>
      </trkpt>
      <trkpt lat="48.21035" lon="5.2019">
        <ele>283.16</ele>
        <time>2024-12-23T23:08:53.561Z</time>
      </trkpt>
      <trkpt lat="48.21034" lon="5.20155">
        <ele>282.59</ele>
        <time>2024-12-23T23:09:00.971Z</time>
      </trkpt>
      <trkpt lat="48.21033" lon="5.20119">
        <ele>282</ele>
        <time>2024-12-23T23:09:08.384Z</time>
      </trkpt>
      <trkpt lat="48.21029" lon="5.20085">
        <ele>281.47</ele>
        <time>2024-12-23T23:09:15.801Z</time>
      </trkpt>
      <trkpt lat="48.21025" lon="5.20052">
        <ele>280.87</ele>
        <time>2024-12-23T23:09:23.222Z</time>
      </trkpt>
      <trkpt lat="48.21022" lon="5.20018">
        <ele>280.28</ele>
        <time>2024-12-23T23:09:30.646Z</time>
      </trkpt>
      <trkpt lat="48.21016" lon="5.19987">
        <ele>279.62</ele>
        <time>2024-12-23T23:09:38.074Z</time>
      </trkpt>
      <trkpt lat="48.2101" lon="5.19956">
        <ele>278.95</ele>
        <time>2024-12-23T23:09:45.505Z</time>
      </trkpt>
      <trkpt lat="48.21005" lon="5.19926">
        <ele>278.29</ele>
        <time>2024-12-23T23:09:52.940Z</time>
      </trkpt>
      <trkpt lat="48.20999" lon="5.19901">
        <ele>277.64</ele>
        <time>2024-12-23T23:10:00.377Z</time>
      </trkpt>
      <trkpt lat="48.20994" lon="5.19876">
        <ele>277.06</ele>
        <time>2024-12-23T23:10:07.817Z</time>
      </trkpt>
      <trkpt lat="48.20985" lon="5.19846">
        <ele>276.49</ele>
        <time>2024-12-23T23:10:15.261Z</time>
      </trkpt>
      <trkpt lat="48.20977" lon="5.19816">
        <ele>275.97</ele>
        <time>2024-12-23T23:10:22.708Z</time>
      </trkpt>
      <trkpt lat="48.20963" lon="5.19776">
        <ele>275.47</ele>
        <time>2024-12-23T23:10:30.160Z</time>
      </trkpt>
      <trkpt lat="48.2095" lon="5.19735">
        <ele>275.02</ele>
        <time>2024-12-23T23:10:37.617Z</time>
      </trkpt>
      <trkpt lat="48.20937" lon="5.19694">
        <ele>274.62</ele>
        <time>2024-12-23T23:10:45.079Z</time>
      </trkpt>
      <trkpt lat="48.20924" lon="5.19653">
        <ele>274.17</ele>
        <time>2024-12-23T23:10:52.546Z</time>
      </trkpt>
      <trkpt lat="48.2091" lon="5.19612">
        <ele>273.75</ele>
        <time>2024-12-23T23:11:00.017Z</time>
      </trkpt>
      <trkpt lat="48.20897" lon="5.19571">
        <ele>273.42</ele>
        <time>2024-12-23T23:11:07.493Z</time>
      </trkpt>
      <trkpt lat="48.20884" lon="5.1953">
        <ele>273.25</ele>
        <time>2024-12-23T23:11:14.974Z</time>
      </trkpt>
      <trkpt lat="48.2087" lon="5.1949">
        <ele>273.07</ele>
        <time>2024-12-23T23:11:22.460Z</time>
      </trkpt>
      <trkpt lat="48.20857" lon="5.19449">
        <ele>272.98</ele>
        <time>2024-12-23T23:11:29.951Z</time>
      </trkpt>
      <trkpt lat="48.20844" lon="5.19408">
        <ele>272.95</ele>
        <time>2024-12-23T23:11:37.447Z</time>
      </trkpt>
      <trkpt lat="48.20831" lon="5.19368">
        <ele>272.95</ele>
        <time>2024-12-23T23:11:44.947Z</time>
      </trkpt>
      <trkpt lat="48.20822" lon="5.19338">
        <ele>273.07</ele>
        <time>2024-12-23T23:11:52.451Z</time>
      </trkpt>
      <trkpt lat="48.20822" lon="5.19312">
        <ele>273.29</ele>
        <time>2024-12-23T23:11:59.958Z</time>
      </trkpt>
      <trkpt lat="48.20822" lon="5.19306">
        <ele>273.61</ele>
        <time>2024-12-23T23:12:07.465Z</time>
      </trkpt>
      <trkpt lat="48.20829" lon="5.19284">
        <ele>274.02</ele>
        <time>2024-12-23T23:12:14.975Z</time>
      </trkpt>
      <trkpt lat="48.20844" lon="5.1925">
        <ele>274.54</ele>
        <time>2024-12-23T23:12:22.489Z</time>
      </trkpt>
      <trkpt lat="48.20848" lon="5.19213">
        <ele>275.13</ele>
        <time>2024-12-23T23:12:30.007Z</time>
      </trkpt>
      <trkpt lat="48.20846" lon="5.19192">
        <ele>275.79</ele>
        <time>2024-12-23T23:12:37.528Z</time>
      </trkpt>
      <trkpt lat="48.20837" lon="5.19161">
        <ele>276.59</ele>
        <time>2024-12-23T23:12:45.052Z</time>
      </trkpt>
      <trkpt lat="48.20829" lon="5.1913">
        <ele>277.49</ele>
        <time>2024-12-23T23:12:52.580Z</time>
      </trkpt>
      <trkpt lat="48.2082" lon="5.191">
        <ele>278.46</ele>
        <time>2024-12-23T23:13:00.111Z</time>
      </trkpt>
      <trkpt lat="48.20816" lon="5.19075">
        <ele>279.49</ele>
        <time>2024-12-23T23:13:07.645Z</time>
      </trkpt>
      <trkpt lat="48.20812" lon="5.1905">
        <ele>280.49</ele>
        <time>2024-12-23T23:13:15.182Z</time>
      </trkpt>
      <trkpt lat="48.20808" lon="5.19007">
        <ele>281.54</ele>
        <time>2024-12-23T23:13:22.723Z</time>
      </trkpt>
      <trkpt lat="48.20804" lon="5.18963">
        <ele>282.73</ele>
        <time>2024-12-23T23:13:30.269Z</time>
      </trkpt>
      <trkpt lat="48.208" lon="5.1892">
        <ele>283.93</ele>
        <time>2024-12-23T23:13:37.820Z</time>
      </trkpt>
      <trkpt lat="48.20796" lon="5.18877">
        <ele>285.18</ele>
        <time>2024-12-23T23:13:45.375Z</time>
      </trkpt>
      <trkpt lat="48.20827" lon="5.18876">
        <ele>286.42</ele>
        <time>2024-12-23T23:13:52.935Z</time>
      </trkpt>
      <trkpt lat="48.20857" lon="5.18875">
        <ele>287.65</ele>
        <time>2024-12-23T23:14:00.500Z</time>
      </trkpt>
      <trkpt lat="48.20888" lon="5.18874">
        <ele>288.98</ele>
        <time>2024-12-23T23:14:08.070Z</time>
      </trkpt>
      <trkpt lat="48.20918" lon="5.18873">
        <ele>290.36</ele>
        <time>2024-12-23T23:14:15.645Z</time>
      </trkpt>
      <trkpt lat="48.20949" lon="5.18872">
        <ele>291.73</ele>
        <time>2024-12-23T23:14:23.225Z</time>
      </trkpt>
      <trkpt lat="48.20972" lon="5.18872">
        <ele>293.02</ele>
        <time>2024-12-23T23:14:30.809Z</time>
      </trkpt>
      <trkpt lat="48.20996" lon="5.18872">
        <ele>294.34</ele>
        <time>2024-12-23T23:14:38.396Z</time>
      </trkpt>
      <trkpt lat="48.2102" lon="5.18872">
        <ele>295.6</ele>
        <time>2024-12-23T23:14:45.987Z</time>
      </trkpt>
      <trkpt lat="48.21039" lon="5.18889">
        <ele>296.6</ele>
        <time>2024-12-23T23:14:53.582Z</time>
      </trkpt>
      <trkpt lat="48.21058" lon="5.18907">
        <ele>297.46</ele>
        <time>2024-12-23T23:15:01.180Z</time>
      </trkpt>
      <trkpt lat="48.21075" lon="5.18915">
        <ele>298.18</ele>
        <time>2024-12-23T23:15:08.781Z</time>
      </trkpt>
      <trkpt lat="48.21093" lon="5.18924">
        <ele>298.63</ele>
        <time>2024-12-23T23:15:16.385Z</time>
      </trkpt>
      <trkpt lat="48.21118" lon="5.18917">
        <ele>299</ele>
        <time>2024-12-23T23:15:23.993Z</time>
      </trkpt>
      <trkpt lat="48.21143" lon="5.1891">
        <ele>299.15</ele>
        <time>2024-12-23T23:15:31.605Z</time>
      </trkpt>
      <trkpt lat="48.21118" lon="5.18917">
        <ele>298.94</ele>
        <time>2024-12-23T23:15:39.222Z</time>
      </trkpt>
      <trkpt lat="48.21093" lon="5.18924">
        <ele>298.63</ele>
        <time>2024-12-23T23:15:46.843Z</time>
      </trkpt>
      <trkpt lat="48.21075" lon="5.18915">
        <ele>298</ele>
        <time>2024-12-23T23:15:54.467Z</time>
      </trkpt>
      <trkpt lat="48.21058" lon="5.18907">
        <ele>297.46</ele>
        <time>2024-12-23T23:16:02.094Z</time>
      </trkpt>
      <trkpt lat="48.21039" lon="5.18889">
        <ele>296.31</ele>
        <time>2024-12-23T23:16:09.724Z</time>
      </trkpt>
      <trkpt lat="48.2102" lon="5.18872">
        <ele>295.6</ele>
        <time>2024-12-23T23:16:17.358Z</time>
      </trkpt>
      <trkpt lat="48.20996" lon="5.18872">
        <ele>293.91</ele>
        <time>2024-12-23T23:16:24.996Z</time>
      </trkpt>
      <trkpt lat="48.20972" lon="5.18872">
        <ele>292.52</ele>
        <time>2024-12-23T23:16:32.637Z</time>
      </trkpt>
      <trkpt lat="48.20949" lon="5.18872">
        <ele>291.73</ele>
        <time>2024-12-23T23:16:40.282Z</time>
      </trkpt>
      <trkpt lat="48.20918" lon="5.18873">
        <ele>289.7</ele>
        <time>2024-12-23T23:16:47.932Z</time>
      </trkpt>
      <trkpt lat="48.20888" lon="5.18874">
        <ele>288.23</ele>
        <time>2024-12-23T23:16:55.587Z</time>
      </trkpt>
      <trkpt lat="48.20857" lon="5.18875">
        <ele>286.81</ele>
        <time>2024-12-23T23:17:03.247Z</time>
      </trkpt>
      <trkpt lat="48.20827" lon="5.18876">
        <ele>285.49</ele>
        <time>2024-12-23T23:17:10.912Z</time>
      </trkpt>
      <trkpt lat="48.20796" lon="5.18877">
        <ele>285.18</ele>
        <time>2024-12-23T23:17:18.581Z</time>
      </trkpt>
      <trkpt lat="48.20793" lon="5.18842">
        <ele>282.8</ele>
        <time>2024-12-23T23:17:26.254Z</time>
      </trkpt>
      <trkpt lat="48.2079" lon="5.18808">
        <ele>281.44</ele>
        <time>2024-12-23T23:17:33.931Z</time>
      </trkpt>
      <trkpt lat="48.20783" lon="5.18774">
        <ele>280.15</ele>
        <time>2024-12-23T23:17:41.612Z</time>
      </trkpt>
      <trkpt lat="48.20776" lon="5.1874">
        <ele>278.84</ele>
        <time>2024-12-23T23:17:49.296Z</time>
      </trkpt>
      <trkpt lat="48.20769" lon="5.18707">
        <ele>277.63</ele>
        <time>2024-12-23T23:17:56.984Z</time>
      </trkpt>
      <trkpt lat="48.20761" lon="5.18675">
        <ele>276.47</ele>
        <time>2024-12-23T23:18:04.676Z</time>
      </trkpt>
      <trkpt lat="48.20753" lon="5.18644">
        <ele>275.45</ele>
        <time>2024-12-23T23:18:12.371Z</time>
      </trkpt>
      <trkpt lat="48.20745" lon="5.18613">
        <ele>274.55</ele>
        <time>2024-12-23T23:18:20.070Z</time>
      </trkpt>
      <trkpt lat="48.20736" lon="5.1858">
        <ele>273.7</ele>
        <time>2024-12-23T23:18:27.773Z</time>
      </trkpt>
      <trkpt lat="48.20721" lon="5.1855">
        <ele>272.87</ele>
        <time>2024-12-23T23:18:35.480Z</time>
      </trkpt>
      <trkpt lat="48.20713" lon="5.1854">
        <ele>272.18</ele>
        <time>2024-12-23T23:18:43.189Z</time>
      </trkpt>
      <trkpt lat="48.20695" lon="5.18525">
        <ele>271.58</ele>
        <time>2024-12-23T23:18:50.901Z</time>
      </trkpt>
      <trkpt lat="48.20676" lon="5.1851">
        <ele>271.1</ele>
        <time>2024-12-23T23:18:58.616Z</time>
      </trkpt>
      <trkpt lat="48.20658" lon="5.18492">
        <ele>270.71</ele>
        <time>2024-12-23T23:19:06.335Z</time>
      </trkpt>
      <trkpt lat="48.20641" lon="5.18474">
        <ele>270.38</ele>
        <time>2024-12-23T23:19:14.057Z</time>
      </trkpt>
      <trkpt lat="48.20623" lon="5.18456">
        <ele>270.12</ele>
        <time>2024-12-23T23:19:21.783Z</time>
      </trkpt>
      <trkpt lat="48.20623" lon="5.18456">
        <ele>269.94</ele>
        <time>2024-12-23T23:19:29.509Z</time>
      </trkpt>
      <trkpt lat="48.20606" lon="5.18426">
        <ele>269.83</ele>
        <time>2024-12-23T23:19:37.239Z</time>
      </trkpt>
      <trkpt lat="48.20597" lon="5.18404">
        <ele>269.8</ele>
        <time>2024-12-23T23:19:44.971Z</time>
      </trkpt>
      <trkpt lat="48.2059" lon="5.18366">
        <ele>269.83</ele>
        <time>2024-12-23T23:19:52.708Z</time>
      </trkpt>
      <trkpt lat="48.20584" lon="5.18335">
        <ele>269.86</ele>
        <time>2024-12-23T23:20:00.448Z</time>
      </trkpt>
      <trkpt lat="48.20578" lon="5.18304">
        <ele>270.01</ele>
        <time>2024-12-23T23:20:08.192Z</time>
      </trkpt>
      <trkpt lat="48.20574" lon="5.1826">
        <ele>270.21</ele>
        <time>2024-12-23T23:20:15.940Z</time>
      </trkpt>
      <trkpt lat="48.20571" lon="5.18215">
        <ele>270.46</ele>
        <time>2024-12-23T23:20:23.693Z</time>
      </trkpt>
      <trkpt lat="48.20568" lon="5.18171">
        <ele>270.72</ele>
        <time>2024-12-23T23:20:31.451Z</time>
      </trkpt>
      <trkpt lat="48.20565" lon="5.18128">
        <ele>271.03</ele>
        <time>2024-12-23T23:20:39.214Z</time>
      </trkpt>
      <trkpt lat="48.20558" lon="5.18082">
        <ele>271.25</ele>
        <time>2024-12-23T23:20:46.982Z</time>
      </trkpt>
      <trkpt lat="48.2055" lon="5.18037">
        <ele>271.59</ele>
        <time>2024-12-23T23:20:54.755Z</time>
      </trkpt>
      <trkpt lat="48.20543" lon="5.17991">
        <ele>271.95</ele>
        <time>2024-12-23T23:21:02.533Z</time>
      </trkpt>
      <trkpt lat="48.20536" lon="5.17946">
        <ele>272.32</ele>
        <time>2024-12-23T23:21:10.316Z</time>
      </trkpt>
      <trkpt lat="48.20529" lon="5.179">
        <ele>272.65</ele>
        <time>2024-12-23T23:21:18.104Z</time>
      </trkpt>
      <trkpt lat="48.20522" lon="5.17855">
        <ele>272.87</ele>
        <time>2024-12-23T23:21:25.897Z</time>
      </trkpt>
      <trkpt lat="48.20512" lon="5.17815">
        <ele>273.09</ele>
        <time>2024-12-23T23:21:33.694Z</time>
      </trkpt>
      <trkpt lat="48.20503" lon="5.17776">
        <ele>273.32</ele>
        <time>2024-12-23T23:21:41.496Z</time>
      </trkpt>
      <trkpt lat="48.2049" lon="5.17733">
        <ele>273.54</ele>
        <time>2024-12-23T23:21:49.303Z</time>
      </trkpt>
      <trkpt lat="48.20477" lon="5.1769">
        <ele>273.75</ele>
        <time>2024-12-23T23:21:57.115Z</time>
      </trkpt>
      <trkpt lat="48.20464" lon="5.17647">
        <ele>273.8</ele>
        <time>2024-12-23T23:22:04.932Z</time>
      </trkpt>
      <trkpt lat="48.20454" lon="5.17608">
        <ele>273.82</ele>
        <time>2024-12-23T23:22:12.753Z</time>
      </trkpt>
      <trkpt lat="48.20445" lon="5.1757">
        <ele>273.73</ele>
        <time>2024-12-23T23:22:20.579Z</time>
      </trkpt>
      <trkpt lat="48.20441" lon="5.17543">
        <ele>273.67</ele>
        <time>2024-12-23T23:22:28.407Z</time>
      </trkpt>
      <trkpt lat="48.20438" lon="5.17516">
        <ele>273.59</ele>
        <time>2024-12-23T23:22:36.238Z</time>
      </trkpt>
      <trkpt lat="48.20435" lon="5.17473">
        <ele>273.42</ele>
        <time>2024-12-23T23:22:44.074Z</time>
      </trkpt>
      <trkpt lat="48.20432" lon="5.1743">
        <ele>273.14</ele>
        <time>2024-12-23T23:22:51.915Z</time>
      </trkpt>
      <trkpt lat="48.20432" lon="5.1743">
        <ele>272.86</ele>
        <time>2024-12-23T23:22:59.756Z</time>
      </trkpt>
      <trkpt lat="48.20431" lon="5.17391">
        <ele>272.57</ele>
        <time>2024-12-23T23:23:07.601Z</time>
      </trkpt>
      <trkpt lat="48.2043" lon="5.17351">
        <ele>272.12</ele>
        <time>2024-12-23T23:23:15.450Z</time>
      </trkpt>
      <trkpt lat="48.2043" lon="5.17312">
        <ele>271.61</ele>
        <time>2024-12-23T23:23:23.303Z</time>
      </trkpt>
      <trkpt lat="48.20433" lon="5.1727">
        <ele>271.09</ele>
        <time>2024-12-23T23:23:31.161Z</time>
      </trkpt>
      <trkpt lat="48.20436" lon="5.17229">
        <ele>270.48</ele>
        <time>2024-12-23T23:23:39.023Z</time>
      </trkpt>
      <trkpt lat="48.2044" lon="5.17191">
        <ele>269.83</ele>
        <time>2024-12-23T23:23:46.889Z</time>
      </trkpt>
      <trkpt lat="48.20445" lon="5.17154">
        <ele>269.18</ele>
        <time>2024-12-23T23:23:54.759Z</time>
      </trkpt>
      <trkpt lat="48.20449" lon="5.17116">
        <ele>268.5</ele>
        <time>2024-12-23T23:24:02.633Z</time>
      </trkpt>
      <trkpt lat="48.20453" lon="5.17079">
        <ele>267.74</ele>
        <time>2024-12-23T23:24:10.512Z</time>
      </trkpt>
      <trkpt lat="48.20457" lon="5.17042">
        <ele>266.95</ele>
        <time>2024-12-23T23:24:18.395Z</time>
      </trkpt>
      <trkpt lat="48.20465" lon="5.17005">
        <ele>266.09</ele>
        <time>2024-12-23T23:24:26.282Z</time>
      </trkpt>
      <trkpt lat="48.20473" lon="5.16969">
        <ele>265.16</ele>
        <time>2024-12-23T23:24:34.173Z</time>
      </trkpt>
      <trkpt lat="48.20481" lon="5.16932">
        <ele>264.26</ele>
        <time>2024-12-23T23:24:42.068Z</time>
      </trkpt>
      <trkpt lat="48.2049" lon="5.16897">
        <ele>263.35</ele>
        <time>2024-12-23T23:24:49.967Z</time>
      </trkpt>
      <trkpt lat="48.205" lon="5.16862">
        <ele>262.4</ele>
        <time>2024-12-23T23:24:57.870Z</time>
      </trkpt>
      <trkpt lat="48.20509" lon="5.16827">
        <ele>261.48</ele>
        <time>2024-12-23T23:25:05.777Z</time>
      </trkpt>
      <trkpt lat="48.20519" lon="5.16795">
        <ele>260.49</ele>
        <time>2024-12-23T23:25:13.688Z</time>
      </trkpt>
      <trkpt lat="48.20528" lon="5.16763">
        <ele>259.47</ele>
        <time>2024-12-23T23:25:21.603Z</time>
      </trkpt>
      <trkpt lat="48.20535" lon="5.16724">
        <ele>258.4</ele>
        <time>2024-12-23T23:25:29.522Z</time>
      </trkpt>
      <trkpt lat="48.20535" lon="5.16724">
        <ele>257.48</ele>
        <time>2024-12-23T23:25:37.441Z</time>
      </trkpt>
      <trkpt lat="48.20537" lon="5.16686">
        <ele>256.41</ele>
        <time>2024-12-23T23:25:45.364Z</time>
      </trkpt>
      <trkpt lat="48.20539" lon="5.16647">
        <ele>255.48</ele>
        <time>2024-12-23T23:25:53.291Z</time>
      </trkpt>
      <trkpt lat="48.20536" lon="5.16617">
        <ele>254.59</ele>
        <time>2024-12-23T23:26:01.221Z</time>
      </trkpt>
      <trkpt lat="48.20533" lon="5.16587">
        <ele>253.74</ele>
        <time>2024-12-23T23:26:09.155Z</time>
      </trkpt>
      <trkpt lat="48.20526" lon="5.16546">
        <ele>252.91</ele>
        <time>2024-12-23T23:26:17.093Z</time>
      </trkpt>
      <trkpt lat="48.20518" lon="5.16518">
        <ele>252.12</ele>
        <time>2024-12-23T23:26:25.034Z</time>
      </trkpt>
      <trkpt lat="48.20509" lon="5.1649">
        <ele>251.38</ele>
        <time>2024-12-23T23:26:32.979Z</time>
      </trkpt>
      <trkpt lat="48.20505" lon="5.1648">
        <ele>250.72</ele>
        <time>2024-12-23T23:26:40.925Z</time>
      </trkpt>
      <trkpt lat="48.20492" lon="5.16443">
        <ele>250.08</ele>
        <time>2024-12-23T23:26:48.875Z</time>
      </trkpt>
      <trkpt lat="48.20483" lon="5.16413">
        <ele>249.42</ele>
        <time>2024-12-23T23:26:56.829Z</time>
      </trkpt>
      <trkpt lat="48.20477" lon="5.16374">
        <ele>248.83</ele>
        <time>2024-12-23T23:27:04.787Z</time>
      </trkpt>
      <trkpt lat="48.2047" lon="5.16336">
        <ele>248.33</ele>
        <time>2024-12-23T23:27:12.749Z</time>
      </trkpt>
      <trkpt lat="48.20469" lon="5.16299">
        <ele>247.85</ele>
        <time>2024-12-23T23:27:20.715Z</time>
      </trkpt>
      <trkpt lat="48.20468" lon="5.16263">
        <ele>247.44</ele>
        <time>2024-12-23T23:27:28.685Z</time>
      </trkpt>
      <trkpt lat="48.20472" lon="5.16222">
        <ele>247.02</ele>
        <time>2024-12-23T23:27:36.660Z</time>
      </trkpt>
      <trkpt lat="48.20477" lon="5.16181">
        <ele>246.65</ele>
        <time>2024-12-23T23:27:44.639Z</time>
      </trkpt>
      <trkpt lat="48.20481" lon="5.16139">
        <ele>246.4</ele>
        <time>2024-12-23T23:27:52.623Z</time>
      </trkpt>
      <trkpt lat="48.20485" lon="5.16098">
        <ele>246.25</ele>
        <time>2024-12-23T23:28:00.611Z</time>
      </trkpt>
      <trkpt lat="48.2049" lon="5.16057">
        <ele>246.09</ele>
        <time>2024-12-23T23:28:08.604Z</time>
      </trkpt>
      <trkpt lat="48.20494" lon="5.16016">
        <ele>245.96</ele>
        <time>2024-12-23T23:28:16.601Z</time>
      </trkpt>
      <trkpt lat="48.20495" lon="5.15978">
        <ele>245.83</ele>
        <time>2024-12-23T23:28:24.602Z</time>
      </trkpt>
      <trkpt lat="48.20496" lon="5.15939">
        <ele>245.72</ele>
        <time>2024-12-23T23:28:32.607Z</time>
      </trkpt>
      <trkpt lat="48.20495" lon="5.15892">
        <ele>245.48</ele>
        <time>2024-12-23T23:28:40.617Z</time>
      </trkpt>
      <trkpt lat="48.20495" lon="5.15846">
        <ele>245.28</ele>
        <time>2024-12-23T23:28:48.632Z</time>
      </trkpt>
      <trkpt lat="48.20494" lon="5.158">
        <ele>245.08</ele>
        <time>2024-12-23T23:28:56.652Z</time>
      </trkpt>
      <trkpt lat="48.20491" lon="5.1576">
        <ele>244.85</ele>
        <time>2024-12-23T23:29:04.676Z</time>
      </trkpt>
      <trkpt lat="48.20489" lon="5.1572">
        <ele>244.56</ele>
        <time>2024-12-23T23:29:12.705Z</time>
      </trkpt>
      <trkpt lat="48.20486" lon="5.15681">
        <ele>244.31</ele>
        <time>2024-12-23T23:29:20.738Z</time>
      </trkpt>
      <trkpt lat="48.20484" lon="5.15641">
        <ele>244</ele>
        <time>2024-12-23T23:29:28.775Z</time>
      </trkpt>
      <trkpt lat="48.20481" lon="5.15602">
        <ele>243.68</ele>
        <time>2024-12-23T23:29:36.816Z</time>
      </trkpt>
      <trkpt lat="48.20477" lon="5.1556">
        <ele>243.32</ele>
        <time>2024-12-23T23:29:44.862Z</time>
      </trkpt>
      <trkpt lat="48.20473" lon="5.15517">
        <ele>242.99</ele>
        <time>2024-12-23T23:29:52.913Z</time>
      </trkpt>
      <trkpt lat="48.20469" lon="5.15475">
        <ele>242.74</ele>
        <time>2024-12-23T23:30:00.968Z</time>
      </trkpt>
      <trkpt lat="48.20465" lon="5.15433">
        <ele>242.48</ele>
        <time>2024-12-23T23:30:09.028Z</time>
      </trkpt>
      <trkpt lat="48.20461" lon="5.1539">
        <ele>242.18</ele>
        <time>2024-12-23T23:30:17.092Z</time>
      </trkpt>
      <trkpt lat="48.20457" lon="5.15348">
        <ele>241.88</ele>
        <time>2024-12-23T23:30:25.161Z</time>
      </trkpt>
      <trkpt lat="48.20452" lon="5.15305">
        <ele>241.58</ele>
        <time>2024-12-23T23:30:33.234Z</time>
      </trkpt>
      <trkpt lat="48.20448" lon="5.15263">
        <ele>241.28</ele>
        <time>2024-12-23T23:30:41.312Z</time>
      </trkpt>
      <trkpt lat="48.20444" lon="5.15221">
        <ele>240.98</ele>
        <time>2024-12-23T23:30:49.395Z</time>
      </trkpt>
      <trkpt lat="48.2044" lon="5.15179">
        <ele>240.72</ele>
        <time>2024-12-23T23:30:57.482Z</time>
      </trkpt>
      <trkpt lat="48.20437" lon="5.15133">
        <ele>240.46</ele>
        <time>2024-12-23T23:31:05.574Z</time>
      </trkpt>
      <trkpt lat="48.20434" lon="5.15087">
        <ele>240.26</ele>
        <time>2024-12-23T23:31:13.671Z</time>
      </trkpt>
      <trkpt lat="48.20431" lon="5.15041">
        <ele>240.04</ele>
        <time>2024-12-23T23:31:21.773Z</time>
      </trkpt>
      <trkpt lat="48.20427" lon="5.14995">
        <ele>239.68</ele>
        <time>2024-12-23T23:31:29.880Z</time>
      </trkpt>
      <trkpt lat="48.20427" lon="5.14995">
        <ele>239.46</ele>
        <time>2024-12-23T23:31:37.987Z</time>
      </trkpt>
      <trkpt lat="48.20427" lon="5.1496">
        <ele>239.14</ele>
        <time>2024-12-23T23:31:46.098Z</time>
      </trkpt>
      <trkpt lat="48.20427" lon="5.14926">
        <ele>238.94</ele>
        <time>2024-12-23T23:31:54.212Z</time>
      </trkpt>
      <trkpt lat="48.20427" lon="5.14892">
        <ele>238.77</ele>
        <time>2024-12-23T23:32:02.330Z</time>
      </trkpt>
      <trkpt lat="48.20427" lon="5.14881">
        <ele>238.63</ele>
        <time>2024-12-23T23:32:10.449Z</time>
      </trkpt>
      <trkpt lat="48.20412" lon="5.14883">
        <ele>238.48</ele>
        <time>2024-12-23T23:32:18.571Z</time>
      </trkpt>
      <trkpt lat="48.20387" lon="5.149">
        <ele>238.37</ele>
        <time>2024-12-23T23:32:26.697Z</time>
      </trkpt>
      <trkpt lat="48.20361" lon="5.14918">
        <ele>238.36</ele>
        <time>2024-12-23T23:32:34.828Z</time>
      </trkpt>
      <trkpt lat="48.20335" lon="5.14935">
        <ele>238.43</ele>
        <time>2024-12-23T23:32:42.963Z</time>
      </trkpt>
      <trkpt lat="48.20309" lon="5.14952">
        <ele>238.41</ele>
        <time>2024-12-23T23:32:51.103Z</time>
      </trkpt>
      <trkpt lat="48.20284" lon="5.14969">
        <ele>238.4</ele>
        <time>2024-12-23T23:32:59.247Z</time>
      </trkpt>
      <trkpt lat="48.20258" lon="5.14986">
        <ele>238.32</ele>
        <time>2024-12-23T23:33:07.396Z</time>
      </trkpt>
      <trkpt lat="48.20232" lon="5.15003">
        <ele>238.25</ele>
        <time>2024-12-23T23:33:15.549Z</time>
      </trkpt>
      <trkpt lat="48.20206" lon="5.15021">
        <ele>238.19</ele>
        <time>2024-12-23T23:33:23.707Z</time>
      </trkpt>
      <trkpt lat="48.20179" lon="5.15025">
        <ele>238.18</ele>
        <time>2024-12-23T23:33:31.869Z</time>
      </trkpt>
      <trkpt lat="48.20158" lon="5.15038">
        <ele>238.27</ele>
        <time>2024-12-23T23:33:40.035Z</time>
      </trkpt>
      <trkpt lat="48.20138" lon="5.15051">
        <ele>238.41</ele>
        <time>2024-12-23T23:33:48.204Z</time>
      </trkpt>
      <trkpt lat="48.20127" lon="5.1507">
        <ele>238.54</ele>
        <time>2024-12-23T23:33:56.376Z</time>
      </trkpt>
      <trkpt lat="48.201" lon="5.15087">
        <ele>238.69</ele>
        <time>2024-12-23T23:34:04.553Z</time>
      </trkpt>
      <trkpt lat="48.20072" lon="5.15104">
        <ele>238.76</ele>
        <time>2024-12-23T23:34:12.734Z</time>
      </trkpt>
      <trkpt lat="48.20045" lon="5.15121">
        <ele>238.89</ele>
        <time>2024-12-23T23:34:20.920Z</time>
      </trkpt>
      <trkpt lat="48.20018" lon="5.15139">
        <ele>239.09</ele>
        <time>2024-12-23T23:34:29.111Z</time>
      </trkpt>
      <trkpt lat="48.1999" lon="5.15156">
        <ele>239.21</ele>
        <time>2024-12-23T23:34:37.307Z</time>
      </trkpt>
      <trkpt lat="48.19963" lon="5.15173">
        <ele>239.3</ele>
        <time>2024-12-23T23:34:45.507Z</time>
      </trkpt>
      <trkpt lat="48.19935" lon="5.1519">
        <ele>239.55</ele>
        <time>2024-12-23T23:34:53.712Z</time>
      </trkpt>
      <trkpt lat="48.19908" lon="5.15207">
        <ele>239.81</ele>
        <time>2024-12-23T23:35:01.922Z</time>
      </trkpt>
      <trkpt lat="48.19882" lon="5.15224">
        <ele>239.98</ele>
        <time>2024-12-23T23:35:10.136Z</time>
      </trkpt>
      <trkpt lat="48.19856" lon="5.1524">
        <ele>240.17</ele>
        <time>2024-12-23T23:35:18.355Z</time>
      </trkpt>
      <trkpt lat="48.1983" lon="5.15257">
        <ele>240.31</ele>
        <time>2024-12-23T23:35:26.579Z</time>
      </trkpt>
      <trkpt lat="48.19804" lon="5.15273">
        <ele>240.39</ele>
        <time>2024-12-23T23:35:34.807Z</time>
      </trkpt>
      <trkpt lat="48.19778" lon="5.1529">
        <ele>240.43</ele>
        <time>2024-12-23T23:35:43.040Z</time>
      </trkpt>
      <trkpt lat="48.19752" lon="5.15306">
        <ele>240.45</ele>
        <time>2024-12-23T23:35:51.277Z</time>
      </trkpt>
      <trkpt lat="48.19729" lon="5.15323">
        <ele>240.46</ele>
        <time>2024-12-23T23:35:59.518Z</time>
      </trkpt>
      <trkpt lat="48.19706" lon="5.1534">
        <ele>240.46</ele>
        <time>2024-12-23T23:36:07.763Z</time>
      </trkpt>
      <trkpt lat="48.19678" lon="5.15358">
        <ele>240.39</ele>
        <time>2024-12-23T23:36:16.013Z</time>
      </trkpt>
      <trkpt lat="48.1965" lon="5.15375">
        <ele>240.37</ele>
        <time>2024-12-23T23:36:24.268Z</time>
      </trkpt>
      <trkpt lat="48.19622" lon="5.15393">
        <ele>240.34</ele>
        <time>2024-12-23T23:36:32.528Z</time>
      </trkpt>
      <trkpt lat="48.19593" lon="5.1541">
        <ele>240.24</ele>
        <time>2024-12-23T23:36:40.793Z</time>
      </trkpt>
      <trkpt lat="48.19565" lon="5.15428">
        <ele>240.04</ele>
        <time>2024-12-23T23:36:49.063Z</time>
      </trkpt>
      <trkpt lat="48.19537" lon="5.15445">
        <ele>239.86</ele>
        <time>2024-12-23T23:36:57.338Z</time>
      </trkpt>
      <trkpt lat="48.19509" lon="5.15463">
        <ele>239.67</ele>
        <time>2024-12-23T23:37:05.618Z</time>
      </trkpt>
      <trkpt lat="48.1948" lon="5.15481">
        <ele>239.5</ele>
        <time>2024-12-23T23:37:13.902Z</time>
      </trkpt>
      <trkpt lat="48.19452" lon="5.15498">
        <ele>239.3</ele>
        <time>2024-12-23T23:37:22.191Z</time>
      </trkpt>
      <trkpt lat="48.19424" lon="5.15516">
        <ele>239.05</ele>
        <time>2024-12-23T23:37:30.485Z</time>
      </trkpt>
      <trkpt lat="48.19396" lon="5.15533">
        <ele>238.81</ele>
        <time>2024-12-23T23:37:38.784Z</time>
      </trkpt>
      <trkpt lat="48.19367" lon="5.15551">
        <ele>238.54</ele>
        <time>2024-12-23T23:37:47.088Z</time>
      </trkpt>
      <trkpt lat="48.19345" lon="5.15568">
        <ele>238.3</ele>
        <time>2024-12-23T23:37:55.396Z</time>
      </trkpt>
      <trkpt lat="48.19323" lon="5.15585">
        <ele>237.98</ele>
        <time>2024-12-23T23:38:03.708Z</time>
      </trkpt>
      <trkpt lat="48.19301" lon="5.15602">
        <ele>237.67</ele>
        <time>2024-12-23T23:38:12.024Z</time>
      </trkpt>
      <trkpt lat="48.19281" lon="5.15621">
        <ele>237.44</ele>
        <time>2024-12-23T23:38:20.344Z</time>
      </trkpt>
      <trkpt lat="48.19261" lon="5.15639">
        <ele>237.31</ele>
        <time>2024-12-23T23:38:28.668Z</time>
      </trkpt>
      <trkpt lat="48.19241" lon="5.15658">
        <ele>237.17</ele>
        <time>2024-12-23T23:38:36.995Z</time>
      </trkpt>
      <trkpt lat="48.19216" lon="5.15685">
        <ele>237.06</ele>
        <time>2024-12-23T23:38:45.327Z</time>
      </trkpt>
      <trkpt lat="48.19191" lon="5.15712">
        <ele>236.87</ele>
        <time>2024-12-23T23:38:53.664Z</time>
      </trkpt>
      <trkpt lat="48.19166" lon="5.15739">
        <ele>236.73</ele>
        <time>2024-12-23T23:39:02.006Z</time>
      </trkpt>
      <trkpt lat="48.19144" lon="5.15768">
        <ele>236.68</ele>
        <time>2024-12-23T23:39:10.353Z</time>
      </trkpt>
      <trkpt lat="48.19122" lon="5.15797">
        <ele>236.58</ele>
        <time>2024-12-23T23:39:18.705Z</time>
      </trkpt>
      <trkpt lat="48.19101" lon="5.15826">
        <ele>236.54</ele>
        <time>2024-12-23T23:39:27.061Z</time>
      </trkpt>
      <trkpt lat="48.19079" lon="5.15855">
        <ele>236.43</ele>
        <time>2024-12-23T23:39:35.422Z</time>
      </trkpt>
      <trkpt lat="48.19057" lon="5.15884">
        <ele>236.32</ele>
        <time>2024-12-23T23:39:43.787Z</time>
      </trkpt>
      <trkpt lat="48.19036" lon="5.15913">
        <ele>236.23</ele>
        <time>2024-12-23T23:39:52.157Z</time>
      </trkpt>
      <trkpt lat="48.19014" lon="5.15942">
        <ele>236.28</ele>
        <time>2024-12-23T23:40:00.532Z</time>
      </trkpt>
      <trkpt lat="48.18993" lon="5.15971">
        <ele>236.44</ele>
        <time>2024-12-23T23:40:08.911Z</time>
      </trkpt>
      <trkpt lat="48.18971" lon="5.16">
        <ele>236.51</ele>
        <time>2024-12-23T23:40:17.295Z</time>
      </trkpt>
      <trkpt lat="48.18971" lon="5.16">
        <ele>236.56</ele>
        <time>2024-12-23T23:40:25.679Z</time>
      </trkpt>
      <trkpt lat="48.18971" lon="5.16">
        <ele>236.62</ele>
        <time>2024-12-23T23:40:34.063Z</time>
      </trkpt>
      <trkpt lat="48.18971" lon="5.16">
        <ele>236.69</ele>
        <time>2024-12-23T23:40:42.447Z</time>
      </trkpt>
      <trkpt lat="48.18957" lon="5.16019">
        <ele>236.79</ele>
        <time>2024-12-23T23:40:50.834Z</time>
      </trkpt>
      <trkpt lat="48.18943" lon="5.16038">
        <ele>236.88</ele>
        <time>2024-12-23T23:40:59.224Z</time>
      </trkpt>
      <trkpt lat="48.18924" lon="5.16057">
        <ele>237.03</ele>
        <time>2024-12-23T23:41:07.618Z</time>
      </trkpt>
      <trkpt lat="48.18906" lon="5.16076">
        <ele>237.11</ele>
        <time>2024-12-23T23:41:16.015Z</time>
      </trkpt>
      <trkpt lat="48.18884" lon="5.16091">
        <ele>237.26</ele>
        <time>2024-12-23T23:41:24.416Z</time>
      </trkpt>
      <trkpt lat="48.18862" lon="5.16106">
        <ele>237.38</ele>
        <time>2024-12-23T23:41:32.821Z</time>
      </trkpt>
      <trkpt lat="48.1884" lon="5.16121">
        <ele>237.56</ele>
        <time>2024-12-23T23:41:41.230Z</time>
      </trkpt>
      <trkpt lat="48.18815" lon="5.16133">
        <ele>237.75</ele>
        <time>2024-12-23T23:41:49.643Z</time>
      </trkpt>
      <trkpt lat="48.18791" lon="5.16144">
        <ele>237.98</ele>
        <time>2024-12-23T23:41:58.060Z</time>
      </trkpt>
      <trkpt lat="48.18767" lon="5.16156">
        <ele>238.21</ele>
        <time>2024-12-23T23:42:06.481Z</time>
      </trkpt>
      <trkpt lat="48.18746" lon="5.16161">
        <ele>238.49</ele>
        <time>2024-12-23T23:42:14.906Z</time>
      </trkpt>
      <trkpt lat="48.18726" lon="5.16166">
        <ele>238.81</ele>
        <time>2024-12-23T23:42:23.334Z</time>
      </trkpt>
      <trkpt lat="48.18696" lon="5.1617">
        <ele>239.14</ele>
        <time>2024-12-23T23:42:31.767Z</time>
      </trkpt>
      <trkpt lat="48.18666" lon="5.16173">
        <ele>239.33</ele>
        <time>2024-12-23T23:42:40.204Z</time>
      </trkpt>
      <trkpt lat="48.18639" lon="5.16171">
        <ele>239.48</ele>
        <time>2024-12-23T23:42:48.646Z</time>
      </trkpt>
      <trkpt lat="48.18612" lon="5.16169">
        <ele>239.63</ele>
        <time>2024-12-23T23:42:57.092Z</time>
      </trkpt>
      <trkpt lat="48.18587" lon="5.16163">
        <ele>239.85</ele>
        <time>2024-12-23T23:43:05.542Z</time>
      </trkpt>
      <trkpt lat="48.18563" lon="5.16157">
        <ele>240.15</ele>
        <time>2024-12-23T23:43:13.996Z</time>
      </trkpt>
      <trkpt lat="48.18538" lon="5.16151">
        <ele>240.45</ele>
        <time>2024-12-23T23:43:22.454Z</time>
      </trkpt>
      <trkpt lat="48.18513" lon="5.16145">
        <ele>240.67</ele>
        <time>2024-12-23T23:43:30.916Z</time>
      </trkpt>
      <trkpt lat="48.18484" lon="5.16131">
        <ele>240.82</ele>
        <time>2024-12-23T23:43:39.383Z</time>
      </trkpt>
      <trkpt lat="48.18455" lon="5.16117">
        <ele>240.88</ele>
        <time>2024-12-23T23:43:47.855Z</time>
      </trkpt>
      <trkpt lat="48.18426" lon="5.16099">
        <ele>240.98</ele>
        <time>2024-12-23T23:43:56.332Z</time>
      </trkpt>
      <trkpt lat="48.18398" lon="5.16081">
        <ele>241.05</ele>
        <time>2024-12-23T23:44:04.814Z</time>
      </trkpt>
      <trkpt lat="48.18375" lon="5.16058">
        <ele>241.07</ele>
        <time>2024-12-23T23:44:13.300Z</time>
      </trkpt>
      <trkpt lat="48.18353" lon="5.16036">
        <ele>241.08</ele>
        <time>2024-12-23T23:44:21.790Z</time>
      </trkpt>
      <trkpt lat="48.18331" lon="5.16014">
        <ele>241.28</ele>
        <time>2024-12-23T23:44:30.285Z</time>
      </trkpt>
      <trkpt lat="48.18312" lon="5.15987">
        <ele>241.61</ele>
        <time>2024-12-23T23:44:38.784Z</time>
      </trkpt>
      <trkpt lat="48.18292" lon="5.1596">
        <ele>241.82</ele>
        <time>2024-12-23T23:44:47.287Z</time>
      </trkpt>
      <trkpt lat="48.18273" lon="5.15933">
        <ele>241.88</ele>
        <time>2024-12-23T23:44:55.794Z</time>
      </trkpt>
      <trkpt lat="48.18256" lon="5.15899">
        <ele>242.05</ele>
        <time>2024-12-23T23:45:04.306Z</time>
      </trkpt>
      <trkpt lat="48.18239" lon="5.15865">
        <ele>242.14</ele>
        <time>2024-12-23T23:45:12.823Z</time>
      </trkpt>
      <trkpt lat="48.18222" lon="5.15832">
        <ele>242.19</ele>
        <time>2024-12-23T23:45:21.344Z</time>
      </trkpt>
      <trkpt lat="48.18207" lon="5.15792">
        <ele>242.36</ele>
        <time>2024-12-23T23:45:29.870Z</time>
      </trkpt>
      <trkpt lat="48.18193" lon="5.15753">
        <ele>242.69</ele>
        <time>2024-12-23T23:45:38.401Z</time>
      </trkpt>
      <trkpt lat="48.18179" lon="5.15713">
        <ele>243.03</ele>
        <time>2024-12-23T23:45:46.937Z</time>
      </trkpt>
      <trkpt lat="48.18164" lon="5.15673">
        <ele>243.22</ele>
        <time>2024-12-23T23:45:55.477Z</time>
      </trkpt>
      <trkpt lat="48.1815" lon="5.15634">
        <ele>243.28</ele>
        <time>2024-12-23T23:46:04.022Z</time>
      </trkpt>
      <trkpt lat="48.18136" lon="5.15594">
        <ele>243.28</ele>
        <time>2024-12-23T23:46:12.572Z</time>
      </trkpt>
      <trkpt lat="48.18121" lon="5.15555">
        <ele>243.33</ele>
        <time>2024-12-23T23:46:21.127Z</time>
      </trkpt>
      <trkpt lat="48.18107" lon="5.15515">
        <ele>243.39</ele>
        <time>2024-12-23T23:46:29.687Z</time>
      </trkpt>
      <trkpt lat="48.18093" lon="5.15476">
        <ele>243.3</ele>
        <time>2024-12-23T23:46:38.251Z</time>
      </trkpt>
      <trkpt lat="48.18078" lon="5.15436">
        <ele>243.3</ele>
        <time>2024-12-23T23:46:46.820Z</time>
      </trkpt>
      <trkpt lat="48.18064" lon="5.15397">
        <ele>243.38</ele>
        <time>2024-12-23T23:46:55.394Z</time>
      </trkpt>
      <trkpt lat="48.1805" lon="5.15357">
        <ele>243.41</ele>
        <time>2024-12-23T23:47:03.973Z</time>
      </trkpt>
      <trkpt lat="48.18035" lon="5.15317">
        <ele>243.38</ele>
        <time>2024-12-23T23:47:12.557Z</time>
      </trkpt>
      <trkpt lat="48.18021" lon="5.15278">
        <ele>243.2</ele>
        <time>2024-12-23T23:47:21.146Z</time>
      </trkpt>
      <trkpt lat="48.18007" lon="5.15239">
        <ele>243.09</ele>
        <time>2024-12-23T23:47:29.739Z</time>
      </trkpt>
      <trkpt lat="48.17991" lon="5.152">
        <ele>243.08</ele>
        <time>2024-12-23T23:47:38.337Z</time>
      </trkpt>
      <trkpt lat="48.17974" lon="5.15161">
        <ele>243.14</ele>
        <time>2024-12-23T23:47:46.940Z</time>
      </trkpt>
      <trkpt lat="48.17958" lon="5.15121">
        <ele>243.1</ele>
        <time>2024-12-23T23:47:55.548Z</time>
      </trkpt>
      <trkpt lat="48.17941" lon="5.15082">
        <ele>243.24</ele>
        <time>2024-12-23T23:48:04.161Z</time>
      </trkpt>
      <trkpt lat="48.17925" lon="5.15042">
        <ele>243.43</ele>
        <time>2024-12-23T23:48:12.779Z</time>
      </trkpt>
      <trkpt lat="48.17908" lon="5.15003">
        <ele>243.54</ele>
        <time>2024-12-23T23:48:21.402Z</time>
      </trkpt>
      <trkpt lat="48.179" lon="5.14978">
        <ele>243.47</ele>
        <time>2024-12-23T23:48:30.028Z</time>
      </trkpt>
      <trkpt lat="48.17891" lon="5.14952">
        <ele>243.3</ele>
        <time>2024-12-23T23:48:38.657Z</time>
      </trkpt>
      <trkpt lat="48.17883" lon="5.14958">
        <ele>242.99</ele>
        <time>2024-12-23T23:48:47.288Z</time>
      </trkpt>
      <trkpt lat="48.17863" lon="5.14976">
        <ele>242.77</ele>
        <time>2024-12-23T23:48:55.922Z</time>
      </trkpt>
      <trkpt lat="48.17844" lon="5.14993">
        <ele>242.78</ele>
        <time>2024-12-23T23:49:04.560Z</time>
      </trkpt>
      <trkpt lat="48.17835" lon="5.14999">
        <ele>242.79</ele>
        <time>2024-12-23T23:49:13.199Z</time>
      </trkpt>
      <trkpt lat="48.17857" lon="5.15023">
        <ele>242.81</ele>
        <time>2024-12-23T23:49:21.843Z</time>
      </trkpt>
      <trkpt lat="48.17866" lon="5.15051">
        <ele>242.87</ele>
        <time>2024-12-23T23:49:30.490Z</time>
      </trkpt>
    </trkseg>
  </trk>
</gpx>